[[{"header":{"parameterUnit":"m.s-1","parameterCategory":1,"la1":30.6,"la2":28.766,"lo1":-90.7593,"lo2":-88.6598,"dy":0.0162,"dx":0.0183,"nx":116,"ny":114,"refTime":"2024-05-02T12:00:00:Z","depth":0,"parameterNumber":2,"parameterNumberName":"U-component_of_WINDS"},"data":[0.0,0.0,0.0,0.0,0.0,0.0,0.0,0.0,0.0,0.0,0.0,0.0,0.0,0.0,0.0,0.0,0.0,0.0,0.0,0.0,0.0,0.0,0.0,0.0,0.0,0.0,0.0,0.0,0.0,0.0,0.0,0.0,0.0,0.0,0.0,0.0,0.0,0.0,0.0,0.0,0.0,0.0,0.0,0.0,0.0,0.0,0.0,0.0,0.0,0.0,0.0,0.0,0.0,0.0,0.0,0.0,0.0,0.0,0.0,0.0,0.0,0.0,0.0,0.0,0.0,0.0,0.0,0.0,0.0,0.0,0.0,0.0,0.0,0.0,0.0,0.0,0.0,0.0,0.0,0.0,0.0,0.0,0.0,0.0,0.0,0.0,0.0,0.0,0.0,0.0,0.0,0.0,0.0,0.0,0.0,0.0,0.0,0.0,0.0,0.0,0.0,0.0,0.0,0.0,0.0,0.0,0.0,0.0,0.0,0.0,0.0,0.0,0.0,0.0,0.0,0.0,0.0,0.0,0.0,0.0,0.0,0.0,0.0,0.0,0.0,0.0,0.0,0.0,0.0,0.0,0.0,0.0,0.0,0.0,0.0,0.0,0.0,0.0,0.0,0.0,0.0,0.0,0.0,0.0,0.0,0.0,0.0,0.0,0.0,0.0,0.0,0.0,0.0,0.0,0.0,0.0,0.0,0.0,0.0,0.0,0.0,0.0,0.0,0.0,0.0,0.0,0.0,0.0,0.0,0.0,0.0,0.0,0.0,0.0,0.0,0.0,0.0,0.0,0.0,0.0,0.0,0.0,0.0,0.0,0.0,0.0,0.0,0.0,0.0,0.0,0.0,0.0,0.0,0.0,0.0,0.0,0.0,0.0,0.0,0.0,0.0,0.0,0.0,0.0,0.0,0.0,0.0,0.0,0.0,0.0,0.0,0.0,0.0,0.0,0.0,0.0,0.0,0.0,0.0,0.0,0.0,0.0,0.0,0.0,0.0,0.0,0.0,0.0,0.0,0.0,0.0,0.0,0.0,0.0,0.0,0.0,0.0,0.0,0.0,0.0,0.0,0.0,0.0,0.0,0.0,0.0,0.0,0.0,0.0,0.0,0.0,0.0,0.0,0.0,0.0,0.0,0.0,0.0,0.0,0.0,0.0,0.0,0.0,0.0,0.0,0.0,0.0,0.0,0.0,0.0,0.0,0.0,0.0,0.0,0.0,0.0,0.0,0.0,0.0,0.0,0.0,0.0,0.0,0.0,0.0,0.0,0.0,0.0,0.0,0.0,0.0,0.0,0.0,0.0,0.0,0.0,0.0,0.0,0.0,0.0,0.0,0.0,0.0,0.0,0.0,0.0,0.0,0.0,0.0,0.0,0.0,0.0,0.0,0.0,0.0,0.0,0.0,0.0,0.0,0.0,0.0,0.0,0.0,0.0,0.0,0.0,0.0,0.0,0.0,0.0,0.0,0.0,0.0,0.0,0.0,0.0,0.0,0.0,0.0,0.0,0.0,0.0,0.0,0.0,0.0,0.0,0.0,0.0,0.0,0.0,0.0,0.0,0.0,0.0,0.0,0.0,0.0,0.0,0.0,0.0,0.0,0.0,0.0,0.0,0.0,0.0,0.0,0.0,0.0,0.0,0.0,0.0,0.0,0.0,0.0,0.0,0.0,0.0,0.0,0.0,0.0,0.0,0.0,0.0,0.0,0.0,0.0,0.0,0.0,0.0,0.0,0.0,0.0,0.0,0.0,0.0,0.0,0.0,0.0,0.0,0.0,0.0,0.0,0.0,0.0,0.0,0.0,0.0,0.0,0.0,0.0,0.0,0.0,0.0,0.0,0.0,0.0,0.0,0.0,0.0,0.0,0.0,0.0,0.0,0.0,0.0,0.0,0.0,0.0,0.0,0.0,0.0,0.0,0.0,0.0,0.0,0.0,0.0,0.0,0.0,0.0,0.0,0.0,0.0,0.0,0.0,0.0,0.0,0.0,0.0,0.0,0.0,0.0,0.0,0.0,0.0,0.0,0.0,0.0,0.0,0.0,0.0,0.0,0.0,0.0,0.0,0.0,0.0,0.0,0.0,0.0,0.0,0.0,0.0,0.0,0.0,0.0,0.0,0.0,0.0,0.0,0.0,0.0,0.0,0.0,0.0,0.0,0.0,0.0,0.0,0.0,0.0,0.0,0.0,0.0,0.0,0.0,0.0,0.0,0.0,0.0,0.0,0.0,0.0,0.0,0.0,0.0,0.0,0.0,0.0,0.0,0.0,0.0,0.0,0.0,0.0,0.0,0.0,0.0,0.0,0.0,0.0,0.0,0.0,0.0,0.0,0.0,0.0,0.0,0.0,0.0,0.0,0.0,0.0,0.0,0.0,0.0,0.0,0.0,0.0,0.0,0.0,0.0,0.0,0.0,0.0,0.0,0.0,0.0,0.0,0.0,0.0,0.0,0.0,0.0,0.0,0.0,0.0,0.0,0.0,0.0,0.0,0.0,0.0,0.0,0.0,0.0,0.0,0.0,0.0,0.0,0.0,0.0,0.0,0.0,0.0,0.0,0.0,0.0,0.0,0.0,0.0,0.0,0.0,0.0,0.0,0.0,0.0,0.0,0.0,0.0,0.0,0.0,0.0,0.0,0.0,0.0,0.0,0.0,0.0,0.0,0.0,0.0,0.0,0.0,0.0,0.0,0.0,0.0,0.0,0.0,0.0,0.0,0.0,0.0,0.0,0.0,0.0,0.0,0.0,0.0,0.0,0.0,0.0,0.0,0.0,0.0,0.0,0.0,0.0,0.0,0.0,0.0,0.0,0.0,0.0,0.0,0.0,0.0,0.0,0.0,0.0,0.0,0.0,0.0,0.0,0.0,0.0,0.0,0.0,0.0,0.0,0.0,0.0,0.0,0.0,0.0,0.0,0.0,0.0,0.0,0.0,0.0,0.0,0.0,0.0,0.0,0.0,0.0,0.0,0.0,0.0,0.0,0.0,0.0,0.0,0.0,0.0,0.0,0.0,0.0,0.0,0.0,0.0,0.0,0.0,0.0,0.0,0.0,0.0,0.0,0.0,0.0,0.0,0.0,0.0,0.0,0.0,0.0,0.0,0.0,0.0,0.0,0.0,0.0,0.0,0.0,0.0,0.0,0.0,0.0,0.0,0.0,0.0,0.0,0.0,0.0,0.0,0.0,0.0,0.0,0.0,0.0,0.0,0.0,0.0,0.0,0.0,0.0,0.0,0.0,0.0,0.0,0.0,0.0,0.0,0.0,0.0,0.0,0.0,0.0,0.0,0.0,0.0,0.0,0.0,0.0,0.0,0.0,0.0,0.0,0.0,0.0,0.0,0.0,0.0,0.0,0.0,0.0,0.0,0.0,0.0,0.0,0.0,0.0,0.0,0.0,0.0,0.0,0.0,0.0,0.0,0.0,0.0,0.0,0.0,0.0,0.0,0.0,0.0,0.0,0.0,0.0,0.0,0.0,0.0,0.0,0.0,0.0,0.0,0.0,0.0,0.0,0.0,0.0,0.0,0.0,0.0,0.0,0.0,0.0,0.0,0.0,0.0,0.0,0.0,0.0,0.0,0.0,0.0,0.0,0.0,0.0,0.0,0.0,0.0,0.0,0.0,0.0,0.0,0.0,0.0,0.0,0.0,0.0,0.0,0.0,0.0,0.0,0.0,0.0,0.0,0.0,0.0,0.0,0.0,0.0,0.0,0.0,0.0,0.0,0.0,0.0,0.0,0.0,0.0,0.0,0.0,0.0,0.0,0.0,0.0,0.0,0.0,0.0,0.0,0.0,0.0,0.0,0.0,0.0,0.0,0.0,0.0,0.0,0.0,0.0,0.0,0.0,0.0,0.0,0.0,0.0,0.0,0.0,0.0,0.0,0.0,0.0,0.0,0.0,0.0,0.0,0.0,0.0,0.0,0.0,0.0,0.0,0.0,0.0,0.0,0.0,0.0,0.0,0.0,0.0,0.0,0.0,0.0,0.0,0.0,0.0,0.0,0.0,0.0,0.0,0.0,0.0,0.0,0.0,0.0,0.0,0.0,0.0,0.0,0.0,0.0,0.0,0.0,0.0,0.0,0.0,0.0,0.0,0.0,0.0,0.0,0.0,0.0,0.0,0.0,0.0,0.0,0.0,0.0,0.0,0.0,0.0,0.0,0.0,0.0,0.0,0.0,0.0,0.0,0.0,0.0,0.0,0.0,0.0,0.0,0.0,0.0,0.0,0.0,0.0,0.0,0.0,0.0,0.0,0.0,0.0,0.0,0.0,0.0,0.0,0.0,0.0,0.0,0.0,0.0,0.0,0.0,0.0,0.0,0.0,0.0,0.0,0.0,0.0,0.0,0.0,0.0,0.0,0.0,0.0,0.0,0.0,0.0,0.0,0.0,0.0,0.0,0.0,0.0,0.0,0.0,0.0,0.0,0.0,0.0,0.0,0.0,0.0,0.0,0.0,0.0,0.0,0.0,0.0,0.0,0.0,0.0,0.0,0.0,0.0,0.0,0.0,0.0,0.0,0.0,0.0,0.0,0.0,0.0,0.0,0.0,0.0,0.0,0.0,0.0,0.0,0.0,0.0,0.0,0.0,0.0,0.0,0.0,0.0,0.0,0.0,0.0,0.0,0.0,0.0,0.0,0.0,0.0,0.0,0.0,0.0,0.0,0.0,0.0,0.0,0.0,0.0,0.0,0.0,0.0,0.0,0.0,0.0,0.0,0.0,0.0,0.0,0.0,0.0,0.0,0.0,0.0,0.0,0.0,0.0,0.0,0.0,0.0,0.0,0.0,0.0,0.0,0.0,0.0,0.0,0.0,0.0,0.0,0.0,0.0,0.0,0.0,0.0,0.0,0.0,0.0,0.0,0.0,0.0,0.0,0.0,0.0,0.0,0.0,0.0,0.0,0.0,0.0,0.0,0.0,0.0,0.0,0.0,0.0,0.0,0.0,0.0,0.0,0.0,0.0,0.0,0.0,0.0,0.0,0.0,0.0,0.0,0.0,0.0,0.0,0.0,0.0,0.0,0.0,0.0,0.0,0.0,0.0,0.0,0.0,0.0,0.0,0.0,0.0,0.0,0.0,0.0,0.0,0.0,0.0,0.0,0.0,0.0,0.0,0.0,0.0,0.0,0.0,0.0,0.0,0.0,0.0,0.0,0.0,0.0,0.0,0.0,0.0,0.0,0.0,0.0,0.0,0.0,0.0,0.0,0.0,0.0,0.0,0.0,0.0,0.0,0.0,0.0,0.0,0.0,0.0,0.0,0.0,0.0,0.0,0.0,0.0,0.0,0.0,0.0,0.0,0.0,0.0,0.0,0.0,0.0,0.0,0.0,0.0,0.0,0.0,0.0,0.0,0.0,0.0,0.0,0.0,0.0,0.0,0.0,0.0,0.0,0.0,0.0,0.0,0.0,0.0,0.0,0.0,0.0,0.0,0.0,0.0,0.0,0.0,0.0,0.0,0.0,0.0,0.0,0.0,0.0,0.0,0.0,0.0,0.0,0.0,0.0,0.0,0.0,0.0,0.0,0.0,0.0,0.0,0.0,0.0,0.0,0.0,0.0,0.0,0.0,0.0,0.0,0.0,0.0,0.0,0.0,0.0,0.0,0.0,0.0,0.0,0.0,0.0,0.0,0.0,0.0,0.0,0.0,0.0,0.0,0.0,0.0,0.0,0.0,0.0,0.0,0.0,0.0,0.0,0.0,0.0,0.0,0.0,0.0,0.0,0.0,0.0,0.0,0.0,0.0,0.0,0.0,0.0,0.0,0.0,0.0,0.0,0.0,0.0,0.0,0.0,0.0,0.0,0.0,0.0,0.0,0.0,0.0,0.0,0.0,0.0,0.0,0.0,0.0,0.0,0.0,0.0,0.0,0.0,0.0,0.0,0.0,0.0,0.0,0.0,0.0,0.0,0.0,0.0,0.0,0.0,0.0,0.0,0.0,0.0,0.0,0.0,0.0,0.0,0.0,0.0,0.0,0.0,0.0,0.0,0.0,0.0,0.0,0.0,0.0,0.0,0.0,0.0,0.0,0.0,0.0,0.0,0.0,0.0,0.0,0.0,0.0,0.0,0.0,0.0,0.0,0.0,0.0,0.0,0.0,0.0,-6.1777,-6.1534,0.0,0.0,0.0,0.0,0.0,0.0,0.0,0.0,0.0,0.0,0.0,0.0,0.0,0.0,0.0,0.0,0.0,0.0,0.0,0.0,0.0,0.0,0.0,-6.1118,-6.1118,-6.1118,-6.1118,-6.1118,-6.1118,0.0,0.0,0.0,0.0,0.0,-6.1118,-6.1041,-6.1021,-6.1041,-6.1012,-6.1012,-6.1041,-6.1041,-6.1051,-6.1079,0.0,0.0,0.0,0.0,0.0,0.0,0.0,0.0,0.0,0.0,0.0,0.0,0.0,0.0,0.0,0.0,0.0,0.0,0.0,0.0,0.0,0.0,0.0,0.0,0.0,0.0,0.0,0.0,0.0,0.0,0.0,0.0,0.0,0.0,0.0,0.0,0.0,0.0,0.0,0.0,0.0,0.0,0.0,0.0,0.0,0.0,0.0,0.0,0.0,0.0,0.0,0.0,0.0,0.0,0.0,0.0,0.0,0.0,0.0,0.0,0.0,0.0,0.0,0.0,0.0,0.0,0.0,0.0,0.0,0.0,-6.1441,-6.1318,0.0,0.0,0.0,0.0,0.0,0.0,0.0,0.0,0.0,0.0,0.0,0.0,0.0,0.0,0.0,0.0,0.0,0.0,0.0,0.0,0.0,-6.1118,-6.1118,-6.1118,-6.1118,-6.1118,-6.1118,-6.1118,-6.1118,-6.1118,0.0,0.0,-6.1109,-6.106,-6.106,-6.1012,-6.1002,-6.108,-6.0992,-6.1002,-6.109,-6.1051,-6.1012,-6.107,-6.107,0.0,0.0,0.0,0.0,0.0,0.0,0.0,0.0,0.0,0.0,0.0,0.0,0.0,0.0,0.0,0.0,0.0,0.0,0.0,0.0,0.0,0.0,0.0,0.0,0.0,0.0,0.0,0.0,0.0,0.0,0.0,0.0,0.0,0.0,0.0,0.0,0.0,0.0,0.0,0.0,0.0,0.0,0.0,0.0,0.0,0.0,0.0,0.0,0.0,0.0,0.0,0.0,0.0,0.0,0.0,0.0,0.0,0.0,0.0,0.0,0.0,0.0,0.0,-6.1159,-6.1143,-6.1143,-6.1143,-6.1062,-6.0954,-6.1079,-6.1065,-6.0997,-6.1189,0.0,0.0,0.0,0.0,0.0,0.0,0.0,0.0,0.0,0.0,0.0,0.0,0.0,0.0,0.0,0.0,0.0,0.0,0.0,-6.1118,-6.1118,-6.1118,-6.1118,-6.1118,-6.1118,-6.1118,-6.1118,-6.1118,-6.1118,-6.1118,-6.1041,-6.1012,-6.1012,-6.1,-6.0987,-6.0944,-6.0933,-6.0965,-6.1018,-6.1008,-6.1,-6.1012,-6.106,-6.1118,-6.1118,0.0,0.0,0.0,0.0,0.0,0.0,0.0,0.0,0.0,0.0,0.0,0.0,0.0,0.0,0.0,0.0,0.0,0.0,0.0,0.0,0.0,0.0,0.0,0.0,0.0,0.0,0.0,0.0,0.0,0.0,0.0,0.0,0.0,0.0,0.0,0.0,0.0,0.0,0.0,0.0,0.0,-6.0781,-6.0781,0.0,0.0,0.0,0.0,0.0,0.0,0.0,0.0,0.0,0.0,0.0,0.0,0.0,-6.112,-6.1039,-6.1039,-6.1039,-6.1039,-6.0892,-6.0845,-6.0845,-6.0845,-6.0823,-6.0839,-6.0861,0.0,-6.1011,-6.1044,0.0,0.0,0.0,0.0,0.0,0.0,0.0,0.0,0.0,0.0,0.0,0.0,0.0,0.0,0.0,0.0,0.0,0.0,0.0,0.0,0.0,-6.1118,-6.1118,-6.1118,-6.1118,-6.1118,-6.1118,-6.1118,-6.1118,-6.1118,-6.106,-6.1051,-6.1051,-6.1031,-6.0748,-6.0233,-6.019,-5.9941,-5.9531,-5.95,-5.9521,-5.9533,-5.9631,-6.0162,-6.1118,-6.1118,0.0,0.0,0.0,0.0,0.0,0.0,0.0,0.0,0.0,0.0,0.0,0.0,0.0,0.0,0.0,0.0,0.0,0.0,0.0,0.0,0.0,0.0,0.0,0.0,0.0,0.0,0.0,0.0,0.0,0.0,0.0,0.0,0.0,0.0,0.0,0.0,0.0,0.0,0.0,-6.0781,-6.0781,-6.0781,-6.0781,-6.0781,0.0,0.0,0.0,0.0,0.0,0.0,0.0,0.0,0.0,-6.0793,-6.0913,-6.0963,-6.0899,-6.0899,-6.0899,-6.0899,-6.0839,-6.0781,-6.0781,-6.0781,-6.0781,-6.0781,-6.0781,-6.0569,-6.0205,-6.0699,-6.0983,-6.115,0.0,0.0,0.0,0.0,-6.0437,-6.0381,0.0,0.0,0.0,0.0,0.0,0.0,0.0,0.0,0.0,0.0,0.0,0.0,-6.1118,-6.1118,-6.1118,-6.1118,-6.1118,-6.1118,-6.1118,-6.1118,-6.1118,-6.1118,-6.0877,-6.0742,-6.0732,-6.048,-6.0005,-5.9328,-5.9303,-5.8946,-5.8371,-5.8329,-5.834,-5.8364,-5.8452,-5.9312,-6.0751,-6.0799,-6.0925,-6.1118,0.0,0.0,0.0,0.0,0.0,0.0,0.0,0.0,0.0,0.0,0.0,0.0,0.0,0.0,0.0,0.0,0.0,0.0,0.0,0.0,0.0,0.0,0.0,0.0,0.0,0.0,0.0,0.0,0.0,0.0,0.0,0.0,0.0,0.0,0.0,0.0,0.0,-6.0781,-6.0781,-6.0781,-6.0781,-6.0781,0.0,0.0,0.0,0.0,0.0,0.0,-6.0781,-6.0781,-6.0781,-6.0781,-6.0781,-6.0781,-6.0781,-6.0781,-6.0781,-6.0781,-6.0781,-6.0781,-6.0781,-6.0781,-6.0781,-6.0781,-6.0781,-6.0435,-5.9858,-6.0281,-6.0382,-6.0287,-6.0239,-6.0365,-6.043,-5.964,-5.937,-5.9309,0.0,0.0,0.0,0.0,0.0,0.0,0.0,0.0,0.0,0.0,0.0,-6.1118,-6.1118,-6.1118,-6.1118,-6.1118,-6.1118,-6.1118,-6.1118,-6.1118,-6.1118,-6.1118,-6.0297,-5.9833,-5.9783,-5.8897,-5.8402,-5.8379,-5.8352,-5.8319,-5.828,-5.828,-5.8314,-5.8301,-5.8392,-5.8944,-5.9853,-5.9939,-6.0383,-6.1118,-6.1118,0.0,0.0,0.0,0.0,0.0,0.0,0.0,0.0,0.0,0.0,0.0,0.0,0.0,0.0,0.0,0.0,0.0,0.0,0.0,0.0,0.0,0.0,0.0,0.0,0.0,0.0,0.0,0.0,0.0,0.0,0.0,0.0,0.0,0.0,0.0,0.0,0.0,0.0,-6.0781,-6.0781,0.0,0.0,0.0,0.0,-6.0781,-6.0781,-6.0781,-6.0781,-6.0781,-6.0781,-6.0781,-6.0781,-6.0781,-6.0781,-6.0781,-6.0781,-6.0781,-6.0781,-6.0781,-6.0781,-6.0781,-6.0781,-6.0781,-6.0781,-6.0781,-6.0666,-5.9896,-5.9138,-5.8446,-5.8434,-5.8446,-5.8429,-5.8369,-5.8369,-5.838,0.0,0.0,0.0,0.0,0.0,-6.1118,-6.1118,-6.1118,-6.1118,-6.1118,-6.1118,-6.1118,-6.1118,-6.1118,-6.1118,-6.1118,-6.1118,-6.1118,-6.1118,-6.1118,-6.0828,-6.0297,-5.9978,-5.9505,-5.8796,-5.8484,-5.8028,-5.7478,-5.7445,-5.7165,-5.6626,-5.6626,-5.6637,-5.6631,-5.6683,-5.7235,-5.8182,-5.8808,-5.9223,-5.9532,-6.0112,-6.0344,0.0,0.0,0.0,0.0,0.0,0.0,0.0,0.0,0.0,0.0,0.0,0.0,0.0,0.0,0.0,0.0,0.0,0.0,0.0,0.0,0.0,0.0,0.0,0.0,0.0,0.0,0.0,0.0,0.0,0.0,0.0,0.0,0.0,0.0,0.0,0.0,0.0,-6.066,-6.066,0.0,-6.066,-6.066,-6.0673,-6.0722,-6.0722,-6.0746,-6.0781,-6.0781,-6.0781,-6.0781,-6.0781,-6.0781,-6.0781,-6.0781,-6.0781,-6.0781,-6.0781,-6.0781,-6.0781,-6.0781,-6.0781,-6.0781,-6.0781,-6.0473,-5.9935,-5.9627,-5.9319,-5.9011,-5.8511,-5.8319,-5.8242,-5.7665,-5.7473,-5.7357,0.0,0.0,0.0,-6.1118,-6.1118,-6.1118,-6.1118,-6.1118,-6.1118,-6.1118,-6.1118,-6.1118,-6.1118,-6.1118,-6.1118,-6.1118,-6.1118,-6.1118,-6.1118,-6.0847,-6.0451,-5.9872,-5.9264,-5.8461,-5.7422,-5.7422,-5.7131,-5.656,-5.656,-5.6291,-5.5703,-5.5703,-5.5703,-5.5714,-5.5766,-5.6174,-5.6802,-5.7466,-5.8053,-5.8651,-5.9223,-5.9648,-5.9957,0.0,0.0,0.0,0.0,0.0,0.0,0.0,0.0,0.0,0.0,0.0,0.0,0.0,0.0,0.0,0.0,0.0,0.0,0.0,0.0,0.0,0.0,0.0,0.0,0.0,0.0,0.0,0.0,0.0,0.0,0.0,0.0,0.0,0.0,-6.0585,-6.0585,-6.0585,-6.0585,-6.0585,-6.0585,-6.0585,-6.0597,-6.0648,-6.0685,-6.071,-6.0757,-6.1089,-6.1243,-6.1243,-6.1512,-6.1627,-6.1627,-6.1627,-6.1627,-6.1627,-6.1358,-6.1243,-6.1243,-6.0935,-6.0781,-6.0781,-6.0781,-6.0473,-5.9935,-5.9627,-5.9511,-5.9435,-5.8627,-5.8127,-5.778,-5.7214,-5.683,-5.6483,0.0,-6.1118,-6.1118,-6.1118,-6.1118,-6.1118,-6.1118,-6.1118,-6.1118,-6.1118,-6.1118,-6.1118,-6.1118,-6.1118,-6.1118,-6.1118,-6.1118,-6.1118,-6.1118,-6.0344,-5.988,-5.9803,-5.8124,-5.6714,-5.5714,-5.5703,-5.5703,-5.5703,-5.5703,-5.5703,-5.5703,-5.5703,-5.5703,-5.5714,-5.5766,-5.5817,-5.5895,-5.5952,-5.6973,-5.8526,-5.8565,-5.9068,-5.9794,0.0,0.0,0.0,0.0,0.0,0.0,0.0,0.0,0.0,0.0,0.0,0.0,0.0,0.0,0.0,0.0,0.0,0.0,0.0,0.0,0.0,0.0,0.0,0.0,0.0,0.0,0.0,0.0,0.0,0.0,0.0,0.0,0.0,-6.0597,-6.0572,-6.0572,-6.0572,-6.0572,-6.0572,-6.0572,-6.0572,-6.061,-6.061,-6.0686,-6.0774,-6.0774,-6.1642,-6.2139,-6.2139,-6.2897,-6.3308,-6.3308,-6.3308,-6.3308,-6.3269,-6.2512,-6.2139,-6.2101,-6.1243,-6.0858,-6.0819,-6.0819,-6.0819,-6.0742,-5.9896,-5.955,-5.9473,-5.8627,-5.778,-5.706,-5.706,-5.6483,-5.5742,-6.1116,-6.1118,-6.1118,-6.1118,-6.1118,-6.1118,-6.1118,-6.1118,-6.1118,-6.1118,-6.1118,-6.1118,-6.1118,-6.1118,-6.1118,-6.1118,-6.1118,-6.1118,-6.1118,-6.0344,-5.9311,-5.8008,-5.6821,-5.6018,-5.5714,-5.5703,-5.5703,-5.5703,-5.5703,-5.5703,-5.5703,-5.5703,-5.5703,-5.5703,-5.5724,-5.5766,-5.5817,-5.5905,-5.6222,-5.6771,-5.7387,-5.7773,-5.8007,0.0,0.0,0.0,0.0,0.0,0.0,0.0,0.0,0.0,0.0,0.0,0.0,0.0,0.0,0.0,0.0,0.0,0.0,0.0,0.0,0.0,0.0,0.0,0.0,0.0,0.0,0.0,0.0,0.0,0.0,0.0,-6.0422,-6.0422,-6.0464,-6.0439,-6.0439,-6.0439,-6.0439,-6.0439,-6.0439,-6.0439,-6.072,-6.1335,-6.1492,-6.1864,-6.249,-6.2783,-6.2974,-6.2974,-6.3166,-6.3308,-6.3308,-6.3308,-6.3308,-6.3308,-6.3089,-6.2974,-6.2974,-6.2704,-6.2281,-6.1755,-6.1755,-6.1358,-6.0781,-6.055,-6.0435,-6.0281,-5.8858,-5.8165,-5.7934,-5.7934,-5.7396,-5.656,-6.1116,-6.1118,-6.1118,-6.1118,-6.1118,-6.1118,-6.1118,-6.1118,-6.1118,-6.1118,-6.1118,-6.1118,-6.1118,-6.1118,-6.1118,-6.1118,-6.1118,-6.0963,-6.0615,-5.9436,-5.8317,-5.7265,-5.629,-5.5766,-5.5703,-5.5703,-5.5703,-5.5703,-5.5703,-5.5703,-5.5703,-5.5703,-5.5703,-5.5703,-5.5703,-5.5735,-5.5797,-5.5875,-5.5924,-5.6057,-5.6548,-5.6934,-5.7255,-5.7738,-5.8371,-5.9089,-5.938,-5.9819,-6.0319,-6.0666,0.0,0.0,0.0,0.0,0.0,0.0,0.0,0.0,0.0,0.0,0.0,0.0,0.0,0.0,0.0,0.0,0.0,0.0,0.0,0.0,0.0,0.0,0.0,0.0,-6.0422,-6.0422,-6.0422,-6.0422,-6.0422,-6.0422,-6.0422,-6.0537,-6.0867,-6.0905,-6.1263,-6.2146,-6.2333,-6.263,-6.313,-6.3578,-6.3858,-6.3858,-6.4205,-6.4397,-6.4397,-6.4397,-6.4397,-6.4397,-6.4012,-6.3858,-6.382,-6.3462,-6.3051,-6.2589,-6.2255,-6.1831,-6.132,-6.0935,-6.0781,-6.0704,0.0,0.0,0.0,0.0,-5.7973,-5.7434,-6.128,-6.1234,-6.1234,-6.1118,-6.1118,-6.1118,-6.1118,-6.1118,-6.1118,-6.1118,-6.1118,-6.1118,-6.1118,-6.1118,-6.1118,-6.1118,-6.1118,-6.077,-5.9957,-5.8297,-5.7322,-5.7197,-5.6338,-5.5776,-5.5714,-5.5714,-5.5714,-5.5703,-5.5703,-5.5703,-5.5703,-5.5703,-5.5703,-5.5703,-5.5703,-5.5735,-5.5797,-5.5875,-5.5924,-5.6018,-5.6018,-5.6405,-5.7052,-5.7033,-5.7485,-5.8242,-5.8957,-5.9358,-5.9627,-6.0396,0.0,0.0,0.0,0.0,0.0,0.0,0.0,0.0,0.0,0.0,0.0,0.0,0.0,0.0,0.0,0.0,0.0,0.0,0.0,0.0,0.0,0.0,0.0,0.0,-6.0422,-6.0422,-6.0422,-6.0499,-6.0537,-6.0537,-6.0537,-6.0828,-6.1669,-6.1745,-6.2128,-6.2968,-6.3173,-6.3294,-6.337,-6.4232,0.0,0.0,0.0,-6.5897,-6.5897,-6.5897,-6.5897,-6.5897,-6.5128,-6.4743,-6.4705,-6.3935,-6.3538,-6.3397,-6.2704,-6.2255,-6.2062,-6.1281,-6.0896,-6.0781,-6.0781,-6.0319,-5.955,-5.8742,-5.8434,-5.8319,-6.2305,-6.2162,-6.193,-6.1234,-6.1118,-6.1118,-6.1118,-6.1118,-6.1118,-6.1118,-6.1118,-6.1118,-6.1118,-6.1118,-6.1118,-6.1118,-6.1118,-6.077,-5.9957,-5.8913,-5.7996,-5.7207,-5.6386,-5.5905,-5.5776,-5.5776,-5.5756,-5.5703,-5.5703,-5.5703,-5.5703,-5.5703,-5.5703,-5.5703,-5.5703,-5.5735,-5.5797,-5.5875,-5.5924,-5.6018,-5.6018,-5.6068,-5.6146,-5.6097,-5.6547,-5.7264,-5.7445,-5.8357,-5.9511,-5.9704,-6.0204,-6.0781,-6.0781,-6.0781,0.0,0.0,0.0,0.0,0.0,0.0,0.0,0.0,0.0,0.0,0.0,0.0,0.0,0.0,0.0,0.0,0.0,0.0,0.0,-6.0422,-6.0422,-6.0422,-6.0422,-6.0943,-6.1363,-6.1363,-6.1363,-6.1707,-6.2586,-6.2662,-6.3006,-6.3885,-6.4011,-6.436,-6.4987,-6.5356,-6.5576,-6.5576,-6.5795,-6.5897,-6.5897,-6.5897,-6.5897,-6.5897,-6.5743,0.0,-6.5628,-6.5474,-6.5013,-6.4359,-6.4166,-6.3358,-6.2101,-6.1908,-6.1435,-6.0781,-6.0781,-6.0704,-6.0435,-5.9588,-5.9281,-5.9165,-6.3911,-6.3362,-6.2897,-6.2472,-6.2394,-6.224,-6.1814,-6.1737,-6.1582,-6.1157,-6.1118,-6.1118,-6.1118,-6.1118,-6.1118,-6.1118,-6.0731,-6.0499,-6.0499,-5.9282,-5.8326,-5.7882,-5.7043,-5.6348,-5.5865,-5.5865,-5.5817,-5.5787,-5.5766,-5.5745,-5.5745,-5.5724,-5.5703,-5.5703,-5.5703,-5.5724,-5.5756,-5.5807,-5.5885,-5.5905,-5.5905,-5.5885,-5.5865,-5.5797,-5.6025,-5.6406,-5.683,-5.7561,-5.8319,-5.8742,-5.9473,-6.0165,-6.0165,-6.0435,-6.0781,0.0,0.0,0.0,0.0,0.0,0.0,0.0,0.0,0.0,0.0,0.0,0.0,0.0,0.0,-6.0422,-6.0422,0.0,-6.0422,-6.0422,-6.0422,-6.0523,-6.0943,-6.1363,-6.1593,-6.1593,-6.1975,-6.2586,-6.3465,-6.3541,-6.3885,-6.4726,-6.4876,-6.5073,-6.5494,-6.5646,-6.5715,-6.5793,-6.5833,-6.5859,-6.5897,-6.5897,-6.5897,-6.5897,-6.5897,-6.5897,-6.5897,-6.5897,-6.5667,-6.5243,-6.4782,-6.4128,-6.3281,-6.2447,-6.1601,-6.0781,-6.0781,-6.0781,-6.0742,-6.0319,-6.0165,-6.0012,-6.5421,-6.4687,-6.4068,-6.3758,-6.3719,-6.3449,-6.2743,-6.2511,-6.2162,-6.1427,-6.1195,-6.1118,-6.1118,-6.1118,-6.1118,-6.1118,-6.0499,-6.0422,-6.1079,-5.965,-5.8703,-5.851,-5.7661,-5.6821,-5.5953,-5.5914,-5.5905,-5.5895,-5.5865,-5.5807,-5.5807,-5.5756,-5.5735,-5.5735,-5.5735,-5.5735,-5.5745,-5.5797,-5.5817,-5.5807,-5.5807,-5.5797,-5.5787,-5.5776,-5.5745,-5.578,-5.6522,-5.6868,-5.7099,-5.7819,-5.8588,-5.9281,-5.9281,-5.9742,-6.0319,-6.0319,-6.0319,0.0,0.0,0.0,0.0,0.0,0.0,0.0,0.0,-6.0255,-6.0422,-6.0422,-6.0422,-6.0422,-6.0422,-6.0422,-6.0422,-6.0422,-6.0537,-6.0867,-6.1516,-6.1898,-6.2128,-6.2128,-6.2739,-6.3503,-6.4359,-6.442,-6.4688,-6.5337,-6.5435,-6.5479,-6.5479,-6.5537,-6.5646,-6.5753,-6.5767,-6.5807,-6.5885,-6.5885,-6.5885,-6.5897,-6.5897,-6.5897,-6.5897,-6.5897,-6.5897,-6.5859,-6.4974,-6.4589,-6.4474,-6.2781,-6.1678,-6.105,-6.0858,-6.0781,-6.0781,-6.0781,-6.0781,-6.0704,-6.6148,-6.5992,-6.545,-6.3952,-6.3719,-6.3681,-6.3565,-6.2897,-6.2356,-6.2278,-6.1582,-6.1118,-6.1118,-6.1118,-6.1118,-6.1118,-6.1041,-6.1002,-6.1079,-6.0267,-5.9416,-5.8642,-5.7735,-5.6857,-5.6009,-5.6009,-5.5943,-5.5895,-5.5895,-5.5895,-5.5885,-5.5885,-5.5885,-5.5885,-5.5885,-5.5885,-5.5885,-5.5933,-5.5933,-5.5895,-5.5895,-5.5865,-5.5787,-5.5735,-5.5714,-5.5703,-5.5818,-5.6329,-5.7022,-5.7099,-5.7703,-5.8434,-5.8434,-5.8511,-5.8588,-5.8588,-5.8588,-5.8577,-5.8519,-5.8373,-5.8246,-5.8219,-5.8727,-5.9262,0.0,-5.9835,-6.0422,-6.0422,-6.0422,-6.0422,-6.0422,-6.0422,-6.0422,-6.0422,-6.0981,-6.1516,-6.1593,-6.293,-6.39,-6.39,-6.4015,-6.4382,-6.5184,-6.5261,-6.5299,-6.5375,-6.5429,-6.5429,-6.5429,-6.5465,-6.5509,-6.5523,-6.558,-6.5688,-6.5807,-6.5807,-6.5833,-6.5897,-6.5897,-6.5897,-6.5897,-6.5897,-6.5897,-6.5859,-6.4974,-6.4589,-6.4474,-6.2781,-6.2062,-6.187,-6.1089,-6.0781,-6.0781,-6.0781,-6.0781,-6.0781,-6.6245,-6.6185,-6.5992,-6.5296,-6.5141,-6.4986,-6.4532,-6.4135,-6.371,-6.3207,-6.2394,-6.1853,-6.1853,-6.1389,-6.1118,-6.1118,-6.1118,-6.1118,-6.1118,-6.0809,-6.0228,-5.9377,-5.8526,-5.7666,-5.6789,-5.6248,-5.6007,-5.595,-5.5961,-5.5943,-5.5943,-5.5914,-5.5895,-5.5895,-5.5895,-5.5895,-5.5895,-5.5924,-5.5905,-5.5817,-5.5817,-5.5787,-5.5745,-5.5714,-5.5703,-5.5703,-5.5703,-5.5934,0.0,-5.6252,-5.6819,-5.755,-5.755,-5.7896,-5.8319,-5.8319,-5.8319,-5.8296,-5.8153,-5.8092,-5.803,-5.7913,-5.8498,-5.9095,-5.9095,-5.9759,-6.0422,-6.0422,-6.0422,-6.0422,-6.0422,-6.0422,-6.0422,-6.0422,-6.1096,-6.1784,-6.228,-6.3427,-6.4359,-6.484,-6.4879,-6.5031,-6.5375,-6.5413,-6.5413,-6.5413,-6.5413,-6.5413,-6.5413,-6.5444,-6.545,-6.5494,-6.5523,-6.5632,-6.5793,-6.5793,-6.5833,-6.5897,-6.5897,-6.5897,-6.5897,-6.5897,-6.5897,-6.5859,-6.5513,-6.5051,-6.4512,-6.3281,-6.2512,-6.2024,-6.1127,-6.0781,-6.0781,-6.0781,-6.0781,-6.0781,-6.6225,-6.6185,-6.6185,-6.6185,-6.6185,-6.5992,-6.5412,-6.5141,-6.4764,-6.4145,-6.3284,-6.2665,-6.2433,-6.1621,-6.1118,-6.1118,-6.1118,-6.1118,-6.1118,-6.1118,-6.0731,-5.9919,-5.93,-5.8449,-5.7318,-5.6661,-5.6235,-5.6012,-5.6016,-5.5998,-5.5998,-5.5961,-5.5943,-5.5943,-5.5943,-5.5933,-5.5924,-5.5933,-5.5905,-5.5807,-5.5807,-5.5776,-5.5724,-5.5714,-5.5703,-5.5703,-5.5703,-5.5703,-5.5703,-5.5703,-5.6126,-5.6637,-5.6637,-5.7049,-5.7588,-5.7588,-5.7588,-5.7555,-5.7438,-5.7414,-5.739,-5.7238,-5.8014,-5.8779,-5.8765,-5.9606,-6.0422,-6.0422,-6.0422,-6.0422,-6.0422,-6.0422,-6.0446,-6.0676,-6.1402,-6.228,-6.3159,-6.4,-6.4764,-6.5337,-6.5413,-6.5413,-6.5413,-6.5413,-6.5413,-6.5413,-6.5413,-6.5413,-6.5413,-6.5413,-6.5405,-6.5465,-6.5465,-6.5561,-6.574,-6.574,-6.578,-6.5872,-6.5872,-6.5885,-6.5897,-6.5897,-6.5897,-6.5897,-6.5897,-6.5551,-6.4897,-6.4012,-6.3166,-6.2358,-6.1473,-6.1012,-6.0781,-6.0781,-6.0781,-6.0781,-6.6225,-6.6185,-6.6185,-6.6185,-6.6185,-6.6185,-6.6185,-6.5489,-6.4986,-6.4948,-6.4222,-6.3323,-6.2511,-6.1621,-6.1118,-6.1118,-6.1118,-6.1118,-6.1118,-6.1118,-6.0731,-5.9919,-5.988,-5.9068,-5.7318,-5.728,-5.6854,-5.6012,-5.6003,-5.6003,-5.6003,-5.6003,-5.6003,-5.6003,-5.6003,-5.6016,-5.6018,-5.5986,-5.595,-5.5895,-5.5895,-5.5865,-5.5787,-5.5724,-5.5703,-5.5703,-5.5703,-5.5703,-5.5703,-5.5703,-5.5703,-5.5742,-5.5742,-5.5742,-5.578,-5.578,-5.578,-5.5758,-5.5635,-5.5646,-5.5646,-5.553,-5.6754,-5.8004,-5.7938,-5.9224,-6.0422,-6.0422,-6.0422,-6.0422,-6.0422,-6.0422,-6.0637,-6.144,-6.228,-6.3159,-6.4053,-6.484,-6.5375,-6.5413,-6.5413,-6.5413,-6.5413,-6.5413,-6.5413,-6.5413,-6.5413,-6.5413,-6.5413,-6.5413,-6.5413,-6.5413,-6.5413,-6.542,-6.5509,-6.5509,-6.5618,-6.5793,-6.5793,-6.5833,-6.5897,-6.5897,-6.5897,-6.5897,-6.5897,-6.5859,-6.5782,-6.4936,-6.4051,-6.3166,-6.2358,-6.1562,-6.0781,-6.0781,-6.0781,-6.0781,-6.6195,-6.6185,-6.6185,-6.6185,-6.6185,-6.6185,-6.6185,-6.5953,-6.5799,-6.5799,-6.5064,0.0,0.0,0.0,0.0,0.0,-6.1427,-6.1118,-6.1118,-6.1118,-6.0963,-6.0692,-6.019,-5.9609,-5.9029,-5.7907,-5.7164,-5.6854,-5.6274,-5.6012,-5.6012,-5.6012,-5.6012,-5.6012,-5.6012,-5.6003,-5.5986,-5.6003,-5.5968,-5.5991,-5.5991,-5.5905,-5.5787,-5.5776,-5.5745,-5.5703,0.0,-5.5703,-5.5703,-5.5703,-5.5703,-5.5703,-5.5703,-5.5703,-5.5703,-5.5703,-5.5703,-5.5692,-5.5604,-5.5566,-5.5696,-5.6167,-5.7137,-5.8132,-5.8588,-5.9568,-6.0422,-6.0422,-6.0422,-6.0422,-6.0422,-6.0422,-6.0637,-6.1478,-6.2319,-6.3197,-6.4091,-6.4879,-6.5413,-6.5413,-6.5413,-6.5413,-6.5413,-6.5413,-6.5413,-6.5413,-6.5413,-6.5413,-6.5413,-6.5413,-6.5413,-6.5413,-6.5413,-6.542,-6.5494,-6.5494,-6.5618,-6.5793,-6.5846,-6.5872,-6.5897,-6.5897,-6.5897,-6.5897,-6.5897,-6.5897,-6.582,-6.4974,-6.4089,-6.3243,-6.2397,-6.1562,-6.0781,-6.0781,-6.0781,-6.0781,0.0,-6.6185,-6.6185,-6.6185,-6.6185,0.0,0.0,0.0,0.0,0.0,0.0,0.0,0.0,0.0,0.0,0.0,0.0,-6.1427,-6.1118,-6.1118,-6.1118,-6.1118,-6.0615,-6.019,-5.9919,-5.8797,-5.7907,-5.728,-5.6738,-5.6313,-5.6012,-5.6012,-5.6012,-5.6012,-5.6012,-5.6012,-5.6012,-5.6012,-5.5995,-5.5998,-5.5961,-5.5914,-5.5817,-5.5776,-5.5735,0.0,-5.5703,-5.5703,-5.5703,-5.5703,-5.5703,-5.5703,-5.5703,-5.5703,-5.5703,-5.5703,-5.5703,-5.5692,-5.5638,-5.583,-5.6203,-5.6611,-5.7608,-5.8579,-5.9049,-5.9786,-6.0422,-6.0422,-6.0422,-6.0422,-6.0422,-6.0422,-6.0752,-6.1898,-6.2548,-6.3312,-6.4458,-6.507,-6.5413,-6.5413,-6.5413,-6.5413,-6.5413,-6.5413,-6.5413,-6.5413,-6.5413,-6.5413,-6.5413,-6.5413,-6.5413,-6.5413,-6.5413,-6.5444,-6.545,-6.545,-6.5561,-6.5674,-6.582,-6.5859,-6.5859,-6.5885,-6.5897,-6.5897,-6.5897,-6.5897,-6.5859,-6.5282,-6.4551,-6.3666,-6.2858,-6.2012,-6.1243,-6.0896,-6.0781,-6.0781,0.0,0.0,-6.6185,0.0,0.0,0.0,0.0,0.0,0.0,0.0,0.0,0.0,0.0,0.0,0.0,0.0,0.0,0.0,-6.1234,-6.1157,-6.1157,-6.1118,-6.1118,-6.0731,-5.9996,-5.9919,-5.9106,-5.7434,-5.7396,-5.6932,-5.6089,-5.6089,-5.6051,-5.6012,-5.6012,-5.6012,-5.6012,-5.6012,-5.6012,-5.6003,-5.5943,-5.5895,-5.5885,-5.5745,-5.5714,-5.5703,-5.5703,-5.5703,-5.5703,-5.5703,-5.5703,-5.5703,-5.5703,-5.5703,-5.5703,-5.5703,-5.5742,-5.5731,-5.5676,-5.6363,-5.7066,-5.6951,-5.8131,-5.9294,-5.9281,-5.9852,-6.0422,-6.0422,-6.0422,-6.0422,-6.0422,-6.0422,-6.0943,-6.2624,-6.2892,-6.3503,-6.5146,-6.5413,-6.5413,-6.5413,-6.5413,-6.5413,-6.5413,-6.5413,-6.5413,-6.5413,-6.5413,-6.5413,-6.5413,-6.5413,-6.5413,-6.5413,-6.5413,-6.5413,-6.5413,-6.5413,-6.542,-6.5494,-6.5688,-6.5793,-6.5793,-6.5872,-6.5897,-6.5897,-6.5897,-6.5897,-6.5897,-6.5897,-6.5397,-6.4512,-6.3628,-6.282,-6.1985,-6.1127,-6.0781,-6.0781,0.0,0.0,0.0,0.0,0.0,0.0,0.0,0.0,0.0,0.0,0.0,0.0,0.0,0.0,0.0,0.0,0.0,0.0,-6.2124,-6.2085,-6.1776,-6.1118,-6.1118,-6.1002,-6.0809,-6.019,-5.9687,-5.9223,-5.8604,-5.783,-5.697,-5.697,-5.6622,-5.6012,-5.6012,-5.6012,-5.6012,-5.6012,-5.6012,-5.6003,-5.598,-5.5933,-5.5895,-5.5797,-5.5745,-5.5703,-5.5703,-5.5703,-5.5703,-5.5703,-5.5703,-5.5703,-5.5703,-5.5703,-5.5703,-5.5703,-5.6165,-5.6665,-5.6654,-5.7269,-5.8104,-5.8611,-5.9011,-5.9447,-6.0034,-6.0272,-6.0422,-6.0422,-6.0422,-6.0422,-6.0422,-6.0422,-6.0943,-6.2624,-6.2892,-6.3503,-6.5146,-6.5413,-6.5413,-6.5413,-6.5413,-6.5413,-6.5413,-6.5413,-6.5413,-6.5413,-6.5413,-6.5413,-6.5413,-6.5413,-6.5413,-6.5413,-6.5413,-6.5413,-6.5413,-6.5435,-6.5479,-6.5494,-6.5688,-6.5793,-6.5793,-6.5872,-6.5897,-6.5897,-6.5897,-6.5897,-6.5897,-6.5897,-6.5397,-6.4512,-6.3628,-6.282,-6.1985,-6.1127,-6.0781,-6.0781,0.0,0.0,0.0,0.0,0.0,0.0,0.0,0.0,0.0,0.0,0.0,0.0,0.0,0.0,0.0,0.0,0.0,0.0,0.0,-6.2627,-6.2201,-6.1698,-6.1311,-6.1118,-6.1118,-6.0654,-6.0267,-5.988,-5.9416,-5.872,-5.7869,-5.7869,-5.7598,-5.7134,-5.7134,-5.7134,-5.7134,-5.7134,-5.7134,0.0,0.0,-5.7072,-5.6936,-5.6539,-5.6354,-5.6274,-5.5868,-5.5703,-5.5703,-5.5703,-5.5703,-5.5703,-5.5703,-5.5703,-5.5703,-5.5703,-5.6329,-5.6983,-5.6983,-5.7896,-5.8923,-5.935,-5.9674,-6.0047,-6.047,-6.0493,-6.0425,-6.0425,-6.0436,-6.0422,-6.0422,-6.0422,-6.0943,-6.2624,-6.2892,-6.3503,-6.5146,-6.5413,-6.5413,-6.5413,-6.5413,-6.5413,-6.5413,-6.5413,-6.5413,-6.5413,-6.5413,-6.5413,-6.5413,-6.5413,-6.5413,-6.5413,-6.5413,-6.5413,-6.5413,-6.542,-6.545,-6.545,-6.5604,-6.5674,-6.5701,-6.582,-6.5872,-6.5897,-6.5897,-6.5897,-6.5897,-6.5897,-6.559,-6.5051,-6.3782,-6.3012,-6.2474,-6.1243,-6.0781,-6.0781,0.0,0.0,0.0,0.0,0.0,0.0,0.0,0.0,0.0,0.0,-6.6185,-6.6185,-6.6185,-6.6185,0.0,0.0,0.0,0.0,0.0,0.0,-6.2627,-6.2433,-6.1698,-6.1234,-6.1118,-6.1118,-6.077,-6.0074,-6.0074,-5.9609,-5.8758,-5.8758,-5.8729,-5.8613,-5.8613,-5.8613,-5.8613,-5.8613,-5.8613,-5.8604,-5.8519,-5.8462,-5.8335,0.0,-5.7261,-5.7135,-5.6235,-5.5791,-5.5703,-5.5703,-5.5703,-5.5703,-5.5703,-5.5703,-5.5703,-5.5818,-5.6483,-5.7214,-5.7291,-5.8473,-5.9665,-5.9665,-6.0195,-6.0697,-6.0697,-6.0585,-6.048,-6.048,-6.0464,-6.0422,-6.0422,-6.0422,-6.0905,-6.2471,-6.2815,-6.3465,-6.5031,-6.5337,-6.5413,-6.5413,-6.5413,-6.5413,-6.5413,-6.5413,-6.5413,-6.5413,-6.5413,-6.5413,-6.5413,-6.5413,-6.5413,-6.5413,-6.5413,-6.5413,-6.5413,-6.5413,-6.5413,-6.5413,-6.5465,-6.5523,-6.5594,-6.5715,-6.582,-6.5872,-6.5885,-6.5885,-6.5885,-6.5885,-6.5897,-6.5743,-6.4128,-6.3385,-6.3128,-6.155,-6.0896,-6.0781,0.0,0.0,0.0,0.0,0.0,0.0,0.0,0.0,0.0,0.0,-6.6185,-6.6185,0.0,0.0,0.0,0.0,0.0,0.0,0.0,0.0,0.0,-6.2472,-6.2278,-6.1853,-6.1118,-6.1118,-6.1041,-6.0886,-6.0886,-6.046,-5.9648,-5.9648,-5.93,-5.8613,-5.8613,-5.8613,-5.8613,-5.8613,-5.8613,-5.8604,-5.8519,-5.8491,-5.8472,-5.8229,0.0,0.0,-5.7184,-5.6361,-5.5703,-5.5703,-5.5703,-5.5703,-5.5703,-5.5703,-5.5818,-5.656,-5.7396,-5.8204,-5.8896,-5.9781,-6.055,-6.055,-6.063,-6.0697,-6.0697,-6.0585,-6.048,-6.048,-6.0464,-6.0422,-6.0422,-6.0422,-6.0714,-6.1669,-6.2433,-6.3236,-6.4267,-6.4993,-6.5413,-6.5413,-6.5413,-6.5413,-6.5413,-6.5413,-6.5413,-6.5413,-6.5413,-6.5413,-6.5413,-6.5413,-6.5413,-6.5413,-6.5413,-6.5413,-6.5413,-6.5413,-6.5413,-6.5413,-6.5465,-6.5509,-6.5523,-6.5701,-6.5767,-6.5649,-6.578,-6.5807,-6.5807,-6.5807,-6.5846,-6.5782,-6.4782,-6.3935,-6.3166,-6.2243,-6.1396,-6.0781,0.0,0.0,0.0,0.0,0.0,0.0,0.0,-6.6185,-6.6185,-6.6185,-6.6185,-6.6185,-6.6185,-6.6185,-6.6185,0.0,0.0,0.0,0.0,0.0,0.0,0.0,0.0,0.0,-6.1776,-6.135,-6.1118,-6.1118,0.0,-6.0886,-6.0538,-6.0538,-6.0306,-5.988,-5.988,-5.988,-5.988,-5.988,-5.988,-5.9919,-5.9852,-5.9833,-5.9766,0.0,0.0,0.0,-5.7919,-5.7454,-5.6977,-5.6533,-5.6368,-5.6291,-5.5818,-5.5703,-5.5857,-5.6753,-5.7627,-5.8473,-5.9281,-6.0127,-6.0781,-6.0781,-6.0757,-6.0746,-6.0746,-6.066,-6.0585,-6.0546,-6.0518,-6.0425,-6.0422,-6.0422,-6.0637,-6.1478,-6.2319,-6.3197,-6.4091,-6.4879,-6.5413,-6.5413,-6.5413,-6.5413,-6.5413,-6.5413,-6.5413,-6.5413,-6.5413,-6.5413,-6.5413,-6.5413,-6.5413,-6.5413,-6.5413,-6.5413,-6.5413,-6.5413,-6.5413,-6.5413,-6.542,-6.5465,-6.5509,-6.5646,-6.5674,-6.5608,-6.5715,-6.5767,-6.5701,-6.578,-6.5807,-6.5769,-6.4923,-6.4089,-6.3192,-6.2397,-6.155,-6.0781,0.0,0.0,0.0,0.0,0.0,0.0,-6.6185,-6.6185,-6.6185,-6.6185,-6.6185,-6.6185,-6.6185,-6.6185,-6.6185,0.0,0.0,0.0,0.0,0.0,0.0,0.0,0.0,0.0,0.0,0.0,0.0,-6.1118,-6.1118,0.0,0.0,0.0,0.0,0.0,-6.1118,-6.1118,-6.1118,-6.1118,-6.1118,0.0,0.0,-6.1051,0.0,0.0,0.0,0.0,0.0,-5.8546,-5.8214,-5.7516,-5.7302,-5.7165,-5.6472,-5.6011,-5.5934,-5.7165,-5.7896,-5.8511,-5.9511,-6.0281,-6.0781,-6.0781,-6.0781,-6.0781,-6.0781,-6.0734,-6.0673,-6.0623,-6.0584,-6.0466,-6.0412,-6.0422,-6.0599,-6.1249,-6.2051,-6.293,-6.3809,-6.4611,-6.5222,-6.5375,-6.5413,-6.5413,-6.5413,-6.5413,-6.5413,-6.5413,-6.5413,-6.5413,-6.5413,-6.5413,-6.5413,-6.5413,-6.5413,-6.5413,-6.5413,-6.5413,-6.5413,-6.5413,-6.5413,-6.5405,-6.5479,-6.5552,-6.5566,-6.5552,-6.5674,-6.5674,-6.558,-6.5701,-6.578,-6.5717,-6.5103,-6.4243,-6.3243,-6.2589,-6.1704,-6.0781,0.0,0.0,0.0,0.0,0.0,0.0,-6.6185,-6.6185,-6.6185,-6.6185,-6.6185,-6.6185,-6.6185,-6.6185,-6.6185,0.0,0.0,0.0,0.0,0.0,0.0,0.0,0.0,0.0,0.0,0.0,0.0,-6.1118,-6.1118,0.0,0.0,0.0,0.0,0.0,0.0,-6.1118,-6.1118,-6.1118,0.0,0.0,0.0,0.0,0.0,0.0,0.0,0.0,0.0,-5.9078,-5.8301,-5.8214,-5.8171,-5.8165,-5.8088,-5.6973,-5.6165,-5.8588,-5.8819,-5.8665,-6.0242,-6.0742,-6.0781,-6.0781,-6.0781,-6.0781,-6.0781,-6.0734,-6.0697,-6.0685,-6.0585,-6.0518,-6.048,-6.0425,-6.0408,-6.0499,-6.1172,-6.2013,-6.2892,-6.377,-6.4573,-6.5299,-6.5413,-6.5413,-6.5413,-6.5413,-6.5413,-6.5413,-6.5413,-6.5413,-6.5413,-6.5413,-6.5413,-6.5413,-6.5413,-6.5413,-6.5413,-6.5413,-6.5413,-6.5413,-6.5413,-6.5413,-6.5429,-6.5479,-6.5465,-6.5444,-6.5479,-6.5509,-6.5509,-6.558,-6.5688,-6.5793,-6.5795,-6.4743,-6.3269,-6.3243,-6.2166,-6.0781,0.0,0.0,0.0,0.0,0.0,0.0,-6.6185,-6.6185,-6.6185,-6.6185,-6.6185,-6.6185,-6.6185,-6.6185,-6.6185,-6.6185,-6.6185,0.0,0.0,0.0,0.0,0.0,0.0,0.0,0.0,0.0,-6.2743,-6.1892,-6.1892,0.0,0.0,0.0,0.0,0.0,0.0,-6.1118,-6.1118,-6.1118,0.0,0.0,0.0,0.0,0.0,0.0,0.0,0.0,0.0,0.0,-5.9837,-5.9265,-5.9056,-5.9011,-5.9011,-5.8204,-5.755,-5.905,-5.9281,-5.9281,-6.0473,-6.0781,-6.0781,-6.0781,-6.0781,-6.0781,-6.0781,-6.0769,-6.0734,-6.0697,-6.061,-6.0571,-6.0531,-6.0464,-6.0422,-6.0422,-6.1096,-6.1898,-6.2777,-6.3656,-6.4511,-6.5299,-6.5413,-6.5413,-6.5413,-6.5413,-6.5413,-6.5413,-6.5413,-6.5413,-6.5413,-6.5413,-6.5413,-6.5413,-6.5413,-6.5413,-6.5413,-6.5413,-6.5413,-6.5413,-6.5413,-6.5413,-6.5413,-6.5465,-6.545,-6.5413,-6.5465,-6.5465,-6.5435,-6.5509,-6.558,-6.5688,-6.5807,-6.4782,-6.3308,-6.3308,-6.2243,-6.0781,0.0,0.0,0.0,0.0,0.0,-6.6185,-6.6185,-6.6185,-6.6185,-6.6185,-6.6185,-6.6185,-6.6185,-6.6185,-6.6185,-6.6185,-6.6185,0.0,0.0,0.0,0.0,0.0,0.0,0.0,0.0,0.0,-6.3671,-6.2781,-6.2549,-6.2085,0.0,0.0,-6.1118,-6.1118,0.0,0.0,0.0,0.0,0.0,0.0,0.0,0.0,0.0,0.0,0.0,0.0,0.0,0.0,0.0,0.0,0.0,-5.9896,-5.9896,-5.9511,-5.9165,-5.9704,-5.9704,-5.9704,-6.055,-6.0781,-6.0781,-6.0781,-6.0781,-6.0781,-6.0781,-6.0781,-6.0769,-6.0734,-6.066,-6.0597,-6.052,-6.0453,-6.0398,-6.0384,-6.0867,-6.1554,-6.2395,-6.3274,-6.4114,-6.4955,-6.5261,-6.5413,-6.5413,-6.5413,-6.5413,-6.5413,-6.5413,-6.5413,-6.5413,-6.5413,-6.5413,-6.5413,-6.5413,-6.5413,-6.5413,-6.5413,-6.5413,-6.5413,-6.5413,-6.5413,-6.5413,-6.5435,-6.5435,-6.5413,-6.5435,-6.5435,-6.5413,-6.5465,-6.5523,-6.558,-6.5753,-6.4744,-6.3283,-6.3308,-6.2243,-6.0781,0.0,0.0,0.0,0.0,0.0,-6.6185,-6.6185,-6.6185,-6.6185,-6.6185,-6.6185,-6.6185,-6.6185,-6.6185,-6.6185,-6.6185,-6.6185,0.0,0.0,0.0,0.0,0.0,0.0,0.0,-6.5025,-6.4986,-6.4571,-6.3681,-6.282,-6.2394,-6.2356,-6.1505,-6.1118,-6.1118,0.0,0.0,0.0,0.0,0.0,0.0,0.0,0.0,-6.1118,0.0,0.0,0.0,0.0,0.0,0.0,0.0,0.0,0.0,0.0,-6.0781,-6.0781,-6.0781,-6.0165,-5.9704,-6.055,-6.0781,-6.0781,-6.0781,-6.0781,-6.0781,-6.0781,-6.0781,-6.0781,-6.0781,-6.0734,-6.0673,-6.0597,-6.052,-6.0491,-6.0422,-6.0422,-6.0676,-6.1516,-6.2357,-6.3236,-6.4129,-6.4917,-6.5413,-6.5413,-6.5413,-6.5413,-6.5413,-6.5413,-6.5413,-6.5413,-6.5413,-6.5413,-6.5413,-6.5413,-6.5413,-6.5413,-6.5413,-6.5413,-6.5413,-6.5413,-6.5413,-6.5413,-6.5413,-6.5413,-6.5413,-6.5413,-6.5413,-6.5413,-6.5465,-6.5494,-6.5509,-6.574,-6.4756,-6.3194,-6.3295,-6.2243,-6.0781,0.0,0.0,0.0,0.0,0.0,0.0,-6.6185,-6.6185,-6.6185,-6.6185,-6.6185,-6.6185,-6.6185,-6.6185,-6.6185,-6.6185,-6.6185,0.0,0.0,0.0,0.0,0.0,0.0,0.0,-6.5837,-6.5837,-6.5412,-6.4609,-6.429,-6.3555,-6.2394,-6.2124,-6.166,-6.1118,-6.1118,-6.1118,0.0,0.0,0.0,0.0,0.0,-6.1118,-6.1118,0.0,0.0,0.0,0.0,0.0,0.0,0.0,0.0,0.0,0.0,0.0,0.0,-6.0781,-6.0589,-6.0435,-6.0742,-6.0781,-6.0781,-6.0781,-6.0781,-6.0781,-6.0781,-6.0781,-6.0781,-6.0781,-6.0734,-6.0673,-6.0597,-6.0571,-6.0491,-6.0422,-6.0422,-6.0676,-6.1478,-6.2357,-6.3236,-6.4091,-6.4917,-6.5413,-6.5413,-6.5413,-6.5413,-6.5413,-6.5413,-6.5413,-6.5413,-6.5413,-6.5413,-6.5413,-6.5413,-6.5413,-6.5413,-6.5413,-6.5413,-6.5413,-6.5413,-6.5413,-6.5413,-6.5413,-6.5413,-6.5413,-6.5413,-6.5413,-6.5413,-6.5405,-6.545,-6.547,-6.4977,-6.4126,-6.3143,-6.2631,-6.1745,-6.0781,0.0,0.0,0.0,0.0,0.0,0.0,-6.7191,-6.7191,-6.7191,-6.7191,-6.7191,-6.7191,-6.7191,-6.7191,-6.7191,-6.7191,-6.7191,0.0,0.0,0.0,0.0,0.0,0.0,0.0,-6.6185,-6.6185,-6.5953,-6.545,-6.5141,-6.429,-6.2897,-6.2549,-6.193,-6.1118,-6.1118,-6.1118,0.0,0.0,0.0,0.0,-6.1118,-6.1118,-6.1118,0.0,0.0,0.0,0.0,0.0,0.0,0.0,0.0,0.0,0.0,0.0,0.0,0.0,-6.0781,-6.0781,-6.0781,-6.0781,-6.0781,-6.0781,-6.0781,-6.0781,-6.0781,-6.0781,-6.0781,-6.0781,-6.0757,-6.071,-6.0635,-6.0572,-6.0531,-6.0464,-6.0436,-6.0575,-6.1096,-6.2166,-6.335,-6.4496,-6.5108,-6.5413,-6.5413,-6.5413,-6.5413,-6.5413,-6.5413,-6.5413,-6.5413,-6.5413,-6.5413,-6.5413,-6.5413,-6.5413,-6.5413,-6.5413,-6.5413,-6.5413,-6.5413,-6.5413,-6.5413,-6.5413,-6.5413,-6.5413,-6.5413,-6.5413,0.0,-6.5413,-6.5405,-6.5374,-6.4599,-6.3841,-6.3066,-6.2286,-6.149,-6.0781,0.0,0.0,0.0,0.0,0.0,0.0,0.0,-6.8816,-6.8816,-6.8816,-6.8816,-6.8816,-6.8816,-6.8816,-6.8816,-6.8816,-6.8816,0.0,0.0,0.0,0.0,0.0,0.0,-6.6185,-6.6185,-6.6185,-6.6185,-6.6185,-6.545,-6.4609,-6.3681,-6.2859,-6.2008,-6.1118,-6.1118,-6.1118,0.0,0.0,0.0,-6.1118,-6.1118,-6.1157,0.0,0.0,0.0,0.0,0.0,0.0,0.0,0.0,0.0,0.0,0.0,0.0,0.0,0.0,0.0,0.0,0.0,-6.0781,-6.0781,-6.0781,-6.0781,-6.0781,-6.0781,-6.0781,0.0,-6.0781,-6.0781,-6.0769,-6.071,-6.0635,-6.0597,-6.0493,-6.0425,-6.0422,-6.0422,-6.186,-6.3503,-6.5108,-6.5375,-6.5413,-6.5413,-6.5413,-6.5413,-6.5413,-6.5413,-6.5413,-6.5413,-6.5413,-6.5413,-6.5413,-6.5413,-6.5413,-6.5413,-6.5413,-6.5413,-6.5413,-6.5413,-6.5413,-6.5413,-6.5413,-6.5413,-6.5413,-6.5413,-6.5413,-6.5413,-6.5413,-6.5375,-6.5238,-6.4494,-6.3699,-6.2924,-6.2183,-6.1413,-6.0781,0.0,0.0,0.0,0.0,0.0,0.0,0.0,0.0,0.0,0.0,-6.8816,-6.8816,-6.8816,-6.8816,-6.8816,0.0,0.0,0.0,0.0,0.0,0.0,0.0,-6.6185,-6.6185,-6.6185,-6.6185,-6.6185,-6.6185,-6.5992,-6.5141,-6.3719,-6.3487,-6.2549,-6.1118,-6.1118,-6.1118,0.0,0.0,-6.1118,-6.1118,-6.1118,-6.1505,0.0,0.0,0.0,0.0,-6.1582,-6.1437,0.0,0.0,0.0,0.0,0.0,0.0,0.0,0.0,-6.0781,-6.0781,-6.0781,0.0,-6.0781,-6.0781,-6.0781,-6.0781,0.0,-6.0781,-6.0781,-6.0781,-6.0781,-6.0769,-6.071,-6.0635,-6.0597,-6.0493,-6.0425,-6.0422,-6.0422,-6.186,-6.3312,-6.4344,-6.5031,-6.5413,-6.5413,-6.5413,-6.5413,-6.5413,-6.5413,-6.5413,-6.5413,-6.5413,-6.5413,-6.5413,-6.5413,-6.5413,-6.5413,-6.5413,-6.5413,-6.5413,-6.5413,-6.5413,-6.5413,-6.5413,-6.5413,-6.5413,-6.5413,-6.5413,-6.5413,-6.5413,-6.5031,-6.4397,-6.3556,-6.2762,-6.2003,-6.1211,-6.084,-6.0722,0.0,0.0,0.0,0.0,0.0,0.0,0.0,0.0,0.0,0.0,-6.9938,-6.9938,-6.9938,-6.9938,-6.9938,0.0,0.0,0.0,0.0,0.0,0.0,-6.7423,-6.7384,-6.723,-6.6804,-6.6804,-6.6611,-6.6185,-6.6185,-6.5334,-6.3719,-6.3719,-6.2781,-6.1118,-6.1118,-6.1118,-6.1118,-6.1051,-6.106,-6.1118,-6.1051,0.0,0.0,0.0,0.0,0.0,-6.1427,-6.1321,0.0,-6.1152,-6.0922,-6.0781,0.0,0.0,0.0,0.0,-6.0781,-6.0781,-6.0781,-6.0781,-6.0781,-6.0781,-6.0781,-6.0781,-6.0781,-6.0781,-6.0781,-6.0781,-6.0781,-6.0769,-6.0746,-6.0685,-6.061,-6.0584,-6.0466,-6.0565,-6.0919,-6.2089,-6.3236,-6.4091,-6.4917,-6.5413,-6.5413,-6.5413,-6.5413,-6.5413,-6.5413,-6.5413,-6.5413,-6.5413,-6.5413,-6.5413,-6.5413,-6.5413,-6.5413,-6.5413,-6.5413,-6.5413,-6.5413,-6.5413,-6.5413,-6.5413,-6.5413,-6.5413,-6.5413,-6.5413,-6.5413,-6.5413,-6.4917,-6.4129,-6.3236,-6.2442,-6.1697,-6.0852,-6.0481,-6.0416,0.0,0.0,0.0,0.0,0.0,0.0,0.0,0.0,0.0,0.0,0.0,0.0,0.0,0.0,0.0,0.0,0.0,0.0,0.0,0.0,-6.9899,-6.9203,-6.8932,-6.8468,-6.7694,-6.7694,-6.7346,-6.6611,-6.6456,-6.5528,-6.3913,-6.3758,-6.2781,-6.1118,-6.1118,-6.107,-6.106,-6.1022,-6.1022,-6.109,-6.1022,0.0,0.0,0.0,0.0,0.0,0.0,0.0,0.0,-6.0987,-6.0922,-6.0781,-6.0781,0.0,0.0,0.0,0.0,0.0,-6.0781,-6.0781,-6.0781,-6.0781,-6.0781,-6.0781,-6.0781,-6.0781,-6.0781,-6.0781,-6.0781,-6.0781,-6.0781,-6.0734,-6.0673,-6.0597,-6.0558,-6.0707,-6.1339,-6.228,-6.3159,-6.3923,-6.484,-6.5413,-6.5413,-6.5413,-6.5413,-6.5413,-6.5413,-6.5413,-6.5413,-6.5413,-6.5413,-6.5413,-6.5413,-6.5413,-6.5413,-6.5413,-6.5413,-6.5413,-6.5413,-6.5413,-6.5413,-6.5413,-6.5413,-6.5413,-6.5413,-6.5413,-6.5375,-6.5261,-6.4726,-6.3923,-6.2947,-6.2209,-6.1517,-6.0641,-6.0223,-6.0044,0.0,0.0,0.0,0.0,0.0,0.0,0.0,0.0,0.0,0.0,0.0,0.0,0.0,0.0,0.0,0.0,0.0,0.0,0.0,-7.1098,-7.1059,-7.0905,-6.9551,-6.8738,-6.8622,-6.8622,-6.8545,-6.839,-6.7655,-6.6456,-6.4803,-6.4068,-6.2781,-6.1118,-6.1118,-6.1051,-6.1012,-6.1012,-6.1021,-6.1018,-6.0992,0.0,0.0,0.0,0.0,0.0,0.0,0.0,0.0,-6.0987,-6.0922,-6.0781,-6.0781,0.0,0.0,0.0,0.0,0.0,-6.0781,-6.0781,-6.0781,-6.0781,-6.0781,-6.0781,-6.0781,-6.0781,-6.0781,-6.0781,-6.0781,-6.0781,-6.0781,-6.0734,-6.0673,-6.0597,-6.0518,-6.046,-6.0575,-6.1936,-6.2968,-6.3083,-6.4458,-6.5413,-6.5413,-6.5413,-6.5413,-6.5413,-6.5413,-6.5413,-6.5413,-6.5413,-6.5413,-6.5413,-6.5413,-6.5413,-6.5413,-6.5413,-6.5413,-6.5413,-6.5413,-6.5413,-6.5413,-6.5413,-6.5413,-6.5413,-6.5413,-6.5413,-6.5337,-6.4649,-6.3885,-6.2977,-6.1749,-6.1035,-6.0592,-5.9772,-5.9668,-5.9798,0.0,0.0,0.0,0.0,0.0,0.0,0.0,0.0,0.0,0.0,0.0,0.0,0.0,0.0,0.0,0.0,0.0,0.0,-7.1291,-7.1291,-7.1291,-7.1291,-7.0556,-6.9938,-6.9473,-6.9435,-6.9241,-6.8816,-6.839,-6.7114,-6.4948,-6.3129,-6.1853,-6.1118,-6.1051,-6.1022,-6.1002,-6.098,-6.0948,-6.0987,0.0,0.0,0.0,0.0,0.0,0.0,0.0,0.0,0.0,0.0,-6.0933,-6.0866,-6.0793,0.0,0.0,0.0,0.0,0.0,-6.0781,-6.0781,-6.0781,-6.0781,-6.0781,-6.0781,-6.0781,-6.0781,-6.0781,-6.0781,-6.0781,-6.0781,-6.0781,-6.0757,-6.071,-6.0636,-6.0531,-6.0425,-6.0422,-6.186,-6.2892,-6.2892,-6.4382,-6.5413,-6.5413,-6.5413,-6.5413,-6.5413,-6.5413,-6.5413,-6.5413,-6.5413,-6.5413,-6.5413,-6.5413,-6.5413,-6.5413,-6.5413,-6.5413,-6.5413,-6.5413,-6.5413,-6.5413,-6.5413,-6.5413,-6.5413,-6.5413,-6.5413,-6.5337,-6.4535,-6.3694,-6.2786,-6.1495,-6.0675,-6.0076,-5.9268,-5.9047,-5.9103,0.0,0.0,0.0,0.0,0.0,0.0,0.0,0.0,0.0,0.0,0.0,0.0,0.0,0.0,0.0,0.0,0.0,0.0,-7.1291,-7.1291,-7.1291,-7.1291,-7.1291,-7.0982,-7.0324,-7.0286,-7.0015,-6.9396,-6.9164,-6.7694,-6.4948,-6.2549,-6.1302,-6.106,-6.1022,-6.0992,-6.0962,-6.0905,-6.0922,-6.0955,0.0,0.0,0.0,0.0,0.0,0.0,0.0,0.0,0.0,0.0,0.0,0.0,0.0,0.0,0.0,-6.0781,-6.0781,-6.0781,-6.0781,-6.0781,-6.0781,-6.0781,-6.0781,-6.0781,-6.0781,-6.0781,-6.0781,-6.0781,-6.0781,-6.0781,-6.0781,-6.0769,-6.0734,-6.0623,-6.0533,-6.0466,-6.045,-6.1683,-6.2662,-6.2892,-6.4229,-6.5184,-6.5375,-6.5413,-6.5413,-6.5413,-6.5413,-6.5413,-6.5413,-6.5413,-6.5413,-6.5413,-6.5413,-6.5413,-6.5413,-6.5413,-6.5413,-6.5413,-6.5413,-6.5413,-6.5413,-6.5413,-6.5329,-6.5267,-6.5345,-6.5184,-6.4775,-6.4054,-6.32,-6.2214,-6.0921,-6.0048,-5.9395,-5.8892,-5.857,-5.8434,0.0,0.0,0.0,0.0,0.0,0.0,0.0,0.0,0.0,0.0,0.0,0.0,0.0,0.0,0.0,0.0,0.0,0.0,-7.1291,-7.1291,-7.1291,-7.1291,-7.1291,-7.1253,-7.1214,-7.1214,-7.1175,-7.1137,-7.0324,-6.8236,-6.4948,-6.3168,-6.1824,-6.1012,-6.1002,-6.099,-6.0922,-6.0911,-6.0877,-6.0804,-6.0888,0.0,0.0,0.0,0.0,0.0,0.0,0.0,0.0,0.0,0.0,0.0,0.0,0.0,-6.0781,-6.0781,-6.0781,-6.0781,-6.0781,-6.0781,-6.0781,-6.0781,-6.0781,-6.0781,-6.0781,-6.0781,-6.0781,-6.0781,-6.0781,-6.0781,-6.0781,-6.0746,-6.0697,-6.0685,-6.0572,-6.0518,-6.048,-6.1176,-6.1975,-6.2815,-6.3732,-6.4588,-6.5337,-6.5413,-6.5413,-6.5413,-6.5413,-6.5413,-6.5413,-6.5413,-6.5413,-6.5413,-6.5413,-6.5413,-6.5413,-6.5413,-6.5413,-6.5413,-6.5413,-6.5413,-6.5413,-6.5413,-6.5204,-6.4845,-6.5252,-6.4529,-6.305,-6.2621,-6.1737,-6.0529,-5.9281,-5.8513,-5.8186,-5.8482,-5.8369,-5.8042,0.0,0.0,0.0,0.0,0.0,0.0,0.0,0.0,0.0,0.0,0.0,0.0,0.0,0.0,0.0,0.0,0.0,0.0,-7.1291,-7.1291,-7.1291,-7.1291,-7.0789,-7.0479,-7.0479,-7.1021,-7.1291,-7.1291,-6.9396,-6.7501,-6.5682,-6.3409,-6.2143,-6.1775,-6.1201,-6.0916,-6.0911,-6.0877,-6.0804,-6.0781,-6.0843,-6.0854,0.0,0.0,0.0,0.0,0.0,0.0,0.0,0.0,-6.09,-6.0827,-6.0793,-6.0781,-6.0781,-6.0781,-6.0781,-6.0781,-6.0781,-6.0781,-6.0781,-6.0781,-6.0781,-6.0781,-6.0781,-6.0781,-6.0781,-6.0781,-6.0781,-6.0781,-6.0781,-6.0769,-6.0734,-6.0697,-6.061,-6.0571,-6.0531,-6.1138,-6.1936,-6.2815,-6.3656,-6.4496,-6.5337,-6.5413,-6.5298,-6.5052,-6.5035,-6.5035,-6.5035,-6.5035,-6.5134,-6.5413,-6.5413,-6.5283,-6.5035,-6.5035,-6.4879,-6.4593,-6.5134,-6.5413,-6.5413,-6.5134,-6.4951,-6.4775,-6.4648,-6.3955,-6.2859,-6.2222,-6.1375,-6.0379,-5.9106,-5.8348,-5.802,-5.8164,-5.8119,-5.7997,0.0,0.0,0.0,0.0,0.0,0.0,0.0,0.0,0.0,0.0,0.0,0.0,0.0,0.0,0.0,0.0,0.0,0.0,-7.0905,-7.0634,-7.0518,-7.0518,-6.9938,-6.9628,-6.9628,-7.044,-7.0905,-7.0905,-6.8893,-6.7297,-6.6116,-6.4075,-6.2797,-6.2225,-6.156,-6.1131,-6.0877,-6.0804,-6.0781,-6.0781,-6.0781,-6.0781,0.0,0.0,0.0,0.0,0.0,0.0,0.0,0.0,-6.0877,-6.0877,-6.0793,-6.0781,-6.0781,-6.0781,-6.0781,-6.0781,-6.0781,-6.0781,-6.0781,-6.0781,-6.0781,-6.0781,-6.0781,-6.0781,-6.0781,-6.0781,-6.0781,-6.0781,-6.0781,-6.0781,-6.0769,-6.0734,-6.066,-6.0597,-6.052,-6.095,-6.1545,-6.2395,-6.3274,-6.4114,-6.4955,-6.513,-6.5085,-6.481,-6.4668,-6.4557,-6.4557,-6.4557,-6.4721,-6.4964,-6.4981,-6.4862,-6.4557,-6.4557,-6.4426,-6.4096,-6.4701,-6.5068,-6.5204,-6.4775,-6.4557,-6.4557,-6.3972,-6.3093,-6.2081,-6.1382,-6.0576,-5.9614,-5.8725,-5.8216,-5.7997,-5.7997,-5.7997,-5.7997,0.0,0.0,0.0,0.0,0.0,0.0,0.0,0.0,-7.1291,-7.1291,-7.1291,0.0,0.0,0.0,0.0,0.0,0.0,0.0,-6.9976,-6.9241,-6.8816,-6.8816,-6.8777,-6.8777,-6.8777,-6.9551,-6.9976,-6.9976,-6.9203,-6.7856,-6.6102,-6.529,-6.3913,-6.2105,-6.2105,-6.1609,-6.0819,-6.0781,-6.0781,-6.0781,-6.0781,-6.0781,-6.0781,0.0,0.0,0.0,0.0,0.0,0.0,0.0,-6.0781,-6.0781,-6.0781,-6.0781,-6.0781,-6.0781,-6.0781,-6.0781,-6.0781,-6.0781,-6.0781,-6.0781,-6.0781,-6.0781,-6.0781,-6.0781,-6.0781,-6.0781,-6.0781,-6.0781,-6.0781,-6.0781,-6.0781,-6.0781,-6.0734,-6.0673,-6.0597,-6.052,-6.0759,-6.1516,-6.2357,-6.3236,-6.4129,-6.4541,-6.4792,-6.4775,-6.4369,-6.4076,-6.4076,-6.4076,-6.4096,-6.4096,-6.4096,-6.4096,-6.4076,-6.4076,-6.4076,-6.4076,-6.4076,-6.435,-6.4775,-6.4331,-6.4076,-6.4059,-6.3253,-6.1938,-6.0333,-6.0011,-5.9131,-5.7997,-5.7997,-5.7997,-5.7997,-5.7997,-5.7997,-5.7997,0.0,0.0,0.0,0.0,0.0,0.0,0.0,0.0,-7.1213,-7.1166,-7.1166,0.0,0.0,0.0,0.0,0.0,0.0,0.0,-6.9203,-6.8932,-6.8816,-6.8816,-6.8197,-6.7887,-6.7887,-6.8119,-6.8545,-6.9164,-6.8861,-6.7823,-6.6102,-6.5164,-6.4452,-6.3877,-6.2648,-6.1959,-6.1678,-6.105,-6.0781,-6.0781,-6.0781,-6.0781,-6.0781,0.0,0.0,0.0,0.0,0.0,0.0,0.0,0.0,0.0,-6.0781,-6.0781,-6.0781,-6.0781,-6.0781,-6.0781,-6.0781,-6.0781,-6.0781,-6.0781,-6.0781,-6.0781,-6.0781,-6.0781,-6.0781,-6.0781,-6.0781,-6.0781,-6.0781,-6.0781,-6.0781,-6.0781,-6.0734,-6.0673,-6.0597,-6.052,-6.0759,-6.1516,-6.2357,-6.3236,-6.4129,-6.4541,-6.4668,-6.435,-6.393,-6.3674,-6.3674,-6.3674,-6.3825,-6.4076,-6.4096,-6.3954,-6.3674,-6.3674,-6.3498,-6.3168,-6.3168,-6.3587,-6.4311,-6.3867,-6.3376,-6.2795,-6.2242,-6.1071,-5.9501,-5.8819,-5.8317,-5.7997,-5.7997,-5.7997,-5.7997,-5.7997,-5.7997,-5.7997,0.0,0.0,0.0,0.0,0.0,0.0,0.0,0.0,-7.1154,-7.1106,-7.1106,-7.1118,0.0,0.0,0.0,0.0,0.0,0.0,-6.8352,-6.7965,-6.7771,-6.7771,-6.7268,-6.7152,-6.7501,-6.7501,-6.7761,-6.8232,-6.821,-6.747,-6.6036,-6.5492,-6.5021,-6.4612,-6.3575,-6.2716,-6.2062,-6.1562,-6.1127,-6.0781,-6.0781,-6.0781,-6.0781,0.0,0.0,0.0,0.0,0.0,0.0,0.0,0.0,0.0,-6.0781,-6.0781,-6.0781,-6.0781,-6.0781,-6.0781,-6.0781,-6.0781,-6.0781,-6.0781,-6.0781,-6.0781,-6.0781,-6.0781,-6.0781,-6.0781,-6.0781,-6.0781,-6.0781,-6.0781,-6.0781,-6.0781,-6.0757,-6.071,-6.0635,-6.0572,-6.0684,-6.1114,-6.1874,-6.2642,-6.3359,-6.3827,-6.3992,-6.3871,-6.3468,-6.3228,-6.3228,-6.3228,-6.3331,-6.3587,-6.3587,-6.3453,-6.3228,-6.3228,-6.3086,-6.278,-6.278,-6.3086,-6.3587,-6.3331,-6.2863,-6.2242,-6.1134,-5.9905,-5.8694,-5.8217,-5.7997,-5.7997,-5.7997,-5.7997,-5.7997,-5.7997,-5.7997,-5.7997,0.0,0.0,-7.1201,-7.1201,0.0,0.0,0.0,0.0,-7.1093,-7.1081,-7.1081,-7.1081,0.0,0.0,0.0,0.0,0.0,0.0,0.0,-6.6639,-6.6185,-6.6185,-6.6185,-6.6572,-6.7346,-6.7374,-6.7343,-6.7288,-6.7366,-6.6923,-6.6008,-6.5996,-6.5536,-6.4705,-6.4628,-6.3743,-6.2332,-6.2178,-6.1639,-6.0896,-6.0819,-6.0781,-6.0781,-6.0781,0.0,0.0,0.0,0.0,0.0,0.0,0.0,0.0,-6.0781,-6.0781,-6.0781,-6.0781,-6.0781,-6.0781,-6.0781,-6.0781,-6.0781,-6.0781,-6.0781,-6.0781,-6.0781,-6.0781,-6.0781,-6.0781,-6.0781,-6.0781,-6.0781,-6.0781,-6.0781,-6.0781,-6.0781,-6.0757,-6.0697,-6.0623,-6.0597,-6.0531,-6.1138,-6.1766,-6.2138,-6.256,-6.2977,-6.3349,-6.2951,-6.2707,-6.278,-6.278,-6.278,-6.278,-6.278,-6.278,-6.278,-6.278,-6.278,-6.278,-6.278,-6.2768,-6.2695,-6.2695,-6.2424,-6.1901,-5.9946,-5.8694,-5.7997,-5.7997,-5.7997,-5.7997,-5.7997,-5.7997,-5.7997,-5.7997,-5.7997,-5.7997,0.0,0.0,-7.119,-7.113,0.0,0.0,0.0,0.0,0.0,-7.0952,0.0,0.0,0.0,0.0,0.0,0.0,0.0,0.0,0.0,-6.6239,-6.6134,-6.6185,-6.6185,-6.6301,-6.6495,-6.6415,-6.6361,-6.6294,-6.7,-6.6889,-6.5996,-6.5947,-6.5795,-6.559,-6.4897,-6.4397,-6.3974,-6.2678,-6.1985,-6.1755,-6.1089,-6.0781,-6.0781,-6.0781,-6.0781,0.0,0.0,0.0,0.0,0.0,0.0,0.0,-6.0781,-6.0781,-6.0781,-6.0781,-6.0781,-6.0781,-6.0781,-6.0781,-6.0781,-6.0781,-6.0781,-6.0781,-6.0781,-6.0781,-6.0781,-6.0781,-6.0781,-6.0781,-6.0781,-6.0781,-6.0781,-6.0781,-6.0781,-6.0757,-6.0697,-6.0623,-6.0597,-6.0531,-6.1138,-6.1499,-6.1283,-6.1693,-6.2116,-6.2531,-6.2103,-6.2144,-6.2743,-6.278,-6.278,-6.278,-6.278,-6.278,-6.278,-6.278,-6.278,-6.278,-6.278,-6.2475,-6.1851,-6.1851,-6.1128,-5.9789,-5.874,-5.8143,-5.7997,-5.7997,-5.7997,-5.7997,-5.7997,-5.7997,-5.7997,-5.7997,-5.7997,-5.7997,0.0,0.0,0.0,0.0,0.0,0.0,0.0,0.0,0.0,0.0,0.0,0.0,0.0,0.0,0.0,0.0,-6.7509,-6.6916,-6.6085,-6.6058,-6.608,-6.6144,-6.6144,-6.6144,-6.6144,-6.6112,-6.6058,-6.6005,-6.648,-6.6444,-6.596,-6.5923,-6.5897,-6.5859,-6.5436,-6.4974,-6.4551,-6.3666,-6.282,-6.2062,-6.1601,-6.1166,-6.0781,-6.0781,-6.0781,-6.0781,-6.0781,0.0,0.0,0.0,0.0,0.0,0.0,0.0,-6.0781,-6.0781,-6.0781,-6.0781,-6.0781,-6.0781,-6.0781,-6.0781,-6.0781,-6.0781,-6.0781,-6.0781,-6.0781,-6.0781,-6.0781,-6.0781,-6.0781,-6.0781,-6.0781,-6.0781,-6.0781,-6.0769,-6.0746,-6.0648,-6.061,-6.0533,-6.0822,-6.0959,-6.0725,-6.0943,-6.1154,-6.138,-6.1174,-6.1374,-6.2181,-6.2218,-6.2401,-6.2805,-6.278,-6.278,-6.278,-6.278,-6.278,-6.278,-6.2401,-6.1594,-6.0456,-6.0456,-6.0015,-5.9148,-5.8364,-5.7997,-5.7997,-5.7997,-5.7997,-5.7997,-5.7997,-5.7997,-5.7997,-5.7997,-5.7997,-5.7997,0.0,0.0,0.0,0.0,0.0,0.0,0.0,0.0,0.0,0.0,0.0,0.0,0.0,0.0,-6.8693,0.0,0.0,0.0,-6.6029,0.0,0.0,-6.608,-6.608,-6.608,-6.608,-6.608,-6.6063,-6.6008,-6.5996,-6.596,-6.5897,-6.5897,-6.5897,-6.5897,-6.5897,-6.5513,-6.482,-6.4666,-6.3782,-6.2524,-6.2216,-6.1678,-6.1012,-6.0858,-6.0781,-6.0781,-6.0781,-6.0781,-6.0781,-6.0781,0.0,0.0,0.0,0.0,-6.0781,-6.0781,-6.0781,-6.0781,-6.0781,-6.0781,-6.0781,-6.0781,-6.0781,-6.0781,-6.0781,-6.0781,-6.0781,-6.0781,-6.0781,-6.0781,-6.0781,-6.0781,-6.0781,-6.0781,-6.0781,-6.0781,-6.0781,-6.0685,-6.0597,-6.0585,-6.0425,-6.0266,-6.021,-6.0115,-6.0112,-6.0197,-6.0199,-6.0529,-6.1337,-6.1374,-6.1777,-6.2585,-6.2585,-6.2585,-6.2585,-6.2585,-6.2548,-6.2401,-6.1557,-6.0493,-5.9184,-5.9038,-5.8964,-5.8964,-5.829,-5.7997,-5.7997,-5.7997,-5.7997,-5.7997,-5.7997,-5.7997,-5.7997,-5.7997,-5.7997,-5.7997,0.0,0.0,0.0,0.0,0.0,0.0,0.0,0.0,0.0,0.0,-7.0283,-6.9821,0.0,-6.8359,-6.7372,-6.7141,-6.6487,-6.6063,-6.6008,0.0,0.0,-6.6013,-6.6013,-6.6013,-6.6013,-6.6017,-6.602,-6.6008,-6.5947,-6.591,-6.5897,-6.5897,-6.5897,-6.5897,-6.5897,-6.582,-6.5667,-6.4936,-6.4474,-6.4128,-6.2666,-6.2024,-6.1831,-6.1089,-6.0781,-6.0781,-6.0781,-6.0781,-6.0781,-6.0781,-6.0781,0.0,0.0,0.0,-6.0781,-6.0781,-6.0781,-6.0781,-6.0781,-6.0781,-6.0781,-6.0781,-6.0781,-6.0781,-6.0781,-6.0781,-6.0781,-6.0781,-6.0781,-6.0781,-6.0781,-6.0781,-6.0781,-6.0781,-6.0781,-6.0781,-6.0781,-6.0722,-6.066,-6.0623,-6.0246,-5.9809,-5.9402,-5.9039,-5.898,-5.9341,-5.9368,-5.9698,-6.0529,-6.0566,-6.0933,-6.1741,-6.1741,-6.1741,-6.1741,-6.1741,-6.141,-6.0713,-5.9881,-5.9404,-5.9184,-5.8474,-5.8143,-5.8143,-5.8033,-5.7997,-5.7997,-5.7997,-5.7997,-5.7997,-5.7997,-5.7997,-5.7997,-5.7997,-5.7997,-5.7997,0.0,0.0,0.0,0.0,0.0,0.0,0.0,0.0,0.0,0.0,0.0,-6.9321,-6.8359,-6.7552,-6.6898,-6.6474,-6.609,-6.591,-6.5947,-6.5933,-6.5958,-6.5993,-6.6005,-6.6005,-6.6005,-6.602,-6.5984,-6.5947,-6.5923,-6.5897,-6.5897,-6.5897,-6.5897,-6.5897,-6.5897,-6.5897,-6.5859,-6.5474,-6.5051,-6.4474,-6.3281,-6.2512,-6.1985,-6.1127,-6.0781,-6.0781,-6.0781,-6.0781,-6.0781,-6.0781,-6.0781,-6.0781,-6.0781,0.0,0.0,0.0,-6.0781,-6.0781,-6.0781,-6.0781,-6.0781,-6.0781,-6.0781,-6.0781,-6.0781,-6.0781,-6.0781,-6.0781,-6.0781,-6.0781,-6.0781,-6.0781,-6.0781,-6.0781,-6.0781,-6.0781,-6.0781,-6.0734,-6.066,-6.0623,-6.0179,-5.9723,-5.9252,-5.885,-5.8582,-5.8534,-5.8547,-5.8877,-5.9661,-5.9735,-6.0126,-6.0896,-6.0933,-6.0933,-6.0933,-6.0933,-6.0529,-5.9722,-5.9368,-5.8964,-5.851,-5.8143,-5.7997,-5.7997,-5.7997,-5.7997,-5.7997,-5.7997,-5.7997,-5.7997,-5.7997,-5.7997,-5.7997,-5.7997,-5.7997,-5.7997,0.0,0.0,0.0,0.0,0.0,0.0,0.0,0.0,0.0,0.0,0.0,-6.8552,-6.7244,0.0,0.0,0.0,-6.5897,-6.5897,-6.5897,-6.5897,-6.5923,-6.5972,-6.5984,-6.5984,-6.5984,-6.5984,-6.5947,-6.5897,-6.5897,-6.5897,-6.5897,-6.5897,-6.5897,-6.5897,-6.5897,-6.5897,-6.5897,-6.5897,-6.5513,-6.482,-6.3743,-6.2935,-6.2281,-6.1204,-6.0781,-6.0781,-6.0781,-6.0781,-6.0781,-6.0781,-6.0781,-6.0781,-6.0781,-6.0781,0.0,0.0,0.0,-6.0781,-6.0781,-6.0781,-6.0781,-6.0781,-6.0781,-6.0781,-6.0781,-6.0781,-6.0781,-6.0781,-6.0781,-6.0781,-6.0781,-6.0781,-6.0781,-6.0781,-6.0781,-6.0781,-6.0781,-6.0746,-6.0685,-6.0597,-6.0097,-5.9618,-5.9252,-5.875,-5.8326,-5.802,-5.7997,-5.8253,-5.8854,-5.8914,-5.9281,-6.0089,-6.0126,-6.0126,-6.0126,-5.9905,-5.9501,-5.8914,-5.8914,-5.8584,-5.7997,-5.7997,-5.7997,-5.7997,-5.7997,-5.7997,-5.7997,-5.7997,-5.7997,-5.7997,-5.7997,-5.7997,-5.7997,-5.7997,-5.7997,-5.7997,0.0,0.0,0.0,0.0,0.0,0.0,0.0,0.0,0.0,0.0,0.0,-6.7205,-6.709,-6.6397,-6.5936,-6.5897,-6.5897,-6.5897,-6.5897,-6.5897,-6.5897,-6.591,-6.591,0.0,-6.591,-6.591,-6.591,-6.5897,-6.5897,-6.5897,-6.5897,-6.5897,-6.5897,-6.5897,-6.5897,-6.5897,-6.5897,-6.5897,-6.5859,-6.5667,-6.3974,-6.3281,-6.3051,-6.1435,-6.0781,-6.0781,-6.0781,-6.0781,-6.0781,-6.0781,-6.0781,-6.0781,-6.0781,-6.0781,-6.0781,0.0,0.0,0.0,-6.0781,-6.0781,-6.0781,-6.0781,-6.0781,-6.0781,-6.0781,-6.0781,-6.0781,-6.0781,-6.0781,-6.0781,-6.0781,-6.0781,-6.0781,-6.0781,-6.0781,-6.0781,-6.0781,-6.0781,-6.0734,-6.0636,-5.9908,-5.9375,-5.9196,-5.8498,-5.802,-5.7997,-5.7997,-5.8033,-5.807,-5.807,-5.8437,-5.9221,-5.9258,-5.9258,-5.9258,-5.851,-5.8107,-5.807,-5.807,-5.8033,-5.7997,-5.7997,-5.7997,-5.7997,-5.7997,-5.7997,-5.7997,-5.7997,-5.7997,-5.7997,-5.7997,-5.7997,-5.7997,-5.7997,-5.7997,-5.7997,0.0,0.0,0.0,0.0,0.0,0.0,0.0,0.0,0.0,0.0,0.0,0.0,0.0,-6.6051,-6.5897,-6.5897,-6.5897,-6.5897,-6.5897,-6.5897,-6.5897,-6.5897,-6.5897,-6.5897,-6.5897,-6.5897,-6.5897,-6.5897,-6.5897,-6.5897,-6.5897,-6.5897,-6.5897,-6.5897,-6.5897,-6.5897,-6.5897,-6.5897,-6.5897,-6.5743,-6.4012,-6.3308,-6.3128,-6.1435,-6.0781,-6.0781,-6.0781,-6.0781,-6.0781,-6.0781,-6.0781,-6.0781,-6.0781,-6.0781,-6.0781,-6.0781,-6.0781,-6.0781,-6.0781,-6.0781,-6.0781,-6.0781,-6.0781,-6.0781,-6.0781,-6.0781,-6.0781,-6.0781,-6.0781,-6.0781,-6.0781,-6.0781,-6.0781,-6.0781,-6.0781,-6.0781,-6.0781,-6.0781,-6.0757,-6.066,-5.9939,-5.9337,-5.925,-5.8482,-5.7997,-5.7997,-5.7997,-5.7997,-5.7997,-5.7997,-5.8143,-5.8437,-5.8437,-5.8437,-5.8437,-5.8143,-5.7997,-5.7997,-5.7997,-5.7997,-5.7997,-5.7997,-5.7997,-5.7997,-5.7997,-5.7997,-5.7997,-5.7997,-5.7997,-5.7997,-5.7997,-5.7997,-5.7997,-5.7997,-5.7997,-5.7997,0.0,0.0,0.0,-7.0514,0.0,-6.9244,-6.9244,-6.8513,-6.7744,-6.7167,0.0,0.0,0.0,0.0,-6.5897,-6.5897,-6.5897,-6.5897,-6.5897,-6.5897,-6.5897,-6.5897,-6.5897,-6.5897,-6.5897,-6.5897,-6.5897,-6.5897,-6.5897,-6.5897,-6.5897,-6.5897,-6.5897,-6.5897,-6.5897,-6.5897,-6.5897,-6.5897,-6.5897,-6.5743,-6.4012,-6.3462,-6.3551,-6.1858,-6.1396,-6.1589,-6.132,-6.1243,-6.1166,-6.0896,-6.0781,-6.0781,-6.0781,-6.0781,-6.0781,-6.0781,-6.0781,-6.0781,-6.0781,-6.0781,-6.0781,-6.0781,-6.0781,-6.0781,-6.0781,-6.0781,-6.0781,-6.0781,-6.0781,-6.0781,-6.0781,-6.0781,-6.0781,-6.0781,-6.0781,-6.0781,-6.0781,-6.0781,-6.0757,-6.0697,-5.9916,-5.9354,-5.9304,-5.8524,-5.7997,-5.7997,-5.7997,-5.7997,-5.7997,-5.7997,-5.7997,-5.7997,-5.7997,-5.7997,-5.7997,-5.7997,-5.7997,-5.7997,-5.7997,-5.7997,-5.7997,-5.7997,-5.7997,-5.7997,-5.7997,-5.7997,-5.7997,-5.7997,-5.7997,-5.7997,-5.7997,-5.7997,-5.7997,-5.7997,-5.7997,-5.7997,-7.0821,-7.0206,-6.9667,-6.9667,-6.8936,-6.8359,-6.8359,-6.7628,-6.7051,-6.7051,0.0,0.0,0.0,0.0,0.0,-6.5897,-6.5897,-6.5897,-6.5897,-6.5897,-6.5897,-6.5897,-6.5897,-6.5897,-6.5897,-6.5897,-6.5897,-6.5897,-6.5897,-6.5897,-6.5897,-6.5897,-6.5897,-6.5897,-6.5897,-6.5897,-6.5897,-6.5897,-6.5897,-6.5743,-6.4051,-6.3858,-6.4436,-6.2755,-6.2627,-6.3205,-6.2397,-6.2139,-6.1985,-6.1127,-6.0819,-6.0781,-6.0781,-6.0781,-6.0781,-6.0781,-6.0781,-6.0781,0.0,0.0,0.0,-6.0781,-6.0781,-6.0781,-6.0781,-6.0781,-6.0781,-6.0781,-6.0781,-6.0781,-6.0781,-6.0781,-6.0781,-6.0781,-6.0781,-6.0781,-6.0781,-6.0781,-6.0757,-6.0697,-5.9954,-5.9354,-5.9304,-5.8503,-5.7997,-5.7997,-5.7997,-5.7997,-5.7997,-5.7997,-5.7997,-5.7997,-5.7997,-5.7997,-5.7997,-5.7997,-5.7997,-5.7997,-5.7997,-5.7997,-5.7997,-5.7997,-5.7997,-5.7997,-5.7997,-5.7997,-5.7997,-5.7997,-5.7997,-5.7997,-5.7997,-5.7997,-5.7997,-5.7997,-5.7997,-5.7997,-6.909,-6.8898,-6.8783,-6.8783,-6.8052,-6.7475,-6.7475,-6.6744,-6.6244,0.0,0.0,0.0,-6.5897,-6.5897,-6.5897,-6.5897,-6.5897,-6.5897,-6.5897,-6.5897,-6.5897,-6.5897,-6.5897,-6.5897,-6.5897,-6.5897,-6.5897,-6.5897,-6.5897,-6.5897,-6.5897,-6.5897,-6.5897,-6.5897,-6.5897,-6.5897,-6.5897,-6.5897,-6.5897,-6.5782,-6.4705,-6.4397,-6.4474,-6.3397,-6.3128,-6.3281,-6.3051,-6.2589,-6.2062,-6.1831,-6.132,-6.0781,-6.0781,-6.0781,-6.0781,-6.0781,-6.0781,-6.0781,-6.0781,0.0,0.0,0.0,0.0,0.0,-6.0781,-6.0781,-6.0781,-6.0781,-6.0781,-6.0781,-6.0781,-6.0781,-6.0781,-6.0781,-6.0781,-6.0781,-6.0781,-6.0781,-6.071,-6.0455,-5.9808,-5.9321,-5.9046,-5.8412,-5.7997,-5.7997,-5.7997,-5.7997,-5.7997,-5.7997,-5.7997,-5.7997,-5.7997,-5.7997,-5.7997,-5.7997,-5.7997,-5.7997,-5.7997,-5.7997,-5.7997,-5.7997,-5.7997,-5.7997,-5.7997,-5.7997,-5.7997,-5.7997,-5.7997,-5.7997,-5.7997,-5.7997,-5.7997,-5.7997,-5.7997,-5.7997,-6.8385,-6.8129,-6.7859,-6.7859,-6.7167,-6.659,-6.659,-6.6205,-6.5897,0.0,0.0,0.0,-6.5897,-6.5897,-6.5897,-6.5897,-6.5897,-6.5897,-6.5897,-6.5897,-6.5897,-6.5897,-6.5897,-6.5897,-6.5897,-6.5897,-6.5897,-6.5897,-6.5897,-6.5897,-6.5897,-6.5897,-6.5897,-6.5897,-6.5897,-6.5897,-6.5897,-6.5742,-6.5755,-6.582,-6.4768,-6.4561,-6.4778,-6.3772,-6.36,-6.3858,-6.3677,-6.3295,-6.2823,-6.2283,-6.1524,-6.0781,-6.0781,-6.0781,-6.0781,-6.0781,-6.0781,-6.0781,-6.0781,-6.0781,-6.0781,-6.0781,0.0,0.0,-6.0781,-6.0781,-6.0781,-6.0781,-6.0781,-6.0781,-6.0781,-6.0781,-6.0781,-6.0781,-6.0781,-6.0781,-6.0781,-6.0781,-6.0685,-6.0335,-5.983,-5.9321,-5.8949,-5.8391,-5.8065,-5.7997,-5.7997,-5.7997,-5.7997,-5.7997,-5.7997,-5.7997,-5.7997,-5.7997,-5.7997,-5.7997,-5.7997,-5.7997,-5.7997,-5.7997,-5.7997,-5.7997,-5.7997,-5.7997,-5.7997,-5.7997,-5.7997,-5.7997,-5.7997,-5.7997,-5.7997,-5.7997,-5.7997,-5.7997,-5.7997,-5.7997,0.0,-6.7513,-6.6974,-6.6974,-6.6359,-6.5897,-6.5897,-6.5897,-6.5897,0.0,-6.5897,-6.5897,-6.5897,-6.5897,-6.5897,-6.5897,-6.5897,-6.5897,-6.5897,-6.5897,-6.5897,-6.5897,-6.5897,-6.5897,-6.5897,-6.5897,-6.5897,-6.5897,-6.5897,-6.5897,-6.5897,-6.5897,-6.5897,-6.5897,-6.5897,-6.5885,-6.5795,-6.5456,-6.5485,-6.5665,-6.4541,-6.4551,-6.513,-6.4061,-6.4092,-6.4638,-6.4251,-6.4001,-6.3741,-6.2452,-6.1476,-6.0746,-6.0781,-6.0781,-6.0781,-6.0781,-6.0781,-6.0781,-6.0781,-6.0781,-6.0781,-6.0781,-6.0781,0.0,-6.0781,-6.0781,-6.0781,-6.0781,-6.0781,-6.0781,-6.0781,-6.0781,-6.0781,-6.0781,-6.0781,-6.0781,-6.0781,-6.0781,-6.0673,-6.0279,-5.9846,-5.9412,-5.891,-5.8471,-5.8133,-5.802,-5.7997,-5.7997,-5.7997,-5.7997,-5.7997,-5.7997,-5.7997,-5.7997,-5.7997,-5.7997,-5.7997,-5.7997,-5.7997,-5.7997,-5.7997,-5.7997,-5.7997,-5.7997,-5.7997,-5.7997,-5.7997,-5.7997,-5.7997,-5.7997,-5.7997,-5.7997,-5.7997,-5.7997,-5.7997,-5.7997,-6.6397,-6.6244,-6.6128,-6.6128,-6.6013,-6.5897,-6.5897,-6.5897,-6.5897,-6.5897,-6.5897,-6.5897,-6.5897,-6.5897,-6.5897,-6.5897,-6.5897,-6.5897,-6.5897,-6.5897,-6.5897,-6.5897,-6.5897,-6.5897,-6.5897,-6.5897,-6.5897,-6.5897,-6.5897,-6.5897,-6.5897,-6.5897,-6.5897,-6.5897,-6.5897,-6.5742,-6.5427,-6.5329,-6.5137,-6.4904,-6.4647,-6.4651,-6.4803,-6.4544,-6.4547,-6.4679,-6.4596,-6.4158,-6.3394,-6.2046,-6.1065,-6.043,-6.0722,-6.0781,-6.0781,-6.0781,-6.0781,-6.0781,-6.0781,-6.0781,-6.0781,-6.0781,-6.0781,0.0,-6.0781,-6.0781,-6.0781,-6.0781,-6.0781,-6.0781,-6.0781,-6.0781,-6.0781,-6.0781,-6.0781,-6.0781,-6.0781,-6.0781,-6.0572,-5.9984,-5.9739,-5.9323,-5.8624,-5.8356,-5.8215,-5.8156,-5.8065,-5.7997,-5.7997,-5.7997,-5.7997,-5.7997,-5.7997,-5.7997,-5.7997,-5.7997,-5.7997,-5.7997,-5.7997,-5.7997,-5.7997,-5.7997,-5.7997,-5.7997,-5.7997,-5.7997,-5.7997,-5.7997,-5.7997,-5.7997,-5.7997,-5.7997,-5.7997,-5.7997,-5.7997,-5.7997,-6.5897,-6.5897,-6.5897,-6.5897,-6.5897,-6.5897,-6.5897,-6.5897,-6.5897,-6.5897,-6.5897,-6.5897,-6.5897,-6.5897,-6.5897,-6.5897,-6.5897,-6.5897,-6.5897,-6.5897,-6.5897,-6.5897,-6.5897,-6.5897,-6.5897,-6.5897,-6.5897,-6.5897,-6.5897,-6.5897,-6.5897,-6.5897,-6.5781,-6.5608,-6.5608,-6.5359,-6.4992,-6.4824,-6.463,-6.4445,-6.4445,-6.4445,-6.4426,-6.4214,-6.4134,-6.4154,-6.4369,-6.4046,-6.3352,-6.2227,-6.1446,-6.0842,-6.0622,-6.0685,-6.0781,-6.0781,-6.0781,-6.0781,-6.0781,-6.0781,-6.0781,-6.0781,-6.0781,0.0,0.0,-6.0781,-6.0781,-6.0781,-6.0781,-6.0746,-6.0572,-6.0546,-6.0507,-6.0321,-6.0293,-6.0293,-6.0293,-6.0468,-6.0293,-5.9588,-5.943,-5.914,-5.8556,-5.8378,-5.826,-5.8111,-5.8042,-5.7997,-5.7997,-5.7997,-5.7997,-5.7997,-5.7997,-5.7997,-5.7997,-5.7997,-5.7997,-5.7997,-5.7997,-5.7997,-5.7997,-5.7997,-5.7997,-5.7997,-5.7997,-5.7997,-5.7997,-5.7997,-5.7997,-5.7997,-5.7997,-5.7997,-5.7997,-5.7997,-5.7997,-5.7997,-6.5885,-6.5897,-6.5897,-6.5897,-6.5897,-6.5897,-6.5897,-6.5897,-6.5885,-6.5795,-6.5742,-6.5663,-6.5663,-6.5663,-6.5663,-6.5663,-6.5663,-6.569,-6.5781,-6.5781,-6.5808,-6.5897,-6.5897,-6.5897,-6.5897,-6.5897,-6.5897,-6.5897,-6.5897,-6.5897,-6.5897,-6.5897,-6.5676,-6.5299,-6.5299,-6.5041,-6.4574,-6.433,-6.4169,-6.4087,-6.4087,-6.4087,-6.4046,-6.3698,-6.3602,-6.3647,-6.3963,-6.3725,-6.3198,-6.2639,-6.1999,-6.1315,-6.0808,-6.0661,-6.071,-6.071,-6.0673,-6.0597,-6.0597,-6.0597,-6.0597,-6.0597,-6.0673,-6.0697,0.0,0.0,0.0,-6.0722,-6.0746,-6.0722,-6.0468,-6.0335,-6.0223,-5.9953,-5.9858,-5.9755,-5.9711,-5.9915,-5.9884,-5.9289,-5.9215,-5.9026,-5.8577,-5.8443,-5.8305,-5.802,-5.7997,-5.7997,-5.7997,-5.7997,-5.7997,-5.7997,-5.7997,-5.7997,-5.7997,-5.7997,-5.7997,-5.7997,-5.7997,-5.7997,-5.7997,-5.7997,-5.7997,-5.7997,-5.7997,-5.7997,-5.7997,-5.7997,-5.7997,-5.7997,-5.7997,-5.7997,-5.7997,-5.7997,-5.7997,-5.7997,-6.5808,-6.5897,-6.5897,-6.5897,-6.5897,-6.5897,-6.5897,-6.5897,-6.5768,-6.5427,-6.5057,-6.4837,-6.4837,-6.4837,-6.4837,-6.4837,-6.4837,-6.5009,-6.5329,-6.5382,-6.5513,-6.5885,-6.5897,-6.5897,-6.5897,-6.5897,-6.5897,-6.5897,-6.5897,-6.5897,-6.5897,-6.5897,-6.5676,-6.5299,-6.5299,-6.4892,-6.4251,-6.4229,-6.3984,-6.3669,-6.3669,-6.3669,-6.3669,-6.3624,-6.3602,-6.3602,-6.3647,-6.3193,-6.262,-6.3161,-6.2328,-6.1131,-6.171,-6.1186,-6.0349,-6.0349,-6.015,-5.9884,-5.9884,-5.9884,-5.9884,-5.9884,-6.015,-6.0279,-6.0,0.0,-6.0722,-6.0403,0.0,-6.0781,-6.0746,0.0,0.0,-6.0251,-6.0015,-5.9656,-5.9325,-5.9307,-5.9269,-5.9215,-5.9215,-5.9046,-5.8719,-5.8523,-5.8305,-5.802,-5.7997,-5.7997,-5.7997,-5.7997,-5.7997,-5.7997,-5.7997,-5.7997,-5.7997,-5.7997,-5.7997,-5.7997,-5.7997,-5.7997,-5.7997,-5.7997,-5.7997,-5.7997,-5.7997,-5.7997,-5.7997,-5.7997,-5.7997,-5.7997,-5.7997,-5.7997,-5.7997,-5.7997,-5.7997,-5.7997,-6.547,-6.5359,-6.5184,-6.5184,-6.5184,-6.5184,-6.5184,-6.5184,-6.5137,-6.4992,-6.4803,-6.4699,-6.4699,-6.4699,-6.4699,-6.4699,-6.4699,-6.4769,-6.4959,-6.4976,-6.5041,-6.5184,-6.5441,-6.5527,-6.5527,-6.5781,-6.5897,-6.5897,-6.5897,-6.5781,-6.5527,-6.5527,-6.5222,-6.4648,-6.4648,-6.4368,-6.3851,-6.3851,-6.3742,-6.3602,-6.3602,-6.3602,-6.3602,-6.3602,-6.3602,-6.3602,-6.3602,-6.3379,-6.2978,-6.2354,-6.1844,-6.1296,-6.0617,-6.0212,-6.003,-6.003,-5.9922,-5.9809,-5.9809,-5.9809,-5.9809,-5.9809,-5.9922,-5.9984,-5.9842,-6.003,-6.0194,-6.0045,0.0,0.0,0.0,0.0,0.0,0.0,-5.9271,-5.9102,-5.8908,-5.8925,-5.8925,-5.8925,-5.8925,-5.8805,-5.8566,-5.8459,-5.8305,-5.802,-5.7997,-5.7997,-5.7997,-5.7997,-5.7997,-5.7997,-5.7997,-5.7997,-5.7997,-5.7997,-5.7997,-5.7997,-5.7997,-5.7997,-5.7997,-5.7997,-5.7997,-5.7997,-5.7997,-5.7997,-5.7997,-5.7997,-5.7997,-5.7997,-5.7997,-5.7997,-5.7997,-5.7997,-5.7997,-5.7997,-6.4926,-6.4858,-6.4699,-6.4699,-6.4699,-6.4699,-6.4699,-6.461,-6.4556,-6.4556,-6.4483,-6.4389,-6.4389,-6.4389,-6.4389,-6.4389,-6.4389,-6.4464,-6.4575,-6.4556,-6.4592,-6.4699,-6.4992,-6.5121,-6.5121,-6.5441,-6.5556,-6.5556,-6.5556,-6.5441,-6.5121,-6.5121,-6.4789,-6.4209,-6.4209,-6.3963,-6.3602,-6.3602,-6.3602,-6.3602,-6.3602,-6.3602,-6.3602,-6.3602,-6.3602,-6.3602,-6.3602,-6.3602,-6.3401,-6.2119,-6.1678,-6.1468,-6.0133,-5.9691,-5.9622,-5.9622,-5.9554,-5.9505,-5.9505,-5.9505,-5.9505,-5.9505,-5.9554,-5.9605,-5.954,-5.9639,-5.9777,-5.9639,-5.9706,0.0,0.0,0.0,-5.9122,-5.8885,0.0,-5.8698,-5.8698,-5.8698,-5.8698,-5.8698,-5.8698,-5.8614,-5.8459,-5.8415,-5.8305,-5.8065,-5.802,-5.7997,-5.7997,-5.7997,-5.7997,-5.7997,-5.7997,-5.7997,-5.7997,-5.7997,-5.7997,-5.7997,-5.7997,-5.7997,-5.7997,-5.7997,-5.7997,-5.7997,-5.7997,-5.7997,-5.7997,-5.7997,-5.7997,-5.7997,-5.7997,-5.7997,-5.7997,-5.7997,-5.7997,-5.7997,-6.4212,-6.4501,-6.4699,-6.4699,-6.4699,-6.4699,-6.4699,-6.4426,-6.4229,-6.4229,-6.3894,-6.3647,-6.3647,-6.3647,-6.3647,-6.3647,-6.3647,-6.3808,-6.4209,-6.4229,-6.4368,-6.4681,-6.4716,-6.4716,-6.4716,-6.4734,-6.4734,-6.4734,-6.4734,-6.4734,-6.4716,-6.4716,-6.4538,-6.4209,-6.4209,-6.3963,-6.3602,-6.3602,-6.3602,-6.3602,-6.3602,-6.3602,-6.3602,-6.3602,-6.3602,-6.3602,-6.3602,-6.3602,-6.352,-6.3035,-6.235,-6.1619,-6.1094,-6.0141,-5.9234,-5.9234,-5.8986,-5.8739,-5.8739,-5.8739,-5.8739,-5.8739,-5.8967,-5.9122,-5.8784,-5.929,-5.9673,-5.9307,-5.952,-5.9809,-5.9793,-5.9467,-5.9215,-5.9197,-5.8925,0.0,0.0,-5.8698,-5.8698,-5.8698,-5.8698,-5.8635,-5.8529,-5.8459,-5.8349,-5.8179,-5.8065,-5.7997,-5.7997,-5.7997,-5.7997,-5.7997,-5.7997,-5.7997,-5.7997,-5.7997,-5.7997,-5.7997,-5.7997,-5.7997,-5.7997,-5.7997,-5.7997,-5.7997,-5.7997,-5.7997,-5.7997,-5.7997,-5.7997,-5.7997,-5.7997,-5.7997,-5.7997,-5.7997,-5.7997,-5.7997,-6.3808,-6.3878,-6.3946,-6.3946,-6.3946,-6.3946,-6.3946,-6.3857,-6.3808,-6.3808,-6.3691,-6.3602,-6.3602,-6.3602,-6.3602,-6.3602,-6.3602,-6.3669,-6.3786,-6.3808,-6.3873,-6.3984,-6.4231,-6.435,-6.435,-6.4574,-6.4699,-6.4699,-6.4699,-6.4574,-6.435,-6.435,-6.4151,-6.3808,-6.3808,-6.3736,-6.3602,-6.3602,-6.3602,-6.3602,-6.3602,-6.3602,-6.3602,-6.3602,-6.3602,-6.3602,-6.3602,-6.3602,-6.3401,-6.2178,-6.1608,-6.1144,-5.9885,-5.9191,-5.8865,-5.8865,-5.8801,-5.8698,-5.8698,-5.8698,-5.8698,-5.8698,-5.8801,-5.8845,-5.8719,-5.8885,-5.9006,-5.8905,-5.8984,-5.9045,-5.9045,-5.8965,-5.8865,-5.8865,-5.8781,-5.8698,0.0,-5.8252,-5.7918,-5.7918,-5.8401,-5.8656,-5.8492,-5.8422,-5.8349,-5.8201,-5.8065,-5.7997,-5.7997,-5.7997,-5.7997,-5.7997,-5.7997,-5.7997,-5.7997,-5.7997,-5.7997,-5.7997,-5.7997,-5.7997,-5.7997,-5.7997,-5.7997,-5.7997,-5.7997,-5.7997,-5.7997,-5.7997,-5.7997,-5.7997,-5.7997,-5.7997,-5.7997,-5.7997,-5.7997,-5.7997,-6.3579,-6.3602,-6.3602,-6.3602,-6.3602,-6.3602,-6.3602,-6.3602,-6.3602,-6.3602,-6.3602,-6.3602,-6.3602,-6.3602,-6.3602,-6.3602,-6.3602,-6.3602,-6.3602,-6.3602,-6.3602,-6.3602,-6.3851,-6.3984,-6.3984,-6.4212,-6.4311,-6.4311,-6.4311,-6.4212,-6.3984,-6.3984,-6.3851,-6.3602,-6.3602,-6.3602,-6.3602,-6.3602,-6.3602,-6.3602,-6.3602,-6.3602,-6.3602,-6.3602,-6.3602,-6.3602,-6.3602,-6.3371,-6.2903,-6.1567,-6.0936,-6.0454,-5.9038,-5.8635,-5.8677,-5.8593,-5.8593,-5.8614,-5.8593,-5.8572,-5.8572,-5.8572,-5.8572,-5.8593,-5.8614,-5.8635,-5.8635,-5.8677,-5.8698,-5.8698,-5.8698,-5.8698,-5.8698,-5.8698,-5.8698,-5.8624,0.0,-5.7843,-5.7398,-5.71,-5.7546,-5.7914,-5.8111,-5.8079,-5.8082,-5.8246,-5.8133,-5.8042,-5.7997,-5.7997,-5.7997,-5.7997,-5.7997,-5.7997,-5.7997,-5.7997,-5.7997,-5.7997,-5.7997,-5.7997,-5.7997,-5.7997,-5.7997,-5.7997,-5.7997,-5.7997,-5.7997,-5.7997,-5.7997,-5.7997,-5.7997,-5.7997,-5.7997,-5.7997,-5.7997,-5.7997,-6.3557,-6.3579,-6.3579,-6.3579,-6.3579,-6.3579,-6.3579,-6.3579,-6.3602,-6.3602,-6.3602,-6.3602,-6.3602,-6.3602,-6.3602,-6.3602,-6.3602,-6.3602,-6.3602,-6.3602,-6.3602,-6.3602,-6.3602,-6.3602,-6.3602,-6.3602,-6.3602,-6.3602,-6.3602,-6.3602,-6.3602,-6.3602,-6.3602,-6.3602,-6.3602,-6.3602,-6.3602,-6.3602,-6.3602,-6.3602,-6.3602,-6.3602,-6.3602,-6.3579,-6.3579,-6.3579,-6.3579,-6.2992,-6.2085,-6.127,-6.0455,-5.9619,-5.8695,-5.8545,-5.8635,-5.8459,-5.8443,-5.8486,-5.8415,-5.8393,-5.8393,-5.8393,-5.8393,-5.8415,-5.8486,-5.8508,-5.8551,-5.8656,-5.8677,-5.8677,-5.8677,-5.8677,-5.8677,-5.8698,-5.8661,-5.8364,-5.7621,-5.7435,-5.71,-5.632,-5.6209,-5.6506,-5.736,-5.7369,-5.7577,-5.8282,-5.8246,-5.8133,-5.7997,-5.7997,-5.7997,-5.7997,-5.7997,-5.7997,-5.7997,-5.7997,-5.7997,-5.7997,-5.7997,-5.7997,-5.7997,-5.7997,-5.7997,-5.7997,-5.7997,-5.7997,-5.7997,-5.7997,-5.7997,-5.7997,-5.7997,-5.7997,-5.7997,-5.7997,-5.7997,-5.7997,-6.3428,-6.3396,-6.3312,-6.3405,-6.3465,-6.3465,-6.3465,-6.3534,-6.3602,-6.3602,-6.3602,-6.3602,-6.3602,-6.3602,-6.3602,-6.3602,-6.3602,-6.3602,-6.3602,-6.3602,-6.3602,-6.3602,-6.3602,-6.3602,-6.3602,-6.3602,-6.3602,-6.3602,-6.3602,-6.3602,-6.3602,-6.3602,-6.3602,-6.3602,-6.3602,-6.3602,-6.3602,-6.3602,-6.3602,-6.3602,-6.3602,-6.3602,-6.3579,-6.3488,-6.3465,-6.3465,-6.3465,-6.284,-6.1934,-6.1098,-6.0322,-5.9509,-5.8674,-5.8437,-5.848,-5.8415,-5.8415,-5.8437,-5.8393,-5.8393,-5.8393,-5.8393,-5.8393,-5.8393,-5.8437,-5.8437,-5.8437,-5.848,-5.848,-5.8502,-5.8551,-5.8572,-5.8593,-5.8677,-5.8215,-5.7732,-5.7546,-5.6432,-5.5577,-5.5354,-5.4834,-5.502,-5.6469,-5.6953,-5.7233,-5.7433,-5.7825,-5.8042,-5.7997,-5.7997,-5.7997,-5.7997,-5.7997,-5.7997,-5.7997,-5.7997,-5.7997,-5.7997,-5.7997,-5.7997,-5.7997,-5.7997,-5.7997,-5.7997,-5.7997,-5.7997,-5.7997,-5.7997,-5.7997,-5.7997,-5.7997,-5.7997,-5.7997,-5.7997,-5.7997,-5.7997,-6.3289,-6.3194,-6.3123,-6.3218,-6.3218,-6.3242,-6.3289,-6.3442,-6.3511,-6.3511,-6.3557,-6.3602,-6.3602,-6.3602,-6.3602,-6.3602,-6.3602,-6.3602,-6.3602,-6.3602,-6.3602,-6.3602,-6.3602,-6.3602,-6.3602,-6.3602,-6.3602,-6.3602,-6.3602,-6.3602,-6.3602,-6.3602,-6.3602,-6.3602,-6.3602,-6.3602,-6.3602,-6.3602,-6.3602,-6.3579,-6.3534,-6.3511,0.0,-6.3336,-6.3265,-6.3218,-6.3218,-6.2432,-6.1315,-6.0872,-5.995,-5.8895,-5.8408,-5.8305,-5.8371,-5.8282,-5.8282,-5.8305,-5.826,-5.8238,-5.8238,-5.8238,-5.8238,-5.826,-5.8305,-5.8327,-5.8327,-5.8393,-5.8393,-5.8415,-5.8443,-5.8486,-5.8513,-5.8677,-5.8029,-5.7398,-5.7026,-5.5837,-5.4871,-5.4537,-5.4091,-5.4166,-5.5131,-5.5788,-5.6256,-5.6525,-5.6853,-5.7183,-5.7446,-5.7483,-5.7629,-5.7997,-5.7997,-5.7997,-5.7997,-5.7997,-5.7997,-5.7997,-5.7997,-5.7997,-5.7997,-5.7997,-5.7997,-5.7997,-5.7997,-5.7997,-5.7997,-5.7997,-5.7997,-5.7997,-5.7997,-5.7997,-5.7997,-5.7997,-5.7997,-5.7997,-6.3147,-6.3075,-6.2978,-6.3002,-6.3002,-6.3002,-6.3123,-6.3265,-6.3359,-6.3359,-6.3488,-6.3557,-6.3557,-6.3557,-6.3557,-6.3557,-6.3557,-6.3579,-6.3579,-6.3579,-6.3602,-6.3602,-6.3602,-6.3602,-6.3602,-6.3602,-6.3602,-6.3602,-6.3602,-6.3602,-6.3602,-6.3602,-6.3602,-6.3602,-6.3602,-6.3602,-6.3602,-6.3602,-6.3579,-6.3557,-6.3465,-6.3382,-6.3336,-6.3218,-6.3099,-6.3002,-6.2978,-6.1947,-6.0572,-6.0572,-5.9481,-5.8133,-5.8042,-5.8156,-5.8305,-5.8065,-5.8065,-5.8133,-5.802,-5.7997,-5.7997,-5.7997,-5.7997,-5.802,-5.8133,-5.8156,-5.8215,-5.8327,-5.8349,-5.8349,-5.8371,-5.8422,-5.8529,-5.8656,-5.7934,-5.708,-5.6375,-5.5446,-5.4574,-5.3868,-5.3794,0.0,-5.3812,-5.4457,-5.5114,-5.5697,-5.5776,-5.6051,-5.6748,-5.6822,-5.7189,-5.796,-5.7997,-5.7997,-5.7997,-5.7997,-5.7997,-5.7997,-5.7997,-5.7997,-5.7997,-5.7997,-5.7997,-5.7997,-5.7997,-5.7997,-5.7997,-5.7997,-5.7997,-5.7997,-5.7997,-5.7997,-5.7997,-5.7997,-5.7997,-5.7997,-6.3026,-6.2929,-6.2855,-6.2978,-6.2904,-6.283,-6.2855,-6.3075,-6.3255,-6.3255,-6.3279,-6.3279,-6.3279,-6.3279,-6.3279,-6.3279,-6.3359,-6.3465,-6.3465,-6.3534,-6.3602,-6.3602,-6.3602,-6.3602,-6.3602,-6.3602,-6.3602,-6.3602,-6.3602,-6.3602,-6.3602,-6.3602,-6.3602,-6.3602,-6.3602,-6.3602,-6.3602,-6.3602,-6.3534,-6.3405,-6.3382,-6.3312,-6.3194,-6.3075,-6.3026,-6.3002,-6.288,-6.1802,-6.0443,-6.0443,-5.9341,-5.802,-5.7997,-5.802,-5.8065,-5.802,-5.802,-5.802,-5.7997,-5.7997,-5.7997,-5.7997,-5.7997,-5.7997,-5.802,-5.8042,-5.8042,-5.8065,-5.8065,-5.8088,-5.8201,-5.8349,-5.8422,-5.8529,-5.7291,-5.629,-5.6142,-5.4924,-5.398,-5.3831,-5.3794,-5.3793,-5.3696,-5.4337,-5.4773,-5.4901,-5.5359,-5.5963,-5.6748,-5.6822,-5.7189,-5.796,-5.7997,-5.7997,-5.7997,-5.7997,-5.7997,-5.7997,-5.7997,-5.7997,-5.7997,-5.7997,-5.7997,-5.7997,-5.7997,-5.7997,-5.7997,-5.7997,-5.7997,-5.7997,-5.7997,-5.7997,-5.7997,-5.7997,-5.7997,-5.7997,-6.2904,-6.283,-6.2805,-6.288,-6.283,-6.278,-6.278,-6.2904,-6.3002,-6.3075,-6.3147,-6.3194,-6.3194,-6.3194,-6.3194,-6.3194,-6.3242,-6.3289,-6.3289,-6.3442,-6.3511,-6.3511,-6.3557,-6.3602,-6.3602,-6.3602,-6.3602,-6.3602,-6.3602,-6.3602,-6.3602,-6.3602,-6.3557,-6.3511,-6.3511,-6.3511,-6.3511,-6.3511,-6.3465,-6.3382,-6.3242,-6.3147,-6.3075,-6.2953,-6.2904,-6.288,-6.2805,-6.2034,-6.097,-6.0529,-5.9612,-5.8547,-5.8143,-5.7997,-5.7997,-5.7997,-5.7997,-5.7997,-5.7997,-5.7997,-5.7997,-5.7997,-5.7997,-5.7997,-5.7997,-5.7997,-5.7997,-5.7997,-5.7997,-5.8042,-5.8193,-5.826,-5.8349,-5.8422,-5.7053,-5.5981,-5.5981,-5.4637,-5.3639,-5.3639,-5.3639,-5.362,-5.3598,-5.383,-5.3969,-5.3969,-5.4191,-5.4876,-5.6124,-5.6161,-5.6748,-5.796,-5.7997,-5.7997,-5.7997,-5.7997,-5.7997,-5.7997,-5.7997,-5.7997,-5.7997,-5.7997,-5.7997,-5.7997,-5.7997,-5.7997,-5.7997,-5.7997,-5.7997,-5.7997,-5.7997,-5.7997,-5.7997,-5.7997,-5.7997,-5.7997,-6.278,-6.278,-6.278,-6.278,-6.278,-6.278,-6.278,-6.278,-6.283,-6.2953,-6.3051,-6.3099,-6.3099,-6.3099,-6.3099,-6.3099,-6.3123,-6.3147,-6.3147,-6.3265,-6.3336,-6.3336,-6.3465,-6.3534,-6.3557,-6.3557,-6.3579,-6.3602,-6.3602,-6.3579,-6.3557,-6.3557,-6.3511,-6.3382,-6.3359,-6.3359,-6.3382,-6.3359,-6.3336,-6.3289,-6.3099,-6.2978,-6.2953,-6.283,-6.278,-6.278,-6.278,-6.2401,-6.1741,-6.0933,-6.0015,-5.9074,-5.8437,-5.8143,-5.7997,-5.7997,-5.7997,-5.7997,-5.7997,-5.7997,-5.7997,-5.7997,-5.7997,-5.7997,-5.7997,-5.7997,-5.7997,-5.7997,-5.7997,-5.8042,-5.8193,-5.8193,-5.8179,-5.8349,-5.6947,-5.5876,-5.5876,-5.4494,-5.3481,-5.3481,-5.3481,-5.3481,-5.3461,-5.3359,-5.3297,-5.3277,-5.323,-5.3849,-5.5244,-5.5317,-5.6088,-5.7703,-5.774,-5.7813,-5.7997,-5.7997,-5.7997,-5.7997,-5.7997,-5.7997,-5.7997,-5.7997,-5.7997,-5.7997,-5.7997,-5.7997,-5.7997,-5.7997,-5.7997,-5.7997,-5.7997,-5.7997,-5.7997,-5.7997,-5.7997,-5.7997,-6.278,-6.278,-6.278,-6.278,-6.278,-6.278,-6.278,-6.278,-6.2805,-6.2805,-6.283,-6.283,-6.283,-6.283,-6.283,-6.283,-6.2953,-6.3026,-6.3026,-6.3147,-6.3194,-6.3194,-6.3218,-6.3265,-6.3442,-6.3405,-6.3488,-6.3602,-6.3602,-6.3534,-6.3405,-6.3405,-6.3405,-6.3382,-6.3265,-6.3265,-6.3382,-6.3265,-6.3147,-6.3051,-6.3026,-6.2929,-6.2805,-6.2805,-6.278,-6.278,-6.278,-6.2743,-6.2585,-6.1741,-6.0456,-5.9184,-5.9111,-5.8584,-5.7997,-5.7997,-5.7997,-5.7997,-5.7997,-5.7997,-5.7997,-5.7997,-5.7997,-5.7997,-5.7997,-5.7997,-5.7997,-5.7997,-5.7997,-5.8042,-5.8193,-5.8088,-5.8065,-5.8215,-5.6875,-5.5822,-5.5822,-5.449,-5.3481,-5.3481,-5.3481,-5.344,-5.3339,-5.3318,-5.3256,-5.3209,-5.3188,-5.3592,-5.4473,-5.4509,-5.5244,-5.6859,-5.6932,-5.7262,-5.7997,-5.7997,-5.7997,-5.7997,-5.7997,-5.7997,-5.7997,-5.7997,-5.7997,-5.7997,-5.7997,-5.7997,-5.7997,-5.7997,-5.7997,-5.7997,-5.7997,-5.7997,-5.7997,-5.7997,-5.7997,-5.7997,-6.278,-6.278,-6.278,-6.278,-6.278,-6.278,-6.278,-6.278,-6.278,-6.278,-6.278,-6.278,-6.278,-6.278,-6.278,-6.278,-6.2855,-6.288,-6.288,-6.3002,-6.3075,-6.3075,-6.3147,-6.3255,-6.3265,-6.3265,-6.3326,-6.3373,-6.3373,-6.3349,-6.3265,-6.3265,-6.3218,-6.3147,-6.3099,-6.3099,-6.3147,-6.3099,-6.3051,-6.3002,-6.2904,-6.283,-6.278,-6.278,-6.278,-6.278,-6.278,-6.278,-6.2743,-6.2438,-6.1557,-6.0456,-5.9478,-5.8964,-5.8621,-5.8143,-5.7997,-5.7997,-5.7997,-5.7997,-5.7997,-5.7997,-5.7997,-5.7997,-5.7997,-5.7997,-5.7997,-5.7997,-5.7997,-5.802,-5.8065,-5.8042,-5.802,-5.8065,-5.7147,-5.6228,-5.575,-5.4727,-5.3865,-5.3387,-5.3314,-5.3293,-5.3251,-5.3251,-5.323,-5.3225,-5.3203,-5.3555,-5.4363,-5.484,-5.5647,-5.6785,-5.7262,-5.7666,-5.7997,-5.7997,-5.7997,-5.7997,-5.7997,-5.7997,-5.7997,-5.7997,-5.7997,-5.7997,-5.7997,-5.7997,-5.7997,-5.7997,-5.7997,-5.7997,-5.7997,-5.7997,-5.7997,-5.7997,-5.7997,-5.7997,-6.278,-6.278,-6.278,-6.278,-6.278,-6.278,-6.278,-6.278,-6.278,-6.278,-6.278,-6.278,-6.278,-6.278,-6.278,-6.278,-6.278,-6.278,-6.278,-6.288,-6.2953,-6.2953,-6.3026,-6.3099,-6.3123,-6.3123,-6.3147,-6.3194,-6.3194,-6.3171,-6.3123,-6.3099,-6.3051,-6.3002,-6.2953,-6.2978,-6.3002,-6.2953,-6.2953,-6.2929,-6.283,-6.278,-6.278,-6.278,-6.278,-6.278,-6.278,-6.278,-6.278,-6.278,-6.2438,-6.1704,-6.0346,-5.9588,-5.9074,-5.851,-5.818,-5.7997,-5.7997,-5.7997,-5.7997,-5.7997,-5.7997,-5.7997,-5.7997,-5.7997,-5.7997,-5.7997,-5.7997,-5.7997,-5.7997,-5.7997,-5.7997,-5.7997,-5.7336,-5.6528,-5.5684,-5.4913,-5.4106,-5.3298,-5.3203,-5.3203,-5.3203,-5.3203,-5.3203,-5.3203,-5.3203,-5.3555,-5.4363,-5.495,-5.5721,-5.6785,-5.7336,-5.7776,-5.7997,-5.7997,-5.7997,-5.7997,-5.7997,-5.7997,-5.7997,-5.7997,-5.7997,-5.7997,-5.7997,-5.7997,-5.7997,-5.7997,-5.7997,-5.7997,-5.7997,-5.7997,-5.7997,-5.7997,-5.7997,-5.7997,-6.278,-6.278,-6.278,-6.278,-6.278,-6.278,-6.278,-6.278,-6.278,-6.278,-6.278,-6.278,-6.278,-6.278,-6.278,-6.278,-6.278,-6.278,-6.278,-6.278,-6.2805,-6.2805,-6.2805,-6.2855,-6.3002,-6.3002,-6.3075,-6.3194,-6.3194,-6.3123,-6.3002,-6.2855,-6.288,-6.3002,-6.2855,-6.288,-6.3002,-6.2855,-6.2805,-6.2805,-6.278,-6.278,-6.278,-6.278,-6.278,-6.278,-6.278,-6.278,-6.278,-6.278,-6.278,-6.2658,-6.1814,-6.0493,-5.9184,-5.9184,-5.8621,-5.7997,-5.7997,-5.7997,-5.7997,-5.7997,-5.7997,-5.7997,-5.7997,-5.7997,-5.7997,-5.7997,-5.7997,-5.7997,-5.7997,-5.7997,-5.7997,-5.7997,-5.7336,-5.6528,-5.5684,-5.4913,-5.4106,-5.3298,-5.3203,-5.3203,-5.3203,-5.3203,-5.3203,-5.3203,-5.3203,-5.3555,-5.4363,-5.4399,-5.517,-5.6748,-5.6822,-5.7189,-5.7997,-5.7997,-5.7997,-5.7997,-5.7997,-5.7997,-5.7997,-5.7997,-5.7997,-5.7997,-5.7997,-5.7997,-5.7997,-5.7997,-5.7997,-5.7997,-5.7997,-5.7997,-5.7997,-5.7997,-5.7997,-5.7997,-6.278,-6.278,-6.278,-6.278,-6.278,-6.278,-6.278,-6.278,-6.278,-6.278,-6.278,-6.278,-6.278,-6.278,-6.278,-6.278,-6.278,-6.278,-6.278,-6.278,-6.278,-6.278,-6.278,-6.2805,-6.2855,-6.2855,-6.288,-6.2929,-6.2929,-6.2904,-6.2855,-6.2805,-6.2805,-6.2855,-6.2805,-6.2805,-6.2855,-6.2805,-6.278,-6.278,-6.278,-6.278,-6.278,-6.278,-6.278,-6.278,-6.278,-6.278,-6.278,-6.278,-6.278,-6.2768,-6.2511,-6.1704,-6.0639,-5.9515,-5.9001,-5.8694,-5.8143,-5.7997,-5.7997,-5.7997,-5.7997,-5.7997,-5.7997,-5.7997,-5.7997,-5.7997,-5.7997,-5.7997,-5.7997,-5.7997,-5.7997,-5.7997,-5.7776,-5.7336,-5.6528,-5.5721,-5.4913,-5.4106,-5.3555,-5.3203,-5.3203,-5.3203,-5.3203,-5.3203,-5.3203,-5.3555,-5.4363,-5.4913,-5.5684,-5.6785,-5.7336,-5.774,-5.7997,-5.7997,-5.7997,-5.7997,-5.7997,-5.7997,-5.7997,-5.7997,-5.7997,-5.7997,-5.7997,-5.7997,-5.7997,-5.7997,-5.7997,-5.7997,-5.7997,-5.7997,-5.7997,-5.7997,-5.7997,-5.7997,-6.278,-6.278,-6.278,-6.278,-6.278,-6.278,-6.278,-6.278,-6.278,-6.278,-6.278,-6.278,-6.278,-6.278,-6.278,-6.278,-6.278,-6.278,-6.278,-6.278,-6.278,-6.278,-6.278,-6.278,-6.278,-6.278,-6.278,-6.278,-6.278,-6.278,-6.278,-6.278,-6.278,-6.278,-6.278,-6.278,-6.278,-6.278,-6.278,-6.278,-6.278,-6.278,-6.278,-6.278,-6.278,-6.278,-6.278,-6.278,-6.278,-6.278,-6.278,-6.278,-6.278,-6.2475,-6.1777,-6.0493,-5.9661,-5.9074,-5.8584,-5.8217,-5.7997,-5.7997,-5.7997,-5.7997,-5.7997,-5.7997,-5.7997,-5.7997,-5.7997,-5.7997,-5.7997,-5.7997,-5.7997,-5.7997,-5.7997,-5.7703,-5.6932,-5.6381,-5.5757,-5.495,-5.4399,-5.4106,-5.4106,-5.4106,-5.4106,-5.4106,-5.4106,-5.4436,-5.528,-5.55,-5.6088,-5.7226,-5.774,-5.7997,-5.7997,-5.7997,-5.7997,-5.7997,-5.7997,-5.7997,-5.7997,-5.7997,-5.7997,-5.7997,-5.7997,-5.7997,-5.7997,-5.7997,-5.7997,-5.7997,-5.7997,-5.7997,-5.7997,-5.7997,-5.7997,-5.7997,-6.278,-6.278,-6.278,-6.278,-6.278,-6.278,-6.278,-6.278,-6.278,-6.278,-6.278,-6.278,-6.278,-6.278,-6.278,-6.278,-6.278,-6.278,-6.278,-6.278,-6.278,-6.278,-6.278,-6.278,-6.278,-6.278,-6.278,-6.278,-6.278,-6.278,-6.278,-6.278,-6.278,-6.278,-6.278,-6.278,-6.278,-6.278,-6.278,-6.278,-6.278,-6.278,-6.278,-6.278,-6.278,-6.278,-6.278,-6.278,-6.278,-6.278,-6.278,-6.278,-6.278,-6.278,-6.2658,-6.1851,-6.0529,-5.9331,-5.9221,-5.8657,-5.807,-5.7997,-5.7997,-5.7997,-5.7997,-5.7997,-5.7997,-5.7997,-5.7997,-5.7997,-5.7997,-5.7997,-5.7997,-5.7997,-5.7997,-5.774,-5.7005,-5.6859,-5.6528,-5.5757,-5.5633,-5.5596,-5.5596,-5.5596,-5.5596,-5.5596,-5.5596,-5.5941,-5.6748,-5.6088,-5.6381,-5.796,-5.7997,-5.7997,-5.7997,-5.7997,-5.7997,-5.7997,-5.7997,-5.7997,-5.7997,-5.7997,-5.7997,-5.7997,-5.7997,-5.7997,-5.7997,-5.7997,-5.7997,-5.7997,-5.7997,-5.7997,-5.7997,-5.7997,-5.7997,-5.7997,-6.278,-6.278,-6.278,-6.278,-6.278,-6.278,-6.278,-6.278,-6.278,-6.278,-6.278,-6.278,-6.278,-6.278,-6.278,-6.278,-6.278,-6.278,-6.278,-6.278,-6.278,-6.278,-6.278,-6.278,-6.278,-6.278,-6.278,-6.278,-6.278,-6.278,-6.278,-6.278,-6.278,-6.278,-6.278,-6.278,-6.278,-6.278,-6.278,-6.278,-6.278,-6.278,-6.278,-6.278,-6.278,-6.278,-6.278,-6.278,-6.278,-6.278,-6.278,-6.278,-6.278,-6.278,-6.2658,-6.1851,-6.1337,-6.075,-5.9515,-5.9038,-5.8767,-5.8143,-5.7997,-5.7997,-5.7997,-5.7997,-5.7997,-5.7997,-5.7997,-5.7997,-5.7997,-5.7997,-5.7997,-5.7997,-5.7997,-5.7923,-5.774,-5.7189,-5.6748,-5.6528,-5.5978,-5.5596,-5.5596,-5.5596,-5.5596,-5.5596,-5.5596,-5.5941,-5.6748,-5.6638,-5.6969,-5.796,-5.7997,-5.7997,-5.7997,-5.7997,-5.7997,-5.7997,-5.7997,-5.7997,-5.7997,-5.7997,-5.7997,-5.7997,-5.7997,-5.7997,-5.7997,-5.7997,-5.7997,-5.7997,-5.7997,-5.7997,-5.7997,-5.7997,-5.7997,-5.7997,-6.278,-6.278,-6.278,-6.278,-6.278,-6.278,-6.278,-6.278,-6.278,-6.278,-6.278,-6.278,-6.278,-6.278,-6.278,-6.278,-6.278,-6.278,-6.278,-6.278,-6.278,-6.278,-6.278,-6.278,-6.278,-6.278,-6.278,-6.278,-6.278,-6.278,-6.278,-6.278,-6.278,-6.278,-6.278,-6.278,-6.278,-6.278,-6.278,-6.278,-6.278,-6.278,-6.278,-6.278,-6.278,-6.278,-6.278,-6.278,-6.278,-6.278,-6.278,-6.278,-6.278,-6.278,-6.2732,-6.2291,-6.1887,-6.141,-6.0529,-5.9735,-5.9001,-5.8217,-5.7997,-5.7997,-5.7997,-5.7997,-5.7997,-5.7997,-5.7997,-5.7997,-5.7997,-5.7997,-5.7997,-5.7997,-5.7997,-5.7997,-5.7997,-5.7629,-5.7336,-5.7336,-5.6969,-5.6675,-5.6675,-5.6675,-5.6675,-5.6675,-5.6675,-5.6895,-5.7336,-5.7336,-5.7556,-5.7997,-5.7997,-5.7997,-5.7997,-5.7997,-5.7997,-5.7997,-5.7997,-5.7997,-5.7997,-5.7997,-5.7997,-5.7997,-5.7997,-5.7997,-5.7997,-5.7997,-5.7997,-5.7997,-5.7997,-5.7997,-5.7997,-5.7997,-5.7997,-5.7997,-6.278,-6.278,-6.278,-6.278,-6.278,-6.278,-6.278,-6.278,-6.278,-6.278,-6.278,-6.278,-6.278,-6.278,-6.278,-6.278,-6.278,-6.278,-6.278,-6.278,-6.278,-6.278,-6.278,-6.278,-6.278,-6.278,-6.278,-6.278,-6.278,-6.278,-6.278,-6.278,-6.278,-6.278,-6.278,-6.278,-6.278,-6.278,-6.278,-6.278,-6.278,-6.278,-6.278,-6.278,-6.278,-6.278,-6.278,-6.278,-6.278,-6.278,-6.278,-6.278,-6.278,-6.278,-6.278,-6.278,-6.2328,-6.1741,-6.163,-6.0419,-5.9038,-5.8364,-5.8107,-5.7997,-5.7997,-5.7997,-5.7997,-5.7997,-5.7997,-5.7997,-5.7997,-5.7997,-5.7997,-5.7997,-5.7997,-5.7997,-5.7997,-5.7997,-5.7997,-5.7997,-5.7997,-5.7997,-5.7997,-5.7997,-5.7997,-5.7997,-5.7997,-5.7997,-5.7997,-5.7997,-5.7997,-5.7997,-5.7997,-5.7997,-5.7997,-5.7997,-5.7997,-5.7997,-5.7997,-5.7997,-5.7997,-5.7997,-5.7997,-5.7997,-5.7997,-5.7997,-5.7997,-5.7997,-5.7997,-5.7997,-5.7997,-5.7997,-5.7997,-5.7997,-5.7997,-5.7997,-6.278,-6.278,-6.278,-6.278,-6.278,-6.278,-6.278,-6.278,-6.278,-6.278,-6.278,-6.278,-6.278,-6.278,-6.278,-6.278,-6.278,-6.278,-6.278,-6.278,-6.278,-6.278,-6.278,-6.278,-6.278,-6.278,-6.278,-6.278,-6.278,-6.278,-6.278,-6.278,-6.278,-6.278,-6.278,-6.278,-6.278,-6.278,-6.278,-6.278,-6.278,-6.278,-6.278,-6.278,-6.278,-6.278,-6.278,-6.278,-6.278,-6.278,-6.278,-6.278,-6.278,-6.278,-6.278,-6.278,-6.2732,-6.2475,-6.1777,-6.0419,-5.9148,-5.9038,-5.851,-5.7997,-5.7997,-5.7997,-5.7997,-5.7997,-5.7997,-5.7997,-5.7997,-5.7997,-5.7997,-5.7997,-5.7997,-5.7997,-5.7997,-5.7997,-5.7997,-5.7997,-5.7997,-5.7997,-5.7997,-5.7997,-5.7997,-5.7997,-5.7997,-5.7997,-5.7997,-5.7997,-5.7997,-5.7997,-5.7997,-5.7997,-5.7997,-5.7997,-5.7997,-5.7997,-5.7997,-5.7997,-5.7997,-5.7997,-5.7997,-5.7997,-5.7997,-5.7997,-5.7997,-5.7997,-5.7997,-5.7997,-5.7997,-5.7997,-5.7997,-5.7997,-5.7997,-5.7997,-6.278,-6.278,-6.278,-6.278,-6.278,-6.278,-6.278,-6.278,-6.278,-6.278,-6.278,-6.278,-6.278,-6.278,-6.278,-6.278,-6.278,-6.278,-6.278,-6.278,-6.278,-6.278,-6.278,-6.278,-6.278,-6.278,-6.278,-6.278,-6.278,-6.278,-6.278,-6.278,-6.278,-6.278,-6.278,-6.278,-6.278,-6.278,-6.278,-6.278,-6.278,-6.278,-6.278,-6.278,-6.278,-6.278,-6.278,-6.278,-6.278,-6.278,-6.278,-6.278,-6.278,-6.278,-6.278,-6.278,-6.278,-6.2622,-6.1814,-6.1043,-6.0272,-5.9404,-5.8914,-5.8547,-5.8107,-5.7997,-5.7997,-5.7997,-5.7997,-5.7997,-5.7997,-5.7997,-5.7997,-5.7997,-5.7997,-5.7997,-5.7997,-5.7997,-5.7997,-5.7997,-5.7997,-5.7997,-5.7997,-5.7997,-5.7997,-5.7997,-5.7997,-5.7997,-5.7997,-5.7997,-5.7997,-5.7997,-5.7997,-5.7997,-5.7997,-5.7997,-5.7997,-5.7997,-5.7997,-5.7997,-5.7997,-5.7997,-5.7997,-5.7997,-5.7997,-5.7997,-5.7997,-5.7997,-5.7997,-5.7997,-5.7997,-5.7997,-5.7997,-5.7997,-5.7997,-5.7997,-6.278,-6.278,-6.278,-6.278,-6.278,-6.278,-6.278,-6.278,-6.278,-6.278,-6.278,-6.278,-6.278,-6.278,-6.278,-6.278,-6.278,-6.278,-6.278,-6.278,-6.278,-6.278,-6.278,-6.278,-6.278,-6.278,-6.278,-6.278,-6.278,-6.278,-6.278,-6.278,-6.278,-6.278,-6.278,-6.278,-6.278,-6.278,-6.278,-6.278,-6.278,-6.278,-6.278,-6.278,-6.278,-6.278,-6.278,-6.278,-6.278,-6.278,-6.278,-6.278,-6.278,-6.278,-6.278,-6.278,-6.278,-6.2695,-6.2034,-6.1741,-6.13,-6.0089,-5.9478,-5.9038,-5.8437,-5.8143,-5.7997,-5.7997,-5.7997,-5.7997,-5.7997,-5.7997,-5.7997,-5.7997,-5.7997,-5.7997,-5.7997,-5.7997,-5.7997,-5.7997,-5.7997,-5.7997,-5.7997,-5.7997,-5.7997,-5.7997,-5.7997,-5.7997,-5.7997,-5.7997,-5.7997,-5.7997,-5.7997,-5.7997,-5.7997,-5.7997,-5.7997,-5.7997,-5.7997,-5.7997,-5.7997,-5.7997,-5.7997,-5.7997,-5.7997,-5.7997,-5.7997,-5.7997,-5.7997,-5.7997,-5.7997,-5.7997,-5.7997,-5.7997,-5.7997,-5.7997,-6.278,-6.278,-6.278,-6.278,-6.278,-6.278,-6.278,-6.278,-6.278,-6.278,-6.278,-6.278,-6.278,-6.278,-6.278,-6.278,-6.278,-6.278,-6.278,-6.278,-6.278,-6.278,-6.278,-6.278,-6.278,-6.278,-6.278,-6.278,-6.278,-6.278,-6.278,-6.278,-6.278,-6.278,-6.278,-6.278,-6.278,-6.278,-6.278,-6.278,-6.278,-6.278,-6.278,-6.278,-6.278,-6.278,-6.278,-6.278,-6.278,-6.278,-6.278,-6.278,-6.278,-6.278,-6.278,-6.278,-6.278,-6.2805,-6.2732,-6.2181,-6.1557,-6.1447,-6.0309,-5.9184,-5.9111,-5.8547,-5.7997,-5.7997,-5.7997,-5.7997,-5.7997,-5.7997,-5.7997,-5.7997,-5.7997,-5.7997,-5.7997,-5.7997,-5.7997,-5.7997,-5.7997,-5.7997,-5.7997,-5.7997,-5.7997,-5.7997,-5.7997,-5.7997,-5.7997,-5.7997,-5.7997,-5.7997,-5.7997,-5.7997,-5.7997,-5.7997,-5.7997,-5.7997,-5.7997,-5.7997,-5.7997,-5.7997,-5.7997,-5.7997,-5.7997,-5.7997,-5.7997,-5.7997,-5.7997,-5.7997,-5.7997,-5.7997,-5.7997,-5.7997,-5.7997,-5.7997,-6.278,-6.278,-6.278,-6.278,-6.278,-6.278,-6.278,-6.278,-6.278,-6.278,-6.278,-6.278,-6.278,-6.278,-6.278,-6.278,-6.278,-6.278,-6.278,-6.278,-6.278,-6.278,-6.278,-6.278,-6.278,-6.278,-6.278,-6.278,-6.278,-6.278,-6.278,-6.278,-6.278,-6.278,-6.278,-6.278,-6.278,-6.278,-6.278,-6.278,-6.278,-6.278,-6.278,-6.278,-6.278,-6.278,-6.278,-6.278,-6.278,-6.278,-6.278,-6.278,-6.278,-6.278,-6.278,-6.278,-6.278,-6.278,-6.278,-6.2585,-6.2218,-6.1704,-6.1153,-6.0419,-5.9404,-5.8964,-5.8621,-5.8107,-5.7997,-5.7997,-5.7997,-5.7997,-5.7997,-5.7997,-5.7997,-5.7997,-5.7997,-5.7997,-5.7997,-5.7997,-5.7997,-5.7997,-5.7997,-5.7997,-5.7997,-5.7997,-5.7997,-5.7997,-5.7997,-5.7997,-5.7997,-5.7997,-5.7997,-5.7997,-5.7997,-5.7997,-5.7997,-5.7997,-5.7997,-5.7997,-5.7997,-5.7997,-5.7997,-5.7973,-5.7594,-5.7642,-5.7973,-5.7594,-5.7679,-5.7997,-5.7997,-5.7997,-5.7997,-5.7997,-5.7997,-5.7997,-6.278,-6.278,-6.278,-6.278,-6.278,-6.278,-6.278,-6.278,-6.278,-6.278,-6.278,-6.278,-6.278,-6.278,-6.278,-6.278,-6.278,-6.278,-6.278,-6.278,-6.278,-6.278,-6.278,-6.278,-6.278,-6.278,-6.278,-6.278,-6.278,-6.278,-6.278,-6.278,-6.278,-6.278,-6.278,-6.278,-6.278,-6.278,-6.278,-6.278,-6.278,-6.278,-6.278,-6.278,-6.278,-6.278,-6.278,-6.278,-6.278,-6.278,-6.278,-6.278,-6.278,-6.278,-6.278,-6.278,-6.278,-6.278,-6.278,-6.278,-6.2695,-6.2108,-6.1777,-6.13,-6.0236,-5.9551,-5.9038,-5.851,-5.818,-5.7997,-5.7997,-5.7997,-5.7997,-5.7997,-5.7997,-5.7997,-5.7997,-5.7997,-5.7997,-5.7997,-5.7997,-5.7997,-5.7997,-5.7997,-5.7997,-5.7997,-5.7997,-5.7997,-5.7997,-5.7997,-5.7997,-5.7997,-5.7997,-5.7997,-5.7997,-5.7997,-5.7997,-5.7997,-5.7997,-5.7997,-5.7997,-5.7997,-5.7997,-5.7973,-5.7546,-5.7498,-5.7703,-5.7266,-5.7315,-5.7726,-5.7726,-5.7821,-5.7997,-5.7997,-5.7997,-5.7997,-6.278,-6.278,-6.278,-6.278,-6.278,-6.278,-6.278,-6.278,-6.278,-6.278,-6.278,-6.278,-6.278,-6.278,-6.278,-6.278,-6.278,-6.278,-6.278,-6.278,-6.278,-6.278,-6.278,-6.278,-6.278,-6.278,-6.278,-6.278,-6.278,-6.278,-6.278,-6.278,-6.278,-6.278,-6.278,-6.278,-6.278,-6.278,-6.278,-6.278,-6.278,-6.278,-6.278,-6.278,-6.278,-6.278,-6.278,-6.278,-6.278,-6.278,-6.278,-6.278,-6.278,-6.278,-6.278,-6.278,-6.278,-6.278,-6.278,-6.278,-6.278,-6.278,-6.2218,-6.1594,-6.1594,-6.0382,-5.9221,-5.9184,-5.8584,-5.7997,-5.7997,-5.7997,-5.7997,-5.7997,-5.7997,-5.7997,-5.7997,-5.7997,-5.7997,-5.7997,-5.7997,-5.7997,-5.7997,-5.7997,-5.7997,-5.7997,-5.7997,-5.7997,-5.7997,-5.7997,-5.7997,-5.7997,-5.7997,-5.7997,-5.7997,-5.7997,-5.7997,-5.7997,-5.7997,-5.7997,-5.7997,-5.7997,-5.7997,-5.7997,-5.7997,-5.7642,-5.7116,-5.7091,-5.7091,-5.7116,-5.7091,-5.7474,-5.7997,-5.7997,-5.7997,-5.7997,-6.278,-6.278,-6.278,-6.278,-6.278,-6.278,-6.278,-6.278,-6.278,-6.278,-6.278,-6.278,-6.278,-6.278,-6.278,-6.278,-6.278,-6.278,-6.278,-6.278,-6.278,-6.278,-6.278,-6.278,-6.278,-6.278,-6.278,-6.278,-6.278,-6.278,-6.278,-6.278,-6.278,-6.278,-6.278,-6.278,-6.278,-6.278,-6.278,-6.278,-6.278,-6.278,-6.278,-6.278,-6.278,-6.278,-6.278,-6.278,-6.278,-6.278,-6.278,-6.278,-6.278,-6.278,-6.278,-6.278,-6.278,-6.278,-6.278,-6.278,-6.278,-6.278,-6.2622,-6.2291,-6.1741,-6.1227,-6.0713,-6.0162,-5.9391,-5.8841,-5.8841,-5.84,-5.7997,-5.7997,-5.7997,-5.7997,-5.7997,-5.7997,-5.7997,-5.7997,-5.7997,-5.7997,-5.7997,-5.7997,-5.7997,-5.7997,-5.7997,-5.7997,-5.7997,-5.7997,-5.7997,-5.7997,-5.7997,-5.7997,-5.7997,-5.7997,-5.7997,-5.7997,-5.7997,-5.7997,-5.7997,-5.7997,-5.7997,-5.7973,-5.7546,-5.7266,-5.7065,-5.6704,-5.6783,-5.7065,-5.6704,-5.6887,-5.7315,-5.6938,-5.6809,-5.6809,-6.278,-6.278,-6.278,-6.278,-6.278,-6.278,-6.278,-6.278,-6.278,-6.278,-6.278,-6.278,-6.278,-6.278,-6.278,-6.278,-6.278,-6.278,-6.278,-6.278,-6.278,-6.278,-6.278,-6.278,-6.278,-6.278,-6.278,-6.278,-6.278,-6.278,-6.278,-6.278,-6.278,-6.278,-6.278,-6.278,-6.278,-6.278,-6.278,-6.278,-6.278,-6.278,-6.278,-6.278,-6.278,-6.278,-6.278,-6.278,-6.278,-6.278,-6.278,-6.278,-6.278,-6.278,-6.278,-6.278,-6.278,-6.278,-6.278,-6.278,-6.278,-6.278,-6.278,-6.267,-6.2181,-6.1814,-6.1447,-6.097,-6.0236,-5.9661,-5.9661,-5.9281,-5.8841,-5.8547,-5.8474,-5.8364,-5.8033,-5.8253,-5.8474,-5.8474,-5.8767,-5.8951,-5.8951,-5.8951,-5.8951,-5.8951,-5.8951,-5.8951,-5.8951,-5.8951,-5.8951,-5.8951,-5.8951,-5.8804,-5.8474,-5.8474,-5.8327,-5.7997,-5.7997,-5.7997,-5.7997,-5.7997,-5.7997,-5.7973,-5.7594,-5.7315,-5.7065,-5.6519,-5.6625,-5.704,-5.6248,-5.6438,-5.704,-5.6519,-5.6303,-5.6303,-6.278,-6.278,-6.278,-6.278,-6.278,-6.278,-6.278,-6.278,-6.278,-6.278,-6.278,-6.278,-6.278,-6.278,-6.278,-6.278,-6.278,-6.278,-6.278,-6.278,-6.278,-6.278,-6.278,-6.278,-6.278,-6.278,-6.278,-6.278,-6.278,-6.278,-6.278,-6.278,-6.278,-6.278,-6.278,-6.278,-6.278,-6.278,-6.278,-6.278,-6.278,-6.278,-6.278,-6.278,-6.278,-6.278,-6.278,-6.278,-6.278,-6.278,-6.278,-6.278,-6.278,-6.278,-6.278,-6.278,-6.278,-6.278,-6.278,-6.278,-6.278,-6.278,-6.278,-6.278,-6.278,-6.2218,-6.1704,-6.1704,-6.108,-6.0529,-6.0529,-6.0456,-6.0162,-5.9404,-5.9294,-5.9038,-5.8327,-5.8841,-5.9294,-5.9294,-5.9942,-6.0419,-6.0419,-6.0419,-6.0419,-6.0419,-6.0419,-6.0419,-6.0419,-6.0419,-6.0419,-6.0419,-6.0419,-6.0052,-5.9294,-5.9294,-5.8877,-5.7997,-5.7997,-5.7997,-5.7997,-5.7997,-5.7997,-5.7997,-5.7997,-5.7679,-5.7065,-5.6519,-5.6625,-5.6989,-5.5872,-5.6098,-5.7072,-5.6536,-5.6352,-5.6352,-6.278,-6.278,-6.278,-6.278,-6.278,-6.278,-6.278,-6.278,-6.278,-6.278,-6.278,-6.278,-6.278,-6.278,-6.278,-6.278,-6.278,-6.278,-6.278,-6.278,-6.278,-6.278,-6.278,-6.278,-6.278,-6.278,-6.278,-6.278,-6.278,-6.278,-6.278,-6.278,-6.278,-6.278,-6.278,-6.278,-6.278,-6.278,-6.278,-6.278,-6.278,-6.278,-6.278,-6.278,-6.278,-6.278,-6.278,-6.278,-6.278,-6.278,-6.278,-6.278,-6.278,-6.278,-6.278,-6.278,-6.278,-6.278,-6.278,-6.278,-6.278,-6.278,-6.278,-6.278,-6.278,-6.2695,-6.2548,-6.2548,-6.1887,-6.1337,-6.1337,-6.0823,-6.0346,-6.0162,-6.0162,-6.0089,-5.9905,-6.0052,-6.0162,-6.0162,-6.0309,-6.0419,-6.0419,-6.0419,-6.0419,-6.0419,-6.0419,-6.0419,-6.0419,-6.0419,-6.0419,-6.0419,-6.0419,-6.0309,-6.0162,-6.0162,-5.9428,-5.7997,-5.7997,-5.7997,-5.7997,-5.7997,-5.7997,-5.7997,-5.7997,-5.7679,-5.7065,-5.6519,-5.6625,-5.7,-5.5974,-5.628,-5.7303,-5.683,-5.6703,-5.6599,-6.278,-6.278,-6.278,-6.278,-6.278,-6.278,-6.278,-6.278,-6.278,-6.278,-6.278,-6.278,-6.278,-6.278,-6.278,-6.278,-6.278,-6.278,-6.278,-6.278,-6.278,-6.278,-6.278,-6.278,-6.278,-6.278,-6.278,-6.278,-6.278,-6.278,-6.278,-6.278,-6.278,-6.278,-6.278,-6.278,-6.278,-6.278,-6.278,-6.278,-6.278,-6.278,-6.278,-6.278,-6.278,-6.278,-6.278,-6.278,-6.278,-6.278,-6.278,-6.278,-6.278,-6.278,-6.278,-6.278,-6.278,-6.278,-6.278,-6.278,-6.278,-6.278,-6.278,-6.278,-6.278,-6.278,-6.278,-6.278,-6.2475,-6.2181,-6.2181,-6.1851,-6.141,-6.1043,-6.097,-6.086,-6.0456,-6.075,-6.097,-6.097,-6.13,-6.1557,-6.1557,-6.1557,-6.1557,-6.1557,-6.1557,-6.1557,-6.1557,-6.1557,-6.1557,-6.1557,-6.1557,-6.1374,-6.097,-6.097,-6.0225,-5.8713,-5.8713,-5.8495,-5.8154,-5.813,-5.7789,-5.7202,-5.7449,-5.7434,-5.7191,-5.6616,-5.6942,-5.7693,-5.6912,-5.6965,-5.7541,-5.7666,-5.7503,-5.7121,-6.278,-6.278,-6.278,-6.278,-6.278,-6.278,-6.278,-6.278,-6.278,-6.278,-6.278,-6.278,-6.278,-6.278,-6.278,-6.278,-6.278,-6.278,-6.278,-6.278,-6.278,-6.278,-6.278,-6.278,-6.278,-6.278,-6.278,-6.278,-6.278,-6.278,-6.278,-6.278,-6.278,-6.278,-6.278,-6.278,-6.278,-6.278,-6.278,-6.278,-6.278,-6.278,-6.278,-6.278,-6.278,-6.278,-6.278,-6.278,-6.278,-6.278,-6.278,-6.278,-6.278,-6.278,-6.278,-6.278,-6.278,-6.278,-6.278,-6.278,-6.278,-6.278,-6.278,-6.278,-6.278,-6.278,-6.278,-6.278,-6.278,-6.278,-6.278,-6.278,-6.2585,-6.1924,-6.1814,-6.1557,-6.0896,-6.1374,-6.1814,-6.1814,-6.2401,-6.278,-6.278,-6.278,-6.278,-6.278,-6.278,-6.278,-6.278,-6.278,-6.278,-6.278,-6.278,-6.2425,-6.1654,-6.1654,-6.1011,-5.9745,-5.9637,-5.9132,-5.8336,-5.8346,-5.7747,-5.6696,-5.7153,-5.7433,-5.7519,-5.694,-5.7417,-5.8423,-5.7947,-5.7802,-5.7961,-5.8515,-5.836,-5.7802,-6.278,-6.278,-6.278,-6.278,-6.278,-6.278,-6.278,-6.278,-6.278,-6.278,-6.278,-6.278,-6.278,-6.278,-6.278,-6.278,-6.278,-6.278,-6.278,-6.278,-6.278,-6.278,-6.278,-6.278,-6.278,-6.278,-6.278,-6.278,-6.278,-6.278,-6.278,-6.278,-6.278,-6.278,-6.278,-6.278,-6.278,-6.278,-6.278,-6.278,-6.278,-6.278,-6.278,-6.278,-6.278,-6.278,-6.278,-6.278,-6.278,-6.278,-6.278,-6.278,-6.278,-6.278,-6.278,-6.278,-6.278,-6.278,-6.278,-6.278,-6.278,-6.278,-6.278,-6.278,-6.278,-6.278,-6.278,-6.278,-6.278,-6.278,-6.278,-6.278,-6.2743,-6.2658,-6.2658,-6.2622,-6.2511,-6.2585,-6.2658,-6.2658,-6.2732,-6.278,-6.278,-6.278,-6.278,-6.278,-6.278,-6.278,-6.278,-6.278,-6.278,-6.278,-6.278,-6.2504,-6.1887,-6.186,-6.1479,-6.0711,-6.018,-5.9436,-5.8445,-5.8481,-5.8381,-5.8189,-5.8274,-5.8345,-5.831,-5.7756,-5.7912,-5.8465,-5.8046,-5.8196,-5.8678,-5.8894,-5.8851,-5.8577,-6.278,-6.278,-6.278,-6.278,-6.278,-6.278,-6.278,-6.278,-6.278,-6.278,-6.278,-6.278,-6.278,-6.278,-6.278,-6.278,-6.278,-6.278,-6.278,-6.278,-6.278,-6.278,-6.278,-6.278,-6.278,-6.278,-6.278,-6.278,-6.278,-6.278,-6.278,-6.278,-6.278,-6.278,-6.278,-6.278,-6.278,-6.278,-6.278,-6.278,-6.278,-6.278,-6.278,-6.278,-6.278,-6.278,-6.278,-6.278,-6.278,-6.278,-6.278,-6.278,-6.278,-6.278,-6.278,-6.278,-6.278,-6.278,-6.278,-6.278,-6.278,-6.278,-6.278,-6.278,-6.278,-6.278,-6.278,-6.278,-6.278,-6.278,-6.278,-6.278,-6.278,-6.278,-6.278,-6.278,-6.278,-6.278,-6.278,-6.278,-6.278,-6.278,-6.278,-6.278,-6.278,-6.278,-6.278,-6.278,-6.278,-6.278,-6.278,-6.278,-6.2464,-6.2166,-6.1897,-6.1528,-6.1003,-6.0406,-6.0129,-5.9566,-5.8714,-5.8683,-5.829,-5.7565,-5.7897,-5.8083,-5.8164,-5.7913,-5.8189,-5.8797,-5.902,-5.9443,-5.988,-5.9245,-5.9208,-5.9383]},{"header":{"parameterUnit":"m.s-1","parameterCategory":1,"la1":30.6,"la2":28.766,"lo1":-90.7593,"lo2":-88.6598,"dy":0.0162,"dx":0.0183,"nx":116,"ny":114,"refTime":"2024-05-02T12:00:00:Z","depth":0,"parameterNumber":3,"parameterNumberName":"V-component_of_WINDS"},"data":[0.0,0.0,0.0,0.0,0.0,0.0,0.0,0.0,0.0,0.0,0.0,0.0,0.0,0.0,0.0,0.0,0.0,0.0,0.0,0.0,0.0,0.0,0.0,0.0,0.0,0.0,0.0,0.0,0.0,0.0,0.0,0.0,0.0,0.0,0.0,0.0,0.0,0.0,0.0,0.0,0.0,0.0,0.0,0.0,0.0,0.0,0.0,0.0,0.0,0.0,0.0,0.0,0.0,0.0,0.0,0.0,0.0,0.0,0.0,0.0,0.0,0.0,0.0,0.0,0.0,0.0,0.0,0.0,0.0,0.0,0.0,0.0,0.0,0.0,0.0,0.0,0.0,0.0,0.0,0.0,0.0,0.0,0.0,0.0,0.0,0.0,0.0,0.0,0.0,0.0,0.0,0.0,0.0,0.0,0.0,0.0,0.0,0.0,0.0,0.0,0.0,0.0,0.0,0.0,0.0,0.0,0.0,0.0,0.0,0.0,0.0,0.0,0.0,0.0,0.0,0.0,0.0,0.0,0.0,0.0,0.0,0.0,0.0,0.0,0.0,0.0,0.0,0.0,0.0,0.0,0.0,0.0,0.0,0.0,0.0,0.0,0.0,0.0,0.0,0.0,0.0,0.0,0.0,0.0,0.0,0.0,0.0,0.0,0.0,0.0,0.0,0.0,0.0,0.0,0.0,0.0,0.0,0.0,0.0,0.0,0.0,0.0,0.0,0.0,0.0,0.0,0.0,0.0,0.0,0.0,0.0,0.0,0.0,0.0,0.0,0.0,0.0,0.0,0.0,0.0,0.0,0.0,0.0,0.0,0.0,0.0,0.0,0.0,0.0,0.0,0.0,0.0,0.0,0.0,0.0,0.0,0.0,0.0,0.0,0.0,0.0,0.0,0.0,0.0,0.0,0.0,0.0,0.0,0.0,0.0,0.0,0.0,0.0,0.0,0.0,0.0,0.0,0.0,0.0,0.0,0.0,0.0,0.0,0.0,0.0,0.0,0.0,0.0,0.0,0.0,0.0,0.0,0.0,0.0,0.0,0.0,0.0,0.0,0.0,0.0,0.0,0.0,0.0,0.0,0.0,0.0,0.0,0.0,0.0,0.0,0.0,0.0,0.0,0.0,0.0,0.0,0.0,0.0,0.0,0.0,0.0,0.0,0.0,0.0,0.0,0.0,0.0,0.0,0.0,0.0,0.0,0.0,0.0,0.0,0.0,0.0,0.0,0.0,0.0,0.0,0.0,0.0,0.0,0.0,0.0,0.0,0.0,0.0,0.0,0.0,0.0,0.0,0.0,0.0,0.0,0.0,0.0,0.0,0.0,0.0,0.0,0.0,0.0,0.0,0.0,0.0,0.0,0.0,0.0,0.0,0.0,0.0,0.0,0.0,0.0,0.0,0.0,0.0,0.0,0.0,0.0,0.0,0.0,0.0,0.0,0.0,0.0,0.0,0.0,0.0,0.0,0.0,0.0,0.0,0.0,0.0,0.0,0.0,0.0,0.0,0.0,0.0,0.0,0.0,0.0,0.0,0.0,0.0,0.0,0.0,0.0,0.0,0.0,0.0,0.0,0.0,0.0,0.0,0.0,0.0,0.0,0.0,0.0,0.0,0.0,0.0,0.0,0.0,0.0,0.0,0.0,0.0,0.0,0.0,0.0,0.0,0.0,0.0,0.0,0.0,0.0,0.0,0.0,0.0,0.0,0.0,0.0,0.0,0.0,0.0,0.0,0.0,0.0,0.0,0.0,0.0,0.0,0.0,0.0,0.0,0.0,0.0,0.0,0.0,0.0,0.0,0.0,0.0,0.0,0.0,0.0,0.0,0.0,0.0,0.0,0.0,0.0,0.0,0.0,0.0,0.0,0.0,0.0,0.0,0.0,0.0,0.0,0.0,0.0,0.0,0.0,0.0,0.0,0.0,0.0,0.0,0.0,0.0,0.0,0.0,0.0,0.0,0.0,0.0,0.0,0.0,0.0,0.0,0.0,0.0,0.0,0.0,0.0,0.0,0.0,0.0,0.0,0.0,0.0,0.0,0.0,0.0,0.0,0.0,0.0,0.0,0.0,0.0,0.0,0.0,0.0,0.0,0.0,0.0,0.0,0.0,0.0,0.0,0.0,0.0,0.0,0.0,0.0,0.0,0.0,0.0,0.0,0.0,0.0,0.0,0.0,0.0,0.0,0.0,0.0,0.0,0.0,0.0,0.0,0.0,0.0,0.0,0.0,0.0,0.0,0.0,0.0,0.0,0.0,0.0,0.0,0.0,0.0,0.0,0.0,0.0,0.0,0.0,0.0,0.0,0.0,0.0,0.0,0.0,0.0,0.0,0.0,0.0,0.0,0.0,0.0,0.0,0.0,0.0,0.0,0.0,0.0,0.0,0.0,0.0,0.0,0.0,0.0,0.0,0.0,0.0,0.0,0.0,0.0,0.0,0.0,0.0,0.0,0.0,0.0,0.0,0.0,0.0,0.0,0.0,0.0,0.0,0.0,0.0,0.0,0.0,0.0,0.0,0.0,0.0,0.0,0.0,0.0,0.0,0.0,0.0,0.0,0.0,0.0,0.0,0.0,0.0,0.0,0.0,0.0,0.0,0.0,0.0,0.0,0.0,0.0,0.0,0.0,0.0,0.0,0.0,0.0,0.0,0.0,0.0,0.0,0.0,0.0,0.0,0.0,0.0,0.0,0.0,0.0,0.0,0.0,0.0,0.0,0.0,0.0,0.0,0.0,0.0,0.0,0.0,0.0,0.0,0.0,0.0,0.0,0.0,0.0,0.0,0.0,0.0,0.0,0.0,0.0,0.0,0.0,0.0,0.0,0.0,0.0,0.0,0.0,0.0,0.0,0.0,0.0,0.0,0.0,0.0,0.0,0.0,0.0,0.0,0.0,0.0,0.0,0.0,0.0,0.0,0.0,0.0,0.0,0.0,0.0,0.0,0.0,0.0,0.0,0.0,0.0,0.0,0.0,0.0,0.0,0.0,0.0,0.0,0.0,0.0,0.0,0.0,0.0,0.0,0.0,0.0,0.0,0.0,0.0,0.0,0.0,0.0,0.0,0.0,0.0,0.0,0.0,0.0,0.0,0.0,0.0,0.0,0.0,0.0,0.0,0.0,0.0,0.0,0.0,0.0,0.0,0.0,0.0,0.0,0.0,0.0,0.0,0.0,0.0,0.0,0.0,0.0,0.0,0.0,0.0,0.0,0.0,0.0,0.0,0.0,0.0,0.0,0.0,0.0,0.0,0.0,0.0,0.0,0.0,0.0,0.0,0.0,0.0,0.0,0.0,0.0,0.0,0.0,0.0,0.0,0.0,0.0,0.0,0.0,0.0,0.0,0.0,0.0,0.0,0.0,0.0,0.0,0.0,0.0,0.0,0.0,0.0,0.0,0.0,0.0,0.0,0.0,0.0,0.0,0.0,0.0,0.0,0.0,0.0,0.0,0.0,0.0,0.0,0.0,0.0,0.0,0.0,0.0,0.0,0.0,0.0,0.0,0.0,0.0,0.0,0.0,0.0,0.0,0.0,0.0,0.0,0.0,0.0,0.0,0.0,0.0,0.0,0.0,0.0,0.0,0.0,0.0,0.0,0.0,0.0,0.0,0.0,0.0,0.0,0.0,0.0,0.0,0.0,0.0,0.0,0.0,0.0,0.0,0.0,0.0,0.0,0.0,0.0,0.0,0.0,0.0,0.0,0.0,0.0,0.0,0.0,0.0,0.0,0.0,0.0,0.0,0.0,0.0,0.0,0.0,0.0,0.0,0.0,0.0,0.0,0.0,0.0,0.0,0.0,0.0,0.0,0.0,0.0,0.0,0.0,0.0,0.0,0.0,0.0,0.0,0.0,0.0,0.0,0.0,0.0,0.0,0.0,0.0,0.0,0.0,0.0,0.0,0.0,0.0,0.0,0.0,0.0,0.0,0.0,0.0,0.0,0.0,0.0,0.0,0.0,0.0,0.0,0.0,0.0,0.0,0.0,0.0,0.0,0.0,0.0,0.0,0.0,0.0,0.0,0.0,0.0,0.0,0.0,0.0,0.0,0.0,0.0,0.0,0.0,0.0,0.0,0.0,0.0,0.0,0.0,0.0,0.0,0.0,0.0,0.0,0.0,0.0,0.0,0.0,0.0,0.0,0.0,0.0,0.0,0.0,0.0,0.0,0.0,0.0,0.0,0.0,0.0,0.0,0.0,0.0,0.0,0.0,0.0,0.0,0.0,0.0,0.0,0.0,0.0,0.0,0.0,0.0,0.0,0.0,0.0,0.0,0.0,0.0,0.0,0.0,0.0,0.0,0.0,0.0,0.0,0.0,0.0,0.0,0.0,0.0,0.0,0.0,0.0,0.0,0.0,0.0,0.0,0.0,0.0,0.0,0.0,0.0,0.0,0.0,0.0,0.0,0.0,0.0,0.0,0.0,0.0,0.0,0.0,0.0,0.0,0.0,0.0,0.0,0.0,0.0,0.0,0.0,0.0,0.0,0.0,0.0,0.0,0.0,0.0,0.0,0.0,0.0,0.0,0.0,0.0,0.0,0.0,0.0,0.0,0.0,0.0,0.0,0.0,0.0,0.0,0.0,0.0,0.0,0.0,0.0,0.0,0.0,0.0,0.0,0.0,0.0,0.0,0.0,0.0,0.0,0.0,0.0,0.0,0.0,0.0,0.0,0.0,0.0,0.0,0.0,0.0,0.0,0.0,0.0,0.0,0.0,0.0,0.0,0.0,0.0,0.0,0.0,0.0,0.0,0.0,0.0,0.0,0.0,0.0,0.0,0.0,0.0,0.0,0.0,0.0,0.0,0.0,0.0,0.0,0.0,0.0,0.0,0.0,0.0,0.0,0.0,0.0,0.0,0.0,0.0,0.0,0.0,0.0,0.0,0.0,0.0,0.0,0.0,0.0,0.0,0.0,0.0,0.0,0.0,0.0,0.0,0.0,0.0,0.0,0.0,0.0,0.0,0.0,0.0,0.0,0.0,0.0,0.0,0.0,0.0,0.0,0.0,0.0,0.0,0.0,0.0,0.0,0.0,0.0,0.0,0.0,0.0,0.0,0.0,0.0,0.0,0.0,0.0,0.0,0.0,0.0,0.0,0.0,0.0,0.0,0.0,0.0,0.0,0.0,0.0,0.0,0.0,0.0,0.0,0.0,0.0,0.0,0.0,0.0,0.0,0.0,0.0,0.0,0.0,0.0,0.0,0.0,0.0,0.0,0.0,0.0,0.0,0.0,0.0,0.0,0.0,0.0,0.0,0.0,0.0,0.0,0.0,0.0,0.0,0.0,0.0,0.0,0.0,0.0,0.0,0.0,0.0,0.0,0.0,0.0,0.0,0.0,0.0,0.0,0.0,0.0,0.0,0.0,0.0,0.0,0.0,0.0,0.0,0.0,0.0,0.0,0.0,0.0,0.0,0.0,0.0,0.0,0.0,0.0,0.0,0.0,0.0,0.0,0.0,0.0,0.0,0.0,0.0,0.0,0.0,0.0,0.0,0.0,0.0,0.0,0.0,0.0,0.0,0.0,0.0,0.0,0.0,0.0,0.0,0.0,0.0,0.0,0.0,0.0,0.0,0.0,0.0,0.0,0.0,0.0,0.0,0.0,0.0,0.0,0.0,0.0,0.0,0.0,0.0,0.0,0.0,0.0,0.0,0.0,0.0,0.0,0.0,0.0,0.0,0.0,0.0,0.0,0.0,0.0,0.0,0.0,0.0,0.0,0.0,0.0,0.0,0.0,0.0,0.0,0.0,0.0,0.0,0.0,0.0,0.0,0.0,0.0,0.0,0.0,0.0,0.0,0.0,0.0,0.0,0.0,0.0,0.0,0.0,0.0,0.0,0.0,0.0,0.0,0.0,0.0,0.0,0.0,0.0,0.0,0.0,0.0,0.0,0.0,0.0,0.0,0.0,0.0,0.0,0.0,0.0,0.0,0.0,0.0,0.0,0.0,0.0,0.0,0.0,0.0,0.0,0.0,0.0,0.0,0.0,0.0,0.0,0.0,0.0,0.0,0.0,0.0,0.0,0.0,0.0,0.0,0.0,0.0,0.0,0.0,0.0,0.0,0.0,0.0,0.0,0.0,0.0,0.0,0.0,0.0,0.0,0.0,0.0,0.4117,0.2888,0.0,0.0,0.0,0.0,0.0,0.0,0.0,0.0,0.0,0.0,0.0,0.0,0.0,0.0,0.0,0.0,0.0,0.0,0.0,0.0,0.0,0.0,0.0,0.859,0.859,0.859,0.859,0.859,0.859,0.0,0.0,0.0,0.0,0.0,0.859,0.9123,0.9256,0.8851,0.905,0.905,0.8851,0.8851,0.8784,0.8584,0.0,0.0,0.0,0.0,0.0,0.0,0.0,0.0,0.0,0.0,0.0,0.0,0.0,0.0,0.0,0.0,0.0,0.0,0.0,0.0,0.0,0.0,0.0,0.0,0.0,0.0,0.0,0.0,0.0,0.0,0.0,0.0,0.0,0.0,0.0,0.0,0.0,0.0,0.0,0.0,0.0,0.0,0.0,0.0,0.0,0.0,0.0,0.0,0.0,0.0,0.0,0.0,0.0,0.0,0.0,0.0,0.0,0.0,0.0,0.0,0.0,0.0,0.0,0.0,0.0,0.0,0.0,0.0,0.0,0.0,0.5848,0.5028,0.0,0.0,0.0,0.0,0.0,0.0,0.0,0.0,0.0,0.0,0.0,0.0,0.0,0.0,0.0,0.0,0.0,0.0,0.0,0.0,0.0,0.859,0.859,0.859,0.859,0.859,0.859,0.859,0.859,0.859,0.0,0.0,0.8656,0.8717,0.8717,0.905,0.9117,0.8856,0.9183,0.9117,0.879,0.9056,0.905,0.8651,0.8651,0.0,0.0,0.0,0.0,0.0,0.0,0.0,0.0,0.0,0.0,0.0,0.0,0.0,0.0,0.0,0.0,0.0,0.0,0.0,0.0,0.0,0.0,0.0,0.0,0.0,0.0,0.0,0.0,0.0,0.0,0.0,0.0,0.0,0.0,0.0,0.0,0.0,0.0,0.0,0.0,0.0,0.0,0.0,0.0,0.0,0.0,0.0,0.0,0.0,0.0,0.0,0.0,0.0,0.0,0.0,0.0,0.0,0.0,0.0,0.0,0.0,0.0,0.0,0.7036,0.7169,0.7169,0.7169,0.7836,0.8906,0.7702,0.7498,0.803,0.6769,0.0,0.0,0.0,0.0,0.0,0.0,0.0,0.0,0.0,0.0,0.0,0.0,0.0,0.0,0.0,0.0,0.0,0.0,0.0,0.859,0.859,0.859,0.859,0.859,0.859,0.859,0.859,0.859,0.859,0.859,0.8851,0.905,0.905,0.9389,0.9728,0.9994,1.006,0.9861,0.9528,0.9594,0.9389,0.905,0.8717,0.859,0.859,0.0,0.0,0.0,0.0,0.0,0.0,0.0,0.0,0.0,0.0,0.0,0.0,0.0,0.0,0.0,0.0,0.0,0.0,0.0,0.0,0.0,0.0,0.0,0.0,0.0,0.0,0.0,0.0,0.0,0.0,0.0,0.0,0.0,0.0,0.0,0.0,0.0,0.0,0.0,0.0,0.0,1.0717,1.0717,0.0,0.0,0.0,0.0,0.0,0.0,0.0,0.0,0.0,0.0,0.0,0.0,0.0,0.7031,0.8307,0.8307,0.8307,0.8307,0.9576,1.0114,1.0114,1.0114,1.0246,1.0386,1.0253,0.0,0.8507,0.7969,0.0,0.0,0.0,0.0,0.0,0.0,0.0,0.0,0.0,0.0,0.0,0.0,0.0,0.0,0.0,0.0,0.0,0.0,0.0,0.0,0.0,0.859,0.859,0.859,0.859,0.859,0.859,0.859,0.859,0.859,0.8717,0.8784,0.8784,0.9189,0.9486,0.9742,1.0005,0.9829,0.9429,0.9624,0.9494,0.9163,0.8779,0.8656,0.859,0.859,0.0,0.0,0.0,0.0,0.0,0.0,0.0,0.0,0.0,0.0,0.0,0.0,0.0,0.0,0.0,0.0,0.0,0.0,0.0,0.0,0.0,0.0,0.0,0.0,0.0,0.0,0.0,0.0,0.0,0.0,0.0,0.0,0.0,0.0,0.0,0.0,0.0,0.0,0.0,1.0717,1.0717,1.0717,1.0717,1.0717,0.0,0.0,0.0,0.0,0.0,0.0,0.0,0.0,0.0,1.0651,0.9443,0.9111,0.9782,0.9782,0.9782,0.9782,1.0386,1.0717,1.0717,1.0717,1.0717,1.0717,1.0717,1.034,0.967,0.9546,0.8706,0.7441,0.0,0.0,0.0,0.0,0.7153,0.6613,0.0,0.0,0.0,0.0,0.0,0.0,0.0,0.0,0.0,0.0,0.0,0.0,0.859,0.859,0.859,0.859,0.859,0.859,0.859,0.859,0.859,0.859,0.8623,0.8739,0.8806,0.9174,0.9437,0.9463,0.9857,0.9864,0.9506,0.9761,0.9697,0.9309,0.8997,0.8798,0.8673,0.8612,0.8562,0.859,0.0,0.0,0.0,0.0,0.0,0.0,0.0,0.0,0.0,0.0,0.0,0.0,0.0,0.0,0.0,0.0,0.0,0.0,0.0,0.0,0.0,0.0,0.0,0.0,0.0,0.0,0.0,0.0,0.0,0.0,0.0,0.0,0.0,0.0,0.0,0.0,0.0,1.0717,1.0717,1.0717,1.0717,1.0717,0.0,0.0,0.0,0.0,0.0,0.0,1.0717,1.0717,1.0717,1.0717,1.0717,1.0717,1.0717,1.0717,1.0717,1.0717,1.0717,1.0717,1.0717,1.0717,1.0717,1.0717,1.0717,1.0656,1.0555,1.0629,1.0037,0.9144,0.9946,0.8887,0.7219,0.898,0.8939,0.8269,0.0,0.0,0.0,0.0,0.0,0.0,0.0,0.0,0.0,0.0,0.0,0.859,0.859,0.859,0.859,0.859,0.859,0.859,0.859,0.859,0.859,0.859,0.881,0.9009,0.9335,0.9922,1.0035,0.9704,1.0092,1.0283,1.0276,1.0276,1.0086,0.9691,0.9379,0.9138,0.8878,0.8557,0.8486,0.859,0.859,0.0,0.0,0.0,0.0,0.0,0.0,0.0,0.0,0.0,0.0,0.0,0.0,0.0,0.0,0.0,0.0,0.0,0.0,0.0,0.0,0.0,0.0,0.0,0.0,0.0,0.0,0.0,0.0,0.0,0.0,0.0,0.0,0.0,0.0,0.0,0.0,0.0,0.0,1.0717,1.0717,0.0,0.0,0.0,0.0,1.0717,1.0717,1.0717,1.0717,1.0717,1.0717,1.0717,1.0717,1.0717,1.0717,1.0717,1.0717,1.0717,1.0717,1.0717,1.0717,1.0717,1.0717,1.0717,1.0717,1.0717,1.0697,1.0561,1.0361,1.024,1.0304,1.024,1.0106,1.0226,1.0226,1.0163,0.0,0.0,0.0,0.0,0.0,0.859,0.859,0.859,0.859,0.859,0.859,0.859,0.859,0.859,0.859,0.859,0.859,0.859,0.859,0.859,0.8684,0.881,0.883,0.9092,0.9575,0.9787,0.9906,0.9876,1.0065,1.008,0.9985,0.9985,0.9923,0.9731,0.9422,0.9193,0.8955,0.8461,0.8323,0.8367,0.8448,0.8481,0.0,0.0,0.0,0.0,0.0,0.0,0.0,0.0,0.0,0.0,0.0,0.0,0.0,0.0,0.0,0.0,0.0,0.0,0.0,0.0,0.0,0.0,0.0,0.0,0.0,0.0,0.0,0.0,0.0,0.0,0.0,0.0,0.0,0.0,0.0,0.0,0.0,1.138,1.138,0.0,1.138,1.138,1.1314,1.1049,1.1049,1.0916,1.0717,1.0717,1.0717,1.0717,1.0717,1.0717,1.0717,1.0717,1.0717,1.0717,1.0717,1.0717,1.0717,1.0717,1.0717,1.0717,1.0717,1.0663,1.0568,1.0514,1.046,1.0405,1.0317,1.0283,1.027,1.0168,1.0134,1.0114,0.0,0.0,0.0,0.859,0.859,0.859,0.859,0.859,0.859,0.859,0.859,0.859,0.859,0.859,0.859,0.859,0.859,0.859,0.859,0.8552,0.8563,0.8748,0.8857,0.9194,0.9738,0.9738,0.9817,0.9909,0.9909,0.9862,0.9822,0.9822,0.9822,0.9761,0.9457,0.9148,0.8933,0.846,0.8223,0.8178,0.8323,0.8383,0.8426,0.0,0.0,0.0,0.0,0.0,0.0,0.0,0.0,0.0,0.0,0.0,0.0,0.0,0.0,0.0,0.0,0.0,0.0,0.0,0.0,0.0,0.0,0.0,0.0,0.0,0.0,0.0,0.0,0.0,0.0,0.0,0.0,0.0,0.0,1.1776,1.1776,1.1776,1.1776,1.1776,1.1776,1.1776,1.171,1.1446,1.1247,1.1115,1.085,1.0772,1.0799,1.0799,1.0846,1.0867,1.0867,1.0867,1.0867,1.0867,1.0819,1.0799,1.0799,1.0744,1.0717,1.0717,1.0717,1.0663,1.0568,1.0514,1.0493,1.048,1.0337,1.0249,1.0188,1.0024,0.9957,0.9896,0.0,0.859,0.859,0.859,0.859,0.859,0.859,0.859,0.859,0.859,0.859,0.859,0.859,0.859,0.859,0.859,0.859,0.859,0.859,0.8481,0.8416,0.8405,0.8816,0.9236,0.9761,0.9822,0.9822,0.9822,0.9822,0.9822,0.9822,0.9822,0.9822,0.9761,0.9457,0.9153,0.8915,0.8549,0.8324,0.8225,0.8231,0.8301,0.847,0.0,0.0,0.0,0.0,0.0,0.0,0.0,0.0,0.0,0.0,0.0,0.0,0.0,0.0,0.0,0.0,0.0,0.0,0.0,0.0,0.0,0.0,0.0,0.0,0.0,0.0,0.0,0.0,0.0,0.0,0.0,0.0,0.0,1.1916,1.1843,1.1843,1.1843,1.1843,1.1843,1.1843,1.1843,1.185,1.185,1.1453,1.1195,1.1195,1.1008,1.0887,1.0887,1.109,1.1234,1.1234,1.1234,1.1234,1.1227,1.1023,1.0887,1.088,1.0799,1.0731,1.0724,1.0724,1.0724,1.0711,1.0561,1.05,1.0487,1.0337,1.0188,0.9997,0.9997,0.9896,0.9829,0.8318,0.859,0.859,0.859,0.859,0.859,0.859,0.859,0.859,0.859,0.859,0.859,0.859,0.859,0.859,0.859,0.859,0.859,0.859,0.8481,0.8534,0.8799,0.9063,0.9374,0.9761,0.9822,0.9822,0.9822,0.9822,0.9822,0.9822,0.9822,0.9822,0.9822,0.97,0.9457,0.9153,0.8854,0.8591,0.8358,0.8193,0.8248,0.854,0.0,0.0,0.0,0.0,0.0,0.0,0.0,0.0,0.0,0.0,0.0,0.0,0.0,0.0,0.0,0.0,0.0,0.0,0.0,0.0,0.0,0.0,0.0,0.0,0.0,0.0,0.0,0.0,0.0,0.0,0.0,1.2774,1.2774,1.2576,1.2503,1.2503,1.2503,1.2503,1.2503,1.2503,1.2503,1.2492,1.2409,1.2022,1.1745,1.1582,1.1282,1.1104,1.1104,1.1138,1.1234,1.1234,1.1234,1.1234,1.1234,1.1124,1.1104,1.1104,1.1056,1.0982,1.082,1.082,1.0819,1.0717,1.0677,1.0656,1.0629,1.0378,1.0256,1.0215,1.0215,1.012,0.9909,0.8318,0.859,0.859,0.859,0.859,0.859,0.859,0.859,0.859,0.859,0.859,0.859,0.859,0.859,0.859,0.859,0.859,0.8568,0.8519,0.8485,0.8585,0.9006,0.9167,0.9457,0.9822,0.9822,0.9822,0.9822,0.9822,0.9822,0.9822,0.9822,0.9822,0.9822,0.9822,0.964,0.9275,0.9037,0.8732,0.8378,0.8262,0.8319,0.8557,0.9016,0.9506,0.9954,1.0337,1.0548,1.0636,1.0697,0.0,0.0,0.0,0.0,0.0,0.0,0.0,0.0,0.0,0.0,0.0,0.0,0.0,0.0,0.0,0.0,0.0,0.0,0.0,0.0,0.0,0.0,0.0,0.0,1.2774,1.2774,1.2774,1.2774,1.2774,1.2774,1.2774,1.2798,1.2938,1.2946,1.2952,1.2926,1.2399,1.2103,1.1986,1.1497,1.126,1.126,1.1321,1.1355,1.1355,1.1355,1.1355,1.1355,1.1287,1.126,1.1253,1.1261,1.1118,1.1036,1.0907,1.0833,1.0812,1.0744,1.0717,1.0704,0.0,0.0,0.0,0.0,1.0222,1.0127,0.8272,0.8606,0.8606,0.859,0.859,0.859,0.859,0.859,0.859,0.859,0.859,0.859,0.859,0.859,0.859,0.859,0.859,0.8541,0.8426,0.8453,0.8631,0.8931,0.9112,0.9396,0.9761,0.9761,0.9761,0.9822,0.9822,0.9822,0.9822,0.9822,0.9822,0.9822,0.9822,0.964,0.9275,0.9037,0.8732,0.8372,0.8372,0.843,0.859,0.8969,0.9362,0.9812,1.0263,1.0466,1.0514,1.0649,0.0,0.0,0.0,0.0,0.0,0.0,0.0,0.0,0.0,0.0,0.0,0.0,0.0,0.0,0.0,0.0,0.0,0.0,0.0,0.0,0.0,0.0,0.0,0.0,1.2774,1.2774,1.2774,1.279,1.2798,1.2798,1.2798,1.2929,1.3108,1.3124,1.3206,1.3384,1.2781,1.2375,1.239,1.1832,0.0,0.0,0.0,1.1619,1.1619,1.1619,1.1619,1.1619,1.1484,1.1416,1.1409,1.1274,1.1275,1.1179,1.1056,1.0907,1.0873,1.0806,1.0738,1.0717,1.0717,1.0636,1.05,1.0358,1.0304,1.0283,0.8272,0.8736,0.8704,0.8606,0.859,0.859,0.859,0.859,0.859,0.859,0.859,0.859,0.859,0.859,0.859,0.859,0.859,0.8541,0.8426,0.828,0.8344,0.8613,0.8553,0.8854,0.9396,0.9396,0.9518,0.9822,0.9822,0.9822,0.9822,0.9822,0.9822,0.9822,0.9822,0.964,0.9275,0.9037,0.8732,0.8372,0.8372,0.8567,0.883,0.9136,0.9526,0.9968,1.0065,1.029,1.0493,1.0527,1.0616,1.0717,1.0717,1.0717,0.0,0.0,0.0,0.0,0.0,0.0,0.0,0.0,0.0,0.0,0.0,0.0,0.0,0.0,0.0,0.0,0.0,0.0,0.0,1.2774,1.2774,1.2774,1.2774,1.2954,1.3043,1.3043,1.3043,1.3116,1.3303,1.3319,1.3392,1.3579,1.3169,1.3021,1.3074,1.2408,1.208,1.208,1.1749,1.1619,1.1619,1.1619,1.1619,1.1619,1.1592,0.0,1.1572,1.1545,1.1463,1.1348,1.1314,1.1172,1.088,1.0847,1.0833,1.0717,1.0717,1.0704,1.0656,1.0507,1.0453,1.0432,0.8343,0.8905,0.884,0.878,0.8769,0.8747,0.8687,0.8677,0.8655,0.8595,0.859,0.859,0.859,0.859,0.859,0.859,0.8535,0.8503,0.8503,0.8463,0.8522,0.8586,0.8652,0.8799,0.9098,0.9098,0.9153,0.9335,0.9457,0.9579,0.9579,0.97,0.9822,0.9822,0.9822,0.97,0.9518,0.9214,0.8976,0.8854,0.8854,0.8976,0.9098,0.9275,0.9564,0.9883,0.9957,1.0085,1.0283,1.0358,1.0487,1.0609,1.0609,1.0656,1.0717,0.0,0.0,0.0,0.0,0.0,0.0,0.0,0.0,0.0,0.0,0.0,0.0,0.0,0.0,1.2774,1.2774,0.0,1.2774,1.2774,1.2774,1.2865,1.2954,1.3043,1.3092,1.3092,1.3173,1.3303,1.349,1.3506,1.3579,1.3758,1.342,1.3239,1.3325,1.276,1.2402,1.2194,1.1979,1.1835,1.1619,1.1619,1.1619,1.1619,1.1619,1.1619,1.1619,1.1619,1.1579,1.1504,1.1423,1.1307,1.1158,1.0941,1.0793,1.0717,1.0717,1.0717,1.0711,1.0636,1.0609,1.0582,0.854,0.9019,0.8933,0.889,0.8884,0.8847,0.8818,0.8785,0.8736,0.8633,0.86,0.859,0.859,0.859,0.859,0.859,0.8503,0.8492,0.8584,0.8649,0.8642,0.8614,0.8746,0.8809,0.8799,0.8793,0.8854,0.8915,0.9098,0.9214,0.9214,0.9518,0.964,0.964,0.964,0.964,0.9579,0.9275,0.9153,0.9214,0.9214,0.9275,0.9335,0.9396,0.9579,0.9836,0.9903,0.9963,1.0004,1.0195,1.0331,1.0453,1.0453,1.0534,1.0636,1.0636,1.0636,0.0,0.0,0.0,0.0,0.0,0.0,0.0,0.0,1.2808,1.2774,1.2774,1.2774,1.2774,1.2774,1.2774,1.2774,1.2774,1.2798,1.2938,1.3076,1.3157,1.3206,1.3206,1.3336,1.3498,1.3606,1.3693,1.375,1.3888,1.3611,1.3396,1.3396,1.3111,1.276,1.2409,1.2338,1.2122,1.1691,1.1691,1.1691,1.1619,1.1619,1.1619,1.1619,1.1619,1.1619,1.1613,1.1457,1.1389,1.1369,1.107,1.0806,1.0765,1.0731,1.0717,1.0717,1.0717,1.0717,1.0704,0.8709,0.9275,0.9198,0.8917,0.8884,0.8879,0.8863,0.884,0.8764,0.8753,0.8655,0.859,0.859,0.859,0.859,0.859,0.8579,0.8573,0.8584,0.847,0.835,0.8242,0.8243,0.8307,0.8433,0.8433,0.861,0.8915,0.8915,0.8915,0.8976,0.8976,0.8976,0.8976,0.8976,0.8976,0.8976,0.8671,0.8671,0.8915,0.8915,0.9098,0.9335,0.964,0.9761,0.9822,0.9842,0.9869,0.999,1.0004,1.0175,1.0304,1.0304,1.0317,1.0331,1.0331,1.0331,1.0395,1.0714,1.128,1.1917,1.2242,1.2483,1.2596,0.0,1.2718,1.2774,1.2774,1.2774,1.2774,1.2774,1.2774,1.2774,1.2774,1.2962,1.3076,1.3092,1.3376,1.351,1.351,1.3534,1.3685,1.3855,1.3872,1.388,1.3896,1.3833,1.3833,1.3833,1.3468,1.3253,1.3182,1.2896,1.2545,1.2122,1.2122,1.1979,1.1619,1.1619,1.1619,1.1619,1.1619,1.1619,1.1613,1.1457,1.1389,1.1369,1.107,1.0873,1.084,1.0772,1.0717,1.0717,1.0717,1.0717,1.0717,0.8868,0.9302,0.9275,0.9177,0.9155,0.9133,0.8998,0.9014,0.8954,0.8883,0.8769,0.8693,0.8693,0.8628,0.859,0.859,0.859,0.859,0.859,0.8546,0.8465,0.8345,0.8225,0.8169,0.8234,0.8156,0.8183,0.8299,0.8488,0.861,0.861,0.8793,0.8915,0.8915,0.8915,0.8915,0.8915,0.8732,0.8854,0.9153,0.9153,0.9335,0.9579,0.9761,0.9822,0.9822,0.9822,0.9863,0.0,0.9856,1.0019,1.0148,1.0148,1.0209,1.0283,1.0283,1.0283,1.041,1.0975,1.1292,1.1609,1.2178,1.2434,1.2628,1.2628,1.2702,1.2774,1.2774,1.2774,1.2774,1.2774,1.2774,1.2774,1.2774,1.2986,1.3133,1.3238,1.3482,1.3606,1.3782,1.379,1.3823,1.3896,1.3904,1.3904,1.3904,1.3904,1.3904,1.3904,1.3761,1.3539,1.3325,1.3182,1.2832,1.2194,1.2194,1.1979,1.1619,1.1619,1.1619,1.1619,1.1619,1.1619,1.1613,1.1552,1.147,1.1375,1.1158,1.1023,1.0867,1.0778,1.0717,1.0717,1.0717,1.0717,1.0717,0.9013,0.9302,0.9302,0.9302,0.9302,0.9275,0.9193,0.9155,0.903,0.8944,0.8894,0.8807,0.8774,0.866,0.859,0.859,0.859,0.859,0.859,0.859,0.8535,0.8421,0.8334,0.8214,0.8119,0.8026,0.7966,0.7872,0.8122,0.8244,0.8244,0.8488,0.861,0.861,0.861,0.8671,0.8732,0.8671,0.8854,0.9214,0.9214,0.9396,0.97,0.9761,0.9822,0.9822,0.9822,0.9822,0.9822,0.9822,0.9897,0.9923,0.9923,1.0059,1.0154,1.0154,1.0154,1.0343,1.097,1.1095,1.122,1.1971,1.2265,1.2427,1.2491,1.267,1.2774,1.2774,1.2774,1.2774,1.2774,1.2774,1.2848,1.2897,1.3051,1.3238,1.3425,1.3604,1.3766,1.3888,1.3904,1.3904,1.3904,1.3904,1.3904,1.3904,1.3904,1.3904,1.3904,1.3904,1.3753,1.3468,1.3468,1.319,1.2481,1.2481,1.2266,1.1763,1.1763,1.1691,1.1619,1.1619,1.1619,1.1619,1.1619,1.1558,1.1443,1.1287,1.1138,1.0995,1.0839,1.0758,1.0717,1.0717,1.0717,1.0717,0.9013,0.9302,0.9302,0.9302,0.9302,0.9302,0.9302,0.9204,0.9133,0.9128,0.8954,0.8899,0.8785,0.866,0.859,0.859,0.859,0.859,0.859,0.859,0.8535,0.8421,0.8416,0.8301,0.8119,0.8114,0.8054,0.7872,0.7933,0.7933,0.7933,0.7933,0.7933,0.7933,0.7933,0.8122,0.8372,0.8055,0.8299,0.8915,0.8915,0.9098,0.9335,0.97,0.9822,0.9822,0.9822,0.9822,0.9822,0.9822,0.9822,0.9829,0.9829,0.9829,0.9836,0.9836,0.9836,0.9957,1.0626,1.0565,1.0565,1.155,1.1805,1.1933,1.2249,1.2588,1.2774,1.2774,1.2774,1.2774,1.2774,1.2774,1.2889,1.3059,1.3238,1.3425,1.3542,1.3782,1.3896,1.3904,1.3904,1.3904,1.3904,1.3904,1.3904,1.3904,1.3904,1.3904,1.3904,1.3904,1.3904,1.3904,1.3904,1.3682,1.3253,1.3253,1.2904,1.2194,1.2194,1.1979,1.1619,1.1619,1.1619,1.1619,1.1619,1.1613,1.1599,1.145,1.1294,1.1138,1.0995,1.0786,1.0717,1.0717,1.0717,1.0717,0.923,0.9302,0.9302,0.9302,0.9302,0.9302,0.9302,0.9269,0.9247,0.9247,0.9144,0.0,0.0,0.0,0.0,0.0,0.8633,0.859,0.859,0.859,0.8568,0.853,0.8459,0.8378,0.8296,0.8138,0.8097,0.8054,0.7971,0.7872,0.7872,0.7872,0.7872,0.7872,0.7872,0.7933,0.8055,0.7933,0.8177,0.8555,0.8555,0.8854,0.9335,0.9396,0.9579,0.9822,0.0,0.9822,0.9822,0.9822,0.9822,0.9822,0.9822,0.9822,0.9822,0.9822,0.9822,0.9883,1.0368,1.0361,1.0511,1.1363,1.169,1.1893,1.2386,1.2661,1.2774,1.2774,1.2774,1.2774,1.2774,1.2774,1.2889,1.3068,1.3246,1.3433,1.355,1.379,1.3904,1.3904,1.3904,1.3904,1.3904,1.3904,1.3904,1.3904,1.3904,1.3904,1.3904,1.3904,1.3904,1.3904,1.3904,1.3682,1.3325,1.3325,1.2904,1.2194,1.1907,1.1763,1.1619,1.1619,1.1619,1.1619,1.1619,1.1619,1.1606,1.1457,1.1301,1.1151,1.1002,1.0786,1.0717,1.0717,1.0717,1.0717,0.0,0.9302,0.9302,0.9302,0.9302,0.0,0.0,0.0,0.0,0.0,0.0,0.0,0.0,0.0,0.0,0.0,0.0,0.8633,0.859,0.859,0.859,0.859,0.8519,0.8459,0.8421,0.8263,0.8138,0.8114,0.8037,0.7977,0.7872,0.7872,0.7872,0.7872,0.7872,0.7872,0.7872,0.7872,0.7994,0.8244,0.8488,0.8793,0.9153,0.9396,0.964,0.0,0.9822,0.9822,0.9822,0.9822,0.9822,0.9822,0.9822,0.9822,0.9822,0.9822,0.9822,0.9883,1.0186,1.0221,1.0353,1.1132,1.1524,1.1851,1.2282,1.2572,1.2774,1.2774,1.2774,1.2774,1.2774,1.2774,1.2913,1.3157,1.3295,1.3457,1.3701,1.3831,1.3904,1.3904,1.3904,1.3904,1.3904,1.3904,1.3904,1.3904,1.3904,1.3904,1.3904,1.3904,1.3904,1.3904,1.3904,1.3761,1.3539,1.3539,1.319,1.2617,1.2051,1.1835,1.1835,1.1691,1.1619,1.1619,1.1619,1.1619,1.1613,1.1511,1.1382,1.1226,1.1084,1.0934,1.0799,1.0738,1.0717,1.0717,0.0,0.0,0.9302,0.0,0.0,0.0,0.0,0.0,0.0,0.0,0.0,0.0,0.0,0.0,0.0,0.0,0.0,0.0,0.8606,0.8595,0.8595,0.859,0.859,0.8535,0.8432,0.8421,0.8307,0.8136,0.813,0.8065,0.7883,0.7883,0.7877,0.7872,0.7872,0.7872,0.7872,0.7872,0.7872,0.7933,0.861,0.8915,0.8976,0.9579,0.9761,0.9822,0.9822,0.9822,0.9822,0.9822,0.9822,0.9822,0.9822,0.9822,0.9822,0.9822,0.9829,0.989,1.0193,1.0129,1.0191,1.0813,1.1299,1.166,1.1926,1.2449,1.2774,1.2774,1.2774,1.2774,1.2774,1.2774,1.2954,1.3311,1.3368,1.3498,1.3847,1.3904,1.3904,1.3904,1.3904,1.3904,1.3904,1.3904,1.3904,1.3904,1.3904,1.3904,1.3904,1.3904,1.3904,1.3904,1.3904,1.3904,1.3904,1.3904,1.3682,1.3325,1.2545,1.2194,1.2194,1.1763,1.1619,1.1619,1.1619,1.1619,1.1619,1.1619,1.1531,1.1375,1.1219,1.1077,1.086,1.0778,1.0717,1.0717,0.0,0.0,0.0,0.0,0.0,0.0,0.0,0.0,0.0,0.0,0.0,0.0,0.0,0.0,0.0,0.0,0.0,0.0,0.8731,0.8725,0.8682,0.859,0.859,0.8573,0.8546,0.8459,0.8388,0.8323,0.8236,0.8127,0.807,0.807,0.8021,0.7872,0.7872,0.7872,0.7872,0.7872,0.7872,0.7933,0.8366,0.8671,0.8915,0.9275,0.9579,0.9822,0.9822,0.9822,0.9822,0.9822,0.9822,0.9822,0.9822,0.9822,0.9822,0.9822,0.9903,0.9992,1.0053,1.0163,1.0376,1.0863,1.127,1.169,1.2146,1.2537,1.2774,1.2774,1.2774,1.2774,1.2774,1.2774,1.2954,1.3311,1.3368,1.3498,1.3847,1.3904,1.3904,1.3904,1.3904,1.3904,1.3904,1.3904,1.3904,1.3904,1.3904,1.3904,1.3904,1.3904,1.3904,1.3904,1.3904,1.3904,1.3904,1.3611,1.3396,1.3325,1.2545,1.2194,1.2194,1.1763,1.1619,1.1619,1.1619,1.1619,1.1619,1.1619,1.1531,1.1375,1.1219,1.1077,1.086,1.0778,1.0717,1.0717,0.0,0.0,0.0,0.0,0.0,0.0,0.0,0.0,0.0,0.0,0.0,0.0,0.0,0.0,0.0,0.0,0.0,0.0,0.0,0.8802,0.8742,0.8671,0.8617,0.859,0.859,0.8524,0.847,0.8416,0.835,0.8253,0.8133,0.8133,0.8095,0.803,0.803,0.803,0.803,0.803,0.803,0.0,0.0,0.872,0.9082,0.9335,0.9494,0.9733,0.9788,0.9822,0.9822,0.9822,0.9822,0.9822,0.9822,0.9822,0.9822,0.9822,0.9869,0.9984,0.9984,1.0209,1.0456,1.0732,1.1127,1.1468,1.1754,1.2239,1.2568,1.2568,1.2708,1.2774,1.2774,1.2774,1.2954,1.3311,1.3368,1.3498,1.3847,1.3904,1.3904,1.3904,1.3904,1.3904,1.3904,1.3904,1.3904,1.3904,1.3904,1.3904,1.3904,1.3904,1.3904,1.3904,1.3904,1.3904,1.3904,1.3682,1.3539,1.3539,1.2975,1.2617,1.2474,1.2051,1.1763,1.1619,1.1619,1.1619,1.1619,1.1619,1.1565,1.147,1.1246,1.1111,1.1016,1.0799,1.0717,1.0717,0.0,0.0,0.0,0.0,0.0,0.0,0.0,0.0,0.0,0.0,0.9302,0.9302,0.9302,0.9302,0.0,0.0,0.0,0.0,0.0,0.0,0.8802,0.8774,0.8671,0.8606,0.859,0.859,0.8541,0.8443,0.8443,0.8378,0.8258,0.8258,0.8188,0.8172,0.8172,0.8172,0.8172,0.8172,0.8172,0.8236,0.855,0.8933,0.9239,0.0,0.9518,0.9561,0.9726,0.9775,0.9822,0.9822,0.9822,0.9822,0.9822,0.9822,0.9822,0.9842,0.9896,1.0024,1.0038,1.031,1.0521,1.0521,1.0885,1.1181,1.1181,1.1776,1.2305,1.2305,1.2576,1.2774,1.2774,1.2774,1.2946,1.3279,1.3352,1.349,1.3823,1.3888,1.3904,1.3904,1.3904,1.3904,1.3904,1.3904,1.3904,1.3904,1.3904,1.3904,1.3904,1.3904,1.3904,1.3904,1.3904,1.3904,1.3904,1.3904,1.3904,1.3904,1.3468,1.3182,1.2824,1.2402,1.2051,1.1763,1.1691,1.1691,1.1691,1.1691,1.1619,1.1592,1.1307,1.1248,1.1131,1.0853,1.0738,1.0717,0.0,0.0,0.0,0.0,0.0,0.0,0.0,0.0,0.0,0.0,0.9302,0.9302,0.0,0.0,0.0,0.0,0.0,0.0,0.0,0.0,0.0,0.878,0.8753,0.8693,0.859,0.859,0.8579,0.8557,0.8557,0.8497,0.8383,0.8383,0.8334,0.8172,0.8172,0.8172,0.8172,0.8172,0.8172,0.8236,0.855,0.8742,0.8869,0.9158,0.0,0.0,0.9505,0.9685,0.9822,0.9822,0.9822,0.9822,0.9822,0.9822,0.9842,0.9909,1.012,1.0263,1.0385,1.0541,1.0677,1.0677,1.0895,1.1181,1.1181,1.1776,1.2305,1.2305,1.2576,1.2774,1.2774,1.2774,1.2905,1.3108,1.3271,1.3441,1.366,1.3815,1.3904,1.3904,1.3904,1.3904,1.3904,1.3904,1.3904,1.3904,1.3904,1.3904,1.3904,1.3904,1.3904,1.3904,1.3904,1.3904,1.3904,1.3904,1.3904,1.3904,1.3468,1.3253,1.3182,1.2474,1.2338,1.2538,1.2266,1.2122,1.2122,1.2122,1.1907,1.1599,1.1423,1.1274,1.1138,1.0975,1.0826,1.0717,0.0,0.0,0.0,0.0,0.0,0.0,0.0,0.9302,0.9302,0.9302,0.9302,0.9302,0.9302,0.9302,0.9302,0.0,0.0,0.0,0.0,0.0,0.0,0.0,0.0,0.0,0.8682,0.8622,0.859,0.859,0.0,0.8557,0.8508,0.8508,0.8475,0.8416,0.8416,0.8416,0.8416,0.8416,0.8416,0.8421,0.8612,0.8742,0.8932,0.0,0.0,0.0,0.9368,0.955,0.979,0.9841,0.9876,0.9862,0.9842,0.9822,0.9849,0.9943,1.0161,1.031,1.0453,1.0602,1.0717,1.0717,1.085,1.0916,1.0916,1.138,1.1776,1.1975,1.2312,1.2568,1.2774,1.2774,1.2889,1.3068,1.3246,1.3433,1.355,1.379,1.3904,1.3904,1.3904,1.3904,1.3904,1.3904,1.3904,1.3904,1.3904,1.3904,1.3904,1.3904,1.3904,1.3904,1.3904,1.3904,1.3904,1.3904,1.3904,1.3904,1.3682,1.3468,1.3253,1.276,1.2617,1.2753,1.2402,1.2338,1.2474,1.2266,1.2122,1.1893,1.1521,1.1301,1.1214,1.1002,1.0853,1.0717,0.0,0.0,0.0,0.0,0.0,0.0,0.9302,0.9302,0.9302,0.9302,0.9302,0.9302,0.9302,0.9302,0.9302,0.0,0.0,0.0,0.0,0.0,0.0,0.0,0.0,0.0,0.0,0.0,0.0,0.859,0.859,0.0,0.0,0.0,0.0,0.0,0.859,0.859,0.859,0.859,0.859,0.0,0.0,0.8784,0.0,0.0,0.0,0.0,0.0,0.9404,0.9742,0.9883,0.9975,1.008,0.9958,0.9876,0.9863,1.008,1.0209,1.0317,1.0493,1.0629,1.0717,1.0717,1.0717,1.0717,1.0717,1.0982,1.1314,1.1578,1.1982,1.2371,1.2634,1.2774,1.2881,1.3019,1.3189,1.3376,1.3563,1.3734,1.3863,1.3896,1.3904,1.3904,1.3904,1.3904,1.3904,1.3904,1.3904,1.3904,1.3904,1.3904,1.3904,1.3904,1.3904,1.3904,1.3904,1.3904,1.3904,1.3904,1.3904,1.3753,1.3396,1.3039,1.2968,1.3039,1.2617,1.2617,1.2896,1.2474,1.2266,1.218,1.1626,1.1328,1.1151,1.1036,1.088,1.0717,0.0,0.0,0.0,0.0,0.0,0.0,0.9302,0.9302,0.9302,0.9302,0.9302,0.9302,0.9302,0.9302,0.9302,0.0,0.0,0.0,0.0,0.0,0.0,0.0,0.0,0.0,0.0,0.0,0.0,0.859,0.859,0.0,0.0,0.0,0.0,0.0,0.0,0.859,0.859,0.859,0.0,0.0,0.0,0.0,0.0,0.0,0.0,0.0,0.0,0.9291,0.9691,0.9742,0.9996,1.0256,1.0243,1.0046,0.9903,1.0331,1.0371,1.0344,1.0622,1.0711,1.0717,1.0717,1.0717,1.0717,1.0717,1.0982,1.1181,1.1247,1.1776,1.2312,1.2305,1.2568,1.284,1.279,1.3003,1.3181,1.3368,1.3555,1.3725,1.388,1.3904,1.3904,1.3904,1.3904,1.3904,1.3904,1.3904,1.3904,1.3904,1.3904,1.3904,1.3904,1.3904,1.3904,1.3904,1.3904,1.3904,1.3904,1.3904,1.3904,1.3833,1.3396,1.3468,1.3761,1.3396,1.3253,1.3253,1.2896,1.2545,1.2194,1.1749,1.1416,1.1227,1.1151,1.0962,1.0717,0.0,0.0,0.0,0.0,0.0,0.0,0.9302,0.9302,0.9302,0.9302,0.9302,0.9302,0.9302,0.9302,0.9302,0.9302,0.9302,0.0,0.0,0.0,0.0,0.0,0.0,0.0,0.0,0.0,0.8818,0.8698,0.8698,0.0,0.0,0.0,0.0,0.0,0.0,0.859,0.859,0.859,0.0,0.0,0.0,0.0,0.0,0.0,0.0,0.0,0.0,0.0,0.9745,0.9851,1.0148,1.0405,1.0405,1.0263,1.0148,1.0412,1.0453,1.0453,1.0663,1.0717,1.0717,1.0717,1.0717,1.0717,1.0717,1.0784,1.0982,1.1181,1.1644,1.2048,1.2246,1.2576,1.2774,1.2774,1.2986,1.3157,1.3344,1.353,1.3639,1.388,1.3904,1.3904,1.3904,1.3904,1.3904,1.3904,1.3904,1.3904,1.3904,1.3904,1.3904,1.3904,1.3904,1.3904,1.3904,1.3904,1.3904,1.3904,1.3904,1.3904,1.3904,1.3468,1.3539,1.3904,1.3468,1.3468,1.3611,1.3253,1.2896,1.2545,1.2122,1.1642,1.1234,1.1234,1.0975,1.0717,0.0,0.0,0.0,0.0,0.0,0.9302,0.9302,0.9302,0.9302,0.9302,0.9302,0.9302,0.9302,0.9302,0.9302,0.9302,0.9302,0.0,0.0,0.0,0.0,0.0,0.0,0.0,0.0,0.0,0.8948,0.8823,0.8791,0.8725,0.0,0.0,0.859,0.859,0.0,0.0,0.0,0.0,0.0,0.0,0.0,0.0,0.0,0.0,0.0,0.0,0.0,0.0,0.0,0.0,0.0,1.0561,1.0561,1.0493,1.0432,1.0527,1.0527,1.0527,1.0677,1.0717,1.0717,1.0717,1.0717,1.0717,1.0717,1.0717,1.0784,1.0982,1.138,1.171,1.2107,1.2437,1.27,1.2766,1.2938,1.3084,1.3262,1.3449,1.3628,1.3807,1.3872,1.3904,1.3904,1.3904,1.3904,1.3904,1.3904,1.3904,1.3904,1.3904,1.3904,1.3904,1.3904,1.3904,1.3904,1.3904,1.3904,1.3904,1.3904,1.3904,1.3904,1.3611,1.3611,1.3904,1.3611,1.3611,1.3904,1.3468,1.3182,1.2896,1.2409,1.1854,1.1372,1.1234,1.0975,1.0717,0.0,0.0,0.0,0.0,0.0,0.9302,0.9302,0.9302,0.9302,0.9302,0.9302,0.9302,0.9302,0.9302,0.9302,0.9302,0.9302,0.0,0.0,0.0,0.0,0.0,0.0,0.0,0.9139,0.9133,0.9003,0.8879,0.8829,0.8769,0.8764,0.8644,0.859,0.859,0.0,0.0,0.0,0.0,0.0,0.0,0.0,0.0,0.859,0.0,0.0,0.0,0.0,0.0,0.0,0.0,0.0,0.0,0.0,1.0717,1.0717,1.0717,1.0609,1.0527,1.0677,1.0717,1.0717,1.0717,1.0717,1.0717,1.0717,1.0717,1.0717,1.0717,1.0982,1.1314,1.171,1.2107,1.2444,1.2774,1.2774,1.2897,1.3076,1.3254,1.3441,1.3558,1.3798,1.3904,1.3904,1.3904,1.3904,1.3904,1.3904,1.3904,1.3904,1.3904,1.3904,1.3904,1.3904,1.3904,1.3904,1.3904,1.3904,1.3904,1.3904,1.3904,1.3904,1.3904,1.3904,1.3904,1.3904,1.3904,1.3904,1.3468,1.3325,1.3253,1.2481,1.2002,1.1641,1.1303,1.0975,1.0717,0.0,0.0,0.0,0.0,0.0,0.0,0.9302,0.9302,0.9302,0.9302,0.9302,0.9302,0.9302,0.9302,0.9302,0.9302,0.9302,0.0,0.0,0.0,0.0,0.0,0.0,0.0,0.9253,0.9253,0.9193,0.9008,0.9035,0.8932,0.8769,0.8731,0.8666,0.859,0.859,0.859,0.0,0.0,0.0,0.0,0.0,0.859,0.859,0.0,0.0,0.0,0.0,0.0,0.0,0.0,0.0,0.0,0.0,0.0,0.0,1.0717,1.0683,1.0656,1.0711,1.0717,1.0717,1.0717,1.0717,1.0717,1.0717,1.0717,1.0717,1.0717,1.0982,1.1314,1.171,1.2048,1.2444,1.2774,1.2774,1.2897,1.3068,1.3254,1.3441,1.355,1.3798,1.3904,1.3904,1.3904,1.3904,1.3904,1.3904,1.3904,1.3904,1.3904,1.3904,1.3904,1.3904,1.3904,1.3904,1.3904,1.3904,1.3904,1.3904,1.3904,1.3904,1.3904,1.3904,1.3904,1.3904,1.3904,1.3904,1.3753,1.3539,1.3246,1.2925,1.2392,1.1703,1.1467,1.1096,1.0717,0.0,0.0,0.0,0.0,0.0,0.0,0.9443,0.9443,0.9443,0.9443,0.9443,0.9443,0.9443,0.9443,0.9443,0.9443,0.9443,0.0,0.0,0.0,0.0,0.0,0.0,0.0,0.9302,0.9302,0.9269,0.9198,0.9155,0.9035,0.884,0.8791,0.8704,0.859,0.859,0.859,0.0,0.0,0.0,0.0,0.859,0.859,0.859,0.0,0.0,0.0,0.0,0.0,0.0,0.0,0.0,0.0,0.0,0.0,0.0,0.0,1.0717,1.0717,1.0717,1.0717,1.0717,1.0717,1.0717,1.0717,1.0717,1.0717,1.0717,1.0717,1.085,1.1115,1.1512,1.1843,1.2246,1.2576,1.2708,1.2807,1.2986,1.3214,1.3465,1.3709,1.3839,1.3904,1.3904,1.3904,1.3904,1.3904,1.3904,1.3904,1.3904,1.3904,1.3904,1.3904,1.3904,1.3904,1.3904,1.3904,1.3904,1.3904,1.3904,1.3904,1.3904,1.3904,1.3904,1.3904,1.3904,1.3904,0.0,1.3904,1.3753,1.3523,1.3216,1.2626,1.1902,1.1614,1.1189,1.0717,0.0,0.0,0.0,0.0,0.0,0.0,0.0,0.9671,0.9671,0.9671,0.9671,0.9671,0.9671,0.9671,0.9671,0.9671,0.9671,0.0,0.0,0.0,0.0,0.0,0.0,0.9302,0.9302,0.9302,0.9302,0.9302,0.9198,0.9008,0.8879,0.8834,0.8715,0.859,0.859,0.859,0.0,0.0,0.0,0.859,0.859,0.8595,0.0,0.0,0.0,0.0,0.0,0.0,0.0,0.0,0.0,0.0,0.0,0.0,0.0,0.0,0.0,0.0,0.0,1.0717,1.0717,1.0717,1.0717,1.0717,1.0717,1.0717,0.0,1.0717,1.0717,1.0784,1.1115,1.1512,1.1916,1.2239,1.2568,1.2774,1.2774,1.3149,1.3498,1.3839,1.3896,1.3904,1.3904,1.3904,1.3904,1.3904,1.3904,1.3904,1.3904,1.3904,1.3904,1.3904,1.3904,1.3904,1.3904,1.3904,1.3904,1.3904,1.3904,1.3904,1.3904,1.3904,1.3904,1.3904,1.3904,1.3904,1.3904,1.3904,1.3896,1.3792,1.3341,1.2743,1.2231,1.1736,1.1175,1.0717,0.0,0.0,0.0,0.0,0.0,0.0,0.0,0.0,0.0,0.0,0.9671,0.9671,0.9671,0.9671,0.9671,0.0,0.0,0.0,0.0,0.0,0.0,0.0,0.9302,0.9302,0.9302,0.9302,0.9302,0.9302,0.9275,0.9155,0.8884,0.8852,0.8791,0.859,0.859,0.859,0.0,0.0,0.859,0.859,0.859,0.8644,0.0,0.0,0.0,0.0,0.8655,0.9113,0.0,0.0,0.0,0.0,0.0,0.0,0.0,0.0,1.0717,1.0717,1.0717,0.0,1.0717,1.0717,1.0717,1.0717,0.0,1.0717,1.0717,1.0717,1.0717,1.0784,1.1115,1.1512,1.1916,1.2239,1.2568,1.2774,1.2774,1.3149,1.3457,1.3677,1.3823,1.3904,1.3904,1.3904,1.3904,1.3904,1.3904,1.3904,1.3904,1.3904,1.3904,1.3904,1.3904,1.3904,1.3904,1.3904,1.3904,1.3904,1.3904,1.3904,1.3904,1.3904,1.3904,1.3904,1.3904,1.3904,1.3904,1.3904,1.3823,1.3615,1.3437,1.284,1.2052,1.1829,1.1482,1.1049,0.0,0.0,0.0,0.0,0.0,0.0,0.0,0.0,0.0,0.0,0.9829,0.9829,0.9829,0.9829,0.9829,0.0,0.0,0.0,0.0,0.0,0.0,0.9476,0.947,0.9449,0.9389,0.9389,0.9362,0.9302,0.9302,0.9182,0.8884,0.8884,0.8823,0.859,0.859,0.859,0.859,0.8784,0.8717,0.859,0.8784,0.0,0.0,0.0,0.0,0.0,0.8633,0.9096,0.0,0.9685,1.0127,1.0717,0.0,0.0,0.0,0.0,1.0717,1.0717,1.0717,1.0717,1.0717,1.0717,1.0717,1.0717,1.0717,1.0717,1.0717,1.0717,1.0717,1.0784,1.0916,1.1247,1.1644,1.1982,1.2371,1.2666,1.2879,1.3197,1.3441,1.355,1.3798,1.3904,1.3904,1.3904,1.3904,1.3904,1.3904,1.3904,1.3904,1.3904,1.3904,1.3904,1.3904,1.3904,1.3904,1.3904,1.3904,1.3904,1.3904,1.3904,1.3904,1.3904,1.3904,1.3904,1.3904,1.3904,1.3904,1.3904,1.3798,1.3558,1.3441,1.2846,1.1993,1.2035,1.2099,1.2223,0.0,0.0,0.0,0.0,0.0,0.0,0.0,0.0,0.0,0.0,0.0,0.0,0.0,0.0,0.0,0.0,0.0,0.0,0.0,0.0,0.9824,0.9726,0.9688,0.9622,0.9514,0.9514,0.9465,0.9362,0.934,0.9209,0.8911,0.889,0.8823,0.859,0.859,0.8651,0.8717,0.8984,0.8984,0.879,0.8984,0.0,0.0,0.0,0.0,0.0,0.0,0.0,0.0,0.9728,1.0127,1.0717,1.0717,0.0,0.0,0.0,0.0,0.0,1.0717,1.0717,1.0717,1.0717,1.0717,1.0717,1.0717,1.0717,1.0717,1.0717,1.0717,1.0717,1.0717,1.0982,1.1314,1.171,1.2114,1.2558,1.2968,1.3238,1.3425,1.3587,1.3782,1.3904,1.3904,1.3904,1.3904,1.3904,1.3904,1.3904,1.3904,1.3904,1.3904,1.3904,1.3904,1.3904,1.3904,1.3904,1.3904,1.3904,1.3904,1.3904,1.3904,1.3904,1.3904,1.3904,1.3904,1.3904,1.3896,1.3872,1.3758,1.3587,1.3667,1.301,1.2097,1.2682,1.3144,1.3587,0.0,0.0,0.0,0.0,0.0,0.0,0.0,0.0,0.0,0.0,0.0,0.0,0.0,0.0,0.0,0.0,0.0,0.0,0.0,0.9992,0.9987,0.9965,0.9775,0.9661,0.9644,0.9644,0.9633,0.9612,0.9508,0.934,0.9035,0.8933,0.8823,0.859,0.859,0.8784,0.905,0.905,0.9256,0.9528,0.9183,0.0,0.0,0.0,0.0,0.0,0.0,0.0,0.0,0.9728,1.0127,1.0717,1.0717,0.0,0.0,0.0,0.0,0.0,1.0717,1.0717,1.0717,1.0717,1.0717,1.0717,1.0717,1.0717,1.0717,1.0717,1.0717,1.0717,1.0717,1.0982,1.1314,1.171,1.2312,1.2782,1.2807,1.3165,1.3384,1.3409,1.3701,1.3904,1.3904,1.3904,1.3904,1.3904,1.3904,1.3904,1.3904,1.3904,1.3904,1.3904,1.3904,1.3904,1.3904,1.3904,1.3904,1.3904,1.3904,1.3904,1.3904,1.3904,1.3904,1.3904,1.3904,1.3904,1.3888,1.3742,1.3579,1.353,1.454,1.3811,1.2534,1.4903,1.5154,1.4633,0.0,0.0,0.0,0.0,0.0,0.0,0.0,0.0,0.0,0.0,0.0,0.0,0.0,0.0,0.0,0.0,0.0,0.0,1.0019,1.0019,1.0019,1.0019,0.9916,0.9829,0.9764,0.9758,0.9731,0.9671,0.9612,0.9432,0.9128,0.8872,0.8693,0.859,0.8784,0.8984,0.9117,0.9522,0.9721,0.9728,0.0,0.0,0.0,0.0,0.0,0.0,0.0,0.0,0.0,0.0,1.006,1.0459,1.0651,0.0,0.0,0.0,0.0,0.0,1.0717,1.0717,1.0717,1.0717,1.0717,1.0717,1.0717,1.0717,1.0717,1.0717,1.0717,1.0717,1.0717,1.085,1.1115,1.1718,1.2246,1.2568,1.2774,1.3149,1.3368,1.3368,1.3685,1.3904,1.3904,1.3904,1.3904,1.3904,1.3904,1.3904,1.3904,1.3904,1.3904,1.3904,1.3904,1.3904,1.3904,1.3904,1.3904,1.3904,1.3904,1.3904,1.3904,1.3904,1.3904,1.3904,1.3904,1.3904,1.3888,1.3717,1.3539,1.3489,1.4764,1.4497,1.3801,1.6506,1.728,1.7227,0.0,0.0,0.0,0.0,0.0,0.0,0.0,0.0,0.0,0.0,0.0,0.0,0.0,0.0,0.0,0.0,0.0,0.0,1.0019,1.0019,1.0019,1.0019,1.0019,0.9976,0.9883,0.9878,0.984,0.9753,0.972,0.9514,0.9128,0.8791,0.8684,0.8717,0.8984,0.9183,0.9383,0.9987,1.0127,0.9927,0.0,0.0,0.0,0.0,0.0,0.0,0.0,0.0,0.0,0.0,0.0,0.0,0.0,0.0,0.0,1.0717,1.0717,1.0717,1.0717,1.0717,1.0717,1.0717,1.0717,1.0717,1.0717,1.0717,1.0717,1.0717,1.0717,1.0717,1.0717,1.0784,1.0982,1.1578,1.2041,1.2371,1.2642,1.3041,1.3319,1.3368,1.3652,1.3855,1.3896,1.3904,1.3904,1.3904,1.3904,1.3904,1.3904,1.3904,1.3904,1.3904,1.3904,1.3904,1.3904,1.3904,1.3904,1.3904,1.3904,1.3904,1.3904,1.3904,1.411,1.4395,1.4039,1.4227,1.4806,1.4274,1.4156,1.4435,1.5614,1.602,1.6193,1.7935,1.896,1.9623,0.0,0.0,0.0,0.0,0.0,0.0,0.0,0.0,0.0,0.0,0.0,0.0,0.0,0.0,0.0,0.0,0.0,0.0,1.0019,1.0019,1.0019,1.0019,1.0019,1.0014,1.0008,1.0008,1.0003,0.9998,0.9883,0.959,0.9128,0.8878,0.8895,0.905,0.9117,0.9455,1.0127,1.0193,1.0392,1.0585,1.0326,0.0,0.0,0.0,0.0,0.0,0.0,0.0,0.0,0.0,0.0,0.0,0.0,0.0,1.0717,1.0717,1.0717,1.0717,1.0717,1.0717,1.0717,1.0717,1.0717,1.0717,1.0717,1.0717,1.0717,1.0717,1.0717,1.0717,1.0717,1.0916,1.1181,1.1247,1.1843,1.2312,1.2305,1.2794,1.3173,1.3352,1.3547,1.3655,1.3888,1.3904,1.3904,1.3904,1.3904,1.3904,1.3904,1.3904,1.3904,1.3904,1.3904,1.3904,1.3904,1.3904,1.3904,1.3904,1.3904,1.3904,1.3904,1.3904,1.4679,1.5867,1.4466,1.5343,1.7485,1.5904,1.5894,1.7071,1.8266,1.9507,2.0462,1.9355,1.9814,2.0982,0.0,0.0,0.0,0.0,0.0,0.0,0.0,0.0,0.0,0.0,0.0,0.0,0.0,0.0,0.0,0.0,0.0,0.0,1.0019,1.0019,1.0019,1.0019,0.9949,0.9905,0.9905,0.9981,1.0019,1.0019,0.9753,0.9487,0.9231,0.9123,0.9149,0.9232,0.9625,0.9921,1.0193,1.0392,1.0585,1.0717,1.0591,1.0525,0.0,0.0,0.0,0.0,0.0,0.0,0.0,0.0,1.0259,1.0452,1.0651,1.0717,1.0717,1.0717,1.0717,1.0717,1.0717,1.0717,1.0717,1.0717,1.0717,1.0717,1.0717,1.0717,1.0717,1.0717,1.0717,1.0717,1.0717,1.0784,1.0982,1.1181,1.1644,1.2048,1.2246,1.2786,1.3165,1.3352,1.353,1.3709,1.3888,1.3904,1.4252,1.5168,1.5239,1.5239,1.5239,1.5239,1.4813,1.3904,1.3904,1.4324,1.5239,1.5239,1.5726,1.6705,1.4813,1.3904,1.3904,1.4813,1.5593,1.615,1.6494,1.7137,1.7876,1.7109,1.6949,1.7313,1.8565,1.9877,2.1046,2.0526,2.0652,2.1109,0.0,0.0,0.0,0.0,0.0,0.0,0.0,0.0,0.0,0.0,0.0,0.0,0.0,0.0,0.0,0.0,0.0,0.0,0.9965,0.9927,0.9911,0.9911,0.9829,0.9786,0.9786,0.99,0.9965,0.9965,0.9682,0.9533,0.9513,0.9433,0.9525,0.9647,1.0095,1.0298,1.0392,1.0585,1.0717,1.0717,1.0717,1.0717,0.0,0.0,0.0,0.0,0.0,0.0,0.0,0.0,1.0392,1.0392,1.0651,1.0717,1.0717,1.0717,1.0717,1.0717,1.0717,1.0717,1.0717,1.0717,1.0717,1.0717,1.0717,1.0717,1.0717,1.0717,1.0717,1.0717,1.0717,1.0717,1.0784,1.0982,1.138,1.171,1.2107,1.2539,1.2941,1.3262,1.3449,1.3628,1.3807,1.429,1.5026,1.6009,1.6574,1.6846,1.6846,1.6846,1.6362,1.5372,1.5301,1.5797,1.6846,1.6846,1.7338,1.8379,1.6282,1.5097,1.4679,1.615,1.6846,1.6846,1.7816,1.8614,1.9128,1.8474,1.8303,1.8511,1.9365,2.0259,2.1109,2.1109,2.1109,2.1109,0.0,0.0,0.0,0.0,0.0,0.0,0.0,0.0,1.0019,1.0019,1.0019,0.0,0.0,0.0,0.0,0.0,0.0,0.0,0.9835,0.9731,0.9671,0.9671,0.9666,0.9666,0.9666,0.9775,0.9835,0.9835,0.9726,0.9763,0.9879,0.9758,0.998,1.0393,1.0393,1.0517,1.0724,1.0717,1.0717,1.0717,1.0717,1.0717,1.0717,0.0,0.0,0.0,0.0,0.0,0.0,0.0,1.0717,1.0717,1.0717,1.0717,1.0717,1.0717,1.0717,1.0717,1.0717,1.0717,1.0717,1.0717,1.0717,1.0717,1.0717,1.0717,1.0717,1.0717,1.0717,1.0717,1.0717,1.0717,1.0717,1.0717,1.0982,1.1314,1.171,1.2107,1.25,1.3076,1.3254,1.3441,1.3558,1.5123,1.6079,1.615,1.7549,1.8449,1.8449,1.8449,1.8379,1.8379,1.8379,1.8379,1.8449,1.8449,1.8449,1.8449,1.8449,1.7619,1.615,1.7689,1.8449,1.8369,1.8063,1.9455,2.1885,2.0079,2.0,2.1109,2.1109,2.1109,2.1109,2.1109,2.1109,2.1109,0.0,0.0,0.0,0.0,0.0,0.0,0.0,0.0,1.0563,1.0874,1.0874,0.0,0.0,0.0,0.0,0.0,0.0,0.0,0.9726,0.9688,0.9671,0.9671,0.9584,0.9541,0.9541,0.9574,0.9633,0.972,0.9908,0.9985,0.9879,1.0321,1.0569,1.0689,1.0695,1.0786,1.0806,1.0765,1.0717,1.0717,1.0717,1.0717,1.0717,0.0,0.0,0.0,0.0,0.0,0.0,0.0,0.0,0.0,1.0717,1.0717,1.0717,1.0717,1.0717,1.0717,1.0717,1.0717,1.0717,1.0717,1.0717,1.0717,1.0717,1.0717,1.0717,1.0717,1.0717,1.0717,1.0717,1.0717,1.0717,1.0717,1.0982,1.1314,1.171,1.2107,1.25,1.3076,1.3254,1.3441,1.3558,1.5123,1.6574,1.7619,1.9089,1.9924,1.9924,1.9924,1.9437,1.8449,1.8379,1.8868,1.9924,1.9924,2.0479,2.1596,2.1596,2.0201,1.776,1.9298,1.983,1.9724,2.0675,2.1327,2.1657,2.0901,2.0795,2.1109,2.1109,2.1109,2.1109,2.1109,2.1109,2.1109,0.0,0.0,0.0,0.0,0.0,0.0,0.0,0.0,1.0952,1.1262,1.1262,1.1184,0.0,0.0,0.0,0.0,0.0,0.0,0.9606,0.9552,0.9525,0.9525,0.9454,0.9438,0.9487,0.9487,0.9599,0.9893,1.0042,1.0234,1.0311,1.0739,1.0954,1.103,1.1067,1.0988,1.0873,1.0786,1.0778,1.0717,1.0717,1.0717,1.0717,0.0,0.0,0.0,0.0,0.0,0.0,0.0,0.0,0.0,1.0717,1.0717,1.0717,1.0717,1.0717,1.0717,1.0717,1.0717,1.0717,1.0717,1.0717,1.0717,1.0717,1.0717,1.0717,1.0717,1.0717,1.0717,1.0717,1.0717,1.0717,1.0717,1.085,1.1115,1.1512,1.1843,1.2277,1.2712,1.3081,1.3601,1.4337,1.5914,1.7596,1.9147,2.0698,2.154,2.154,2.154,2.1113,2.0201,2.0201,2.0617,2.154,2.154,2.1953,2.2928,2.2928,2.1953,2.0201,2.1113,2.1034,2.0299,2.1499,2.1804,2.1363,2.1189,2.1109,2.1109,2.1109,2.1109,2.1109,2.1109,2.1109,2.1109,0.0,0.0,1.0641,1.0641,0.0,0.0,0.0,0.0,1.134,1.1417,1.1417,1.1417,0.0,0.0,0.0,0.0,0.0,0.0,0.0,0.944,0.9302,0.9302,0.9302,0.9356,0.9465,0.9544,0.9764,1.0131,1.0143,1.045,1.0972,1.1044,1.1188,1.1409,1.1396,1.124,1.0921,1.0894,1.0799,1.0738,1.0724,1.0717,1.0717,1.0717,0.0,0.0,0.0,0.0,0.0,0.0,0.0,0.0,1.0717,1.0717,1.0717,1.0717,1.0717,1.0717,1.0717,1.0717,1.0717,1.0717,1.0717,1.0717,1.0717,1.0717,1.0717,1.0717,1.0717,1.0717,1.0717,1.0717,1.0717,1.0717,1.0717,1.085,1.1181,1.1578,1.1916,1.2246,1.2786,1.3764,1.5421,1.7056,1.8729,2.0431,2.1984,2.2901,2.2928,2.2928,2.2928,2.2928,2.2928,2.2928,2.2928,2.2928,2.2928,2.2928,2.2928,2.2846,2.2819,2.2819,2.1952,2.0337,2.1228,2.1363,2.1109,2.1109,2.1109,2.1109,2.1109,2.1109,2.1109,2.1109,2.1109,2.1109,0.0,0.0,1.0719,1.1107,0.0,0.0,0.0,0.0,0.0,1.2192,0.0,0.0,0.0,0.0,0.0,0.0,0.0,0.0,0.0,0.9752,0.9663,0.9302,0.9302,0.9318,0.9345,0.963,0.9992,1.0426,1.0462,1.0669,1.1044,1.1332,1.1527,1.1565,1.1443,1.1355,1.128,1.0981,1.086,1.082,1.0772,1.0717,1.0717,1.0717,1.0717,0.0,0.0,0.0,0.0,0.0,0.0,0.0,1.0717,1.0717,1.0717,1.0717,1.0717,1.0717,1.0717,1.0717,1.0717,1.0717,1.0717,1.0717,1.0717,1.0717,1.0717,1.0717,1.0717,1.0717,1.0717,1.0717,1.0717,1.0717,1.0717,1.085,1.1181,1.1578,1.1916,1.2246,1.2786,1.3704,1.5138,1.682,1.8473,2.0167,2.1687,2.2619,2.2914,2.2928,2.2928,2.2928,2.2928,2.2928,2.2928,2.2928,2.2928,2.2928,2.2928,2.2739,2.2512,2.2512,2.2098,2.1319,2.1235,2.1162,2.1109,2.1109,2.1109,2.1109,2.1109,2.1109,2.1109,2.1109,2.1109,2.1109,0.0,0.0,0.0,0.0,0.0,0.0,0.0,0.0,0.0,0.0,0.0,0.0,0.0,0.0,0.0,0.0,1.0995,1.0748,1.0245,1.0167,1.0023,0.959,0.959,0.959,0.959,0.9807,1.0167,1.075,1.0752,1.097,1.126,1.1476,1.1619,1.1613,1.1538,1.1457,1.1382,1.1226,1.1077,1.0873,1.0793,1.0785,1.0717,1.0717,1.0717,1.0717,1.0717,0.0,0.0,0.0,0.0,0.0,0.0,0.0,1.0717,1.0717,1.0717,1.0717,1.0717,1.0717,1.0717,1.0717,1.0717,1.0717,1.0717,1.0717,1.0717,1.0717,1.0717,1.0717,1.0717,1.0717,1.0717,1.0717,1.0717,1.0784,1.0916,1.1446,1.185,1.2041,1.2582,1.3794,1.6058,1.7044,1.8551,2.091,2.1738,2.2338,2.2632,2.2645,2.2712,2.2859,2.2928,2.2928,2.2928,2.2928,2.2928,2.2928,2.2712,2.2418,2.2004,2.2004,2.1844,2.1601,2.1243,2.1109,2.1109,2.1109,2.1109,2.1109,2.1109,2.1109,2.1109,2.1109,2.1109,2.1109,0.0,0.0,0.0,0.0,0.0,0.0,0.0,0.0,0.0,0.0,0.0,0.0,0.0,0.0,1.1958,0.0,0.0,0.0,1.0606,0.0,0.0,1.0023,1.0023,1.0023,1.0023,1.0023,1.0389,1.0972,1.1044,1.126,1.1619,1.1619,1.1619,1.1619,1.1619,1.1552,1.143,1.1402,1.1246,1.0954,1.09,1.0806,1.0758,1.0731,1.0717,1.0717,1.0717,1.0717,1.0717,1.0717,0.0,0.0,0.0,0.0,1.0717,1.0717,1.0717,1.0717,1.0717,1.0717,1.0717,1.0717,1.0717,1.0717,1.0717,1.0717,1.0717,1.0717,1.0717,1.0717,1.0717,1.0717,1.0717,1.0717,1.0717,1.0717,1.0717,1.1247,1.171,1.1776,1.2568,1.4191,1.7052,1.7522,1.8881,2.1687,2.1911,2.2031,2.2325,2.2338,2.2485,2.2779,2.2779,2.2779,2.2779,2.2779,2.2766,2.2712,2.2405,2.2017,2.1614,2.1561,2.1534,2.1534,2.1216,2.1109,2.1109,2.1109,2.1109,2.1109,2.1109,2.1109,2.1109,2.1109,2.1109,2.1109,0.0,0.0,0.0,0.0,0.0,0.0,0.0,0.0,0.0,0.0,1.2393,1.2311,0.0,1.2054,1.1804,1.1763,1.1649,1.1352,1.0972,0.0,0.0,1.0455,1.0455,1.0455,1.0455,1.0678,1.09,1.0972,1.1332,1.1548,1.1619,1.1619,1.1619,1.1619,1.1619,1.1606,1.1579,1.145,1.1369,1.1307,1.105,1.0867,1.0833,1.0772,1.0717,1.0717,1.0717,1.0717,1.0717,1.0717,1.0717,0.0,0.0,0.0,1.0717,1.0717,1.0717,1.0717,1.0717,1.0717,1.0717,1.0717,1.0717,1.0717,1.0717,1.0717,1.0717,1.0717,1.0717,1.0717,1.0717,1.0717,1.0717,1.0717,1.0717,1.0717,1.0717,1.1049,1.138,1.1784,1.3218,1.4912,1.6893,1.8121,1.9591,2.1525,2.1681,2.1802,2.2031,2.2044,2.2178,2.2472,2.2472,2.2472,2.2472,2.2472,2.2352,2.2098,2.1869,2.1695,2.1614,2.1283,2.1162,2.1162,2.1122,2.1109,2.1109,2.1109,2.1109,2.1109,2.1109,2.1109,2.1109,2.1109,2.1109,2.1109,0.0,0.0,0.0,0.0,0.0,0.0,0.0,0.0,0.0,0.0,0.0,1.2223,1.2054,1.1911,1.1796,1.1721,1.1653,1.1548,1.1332,1.1181,1.1038,1.0822,1.075,1.075,1.075,1.09,1.1116,1.1332,1.1476,1.1619,1.1619,1.1619,1.1619,1.1619,1.1619,1.1619,1.1613,1.1545,1.147,1.1369,1.1158,1.1023,1.086,1.0778,1.0717,1.0717,1.0717,1.0717,1.0717,1.0717,1.0717,1.0717,1.0717,0.0,0.0,0.0,1.0717,1.0717,1.0717,1.0717,1.0717,1.0717,1.0717,1.0717,1.0717,1.0717,1.0717,1.0717,1.0717,1.0717,1.0717,1.0717,1.0717,1.0717,1.0717,1.0717,1.0717,1.0982,1.138,1.1784,1.3341,1.5098,1.685,1.8203,1.9672,2.1232,2.1309,2.143,2.1789,2.1815,2.1884,2.2164,2.2178,2.2178,2.2178,2.2178,2.2031,2.1737,2.1681,2.1534,2.1296,2.1162,2.1109,2.1109,2.1109,2.1109,2.1109,2.1109,2.1109,2.1109,2.1109,2.1109,2.1109,2.1109,2.1109,2.1109,0.0,0.0,0.0,0.0,0.0,0.0,0.0,0.0,0.0,0.0,0.0,1.2088,1.1857,0.0,0.0,0.0,1.1619,1.1619,1.1619,1.1619,1.1476,1.1188,1.1116,1.1116,1.1116,1.1116,1.1332,1.1619,1.1619,1.1619,1.1619,1.1619,1.1619,1.1619,1.1619,1.1619,1.1619,1.1619,1.1552,1.143,1.124,1.1097,1.0982,1.0792,1.0717,1.0717,1.0717,1.0717,1.0717,1.0717,1.0717,1.0717,1.0717,1.0717,0.0,0.0,0.0,1.0717,1.0717,1.0717,1.0717,1.0717,1.0717,1.0717,1.0717,1.0717,1.0717,1.0717,1.0717,1.0717,1.0717,1.0717,1.0717,1.0717,1.0717,1.0717,1.0717,1.0916,1.1247,1.171,1.353,1.5349,1.685,1.8524,1.9941,2.1046,2.1109,2.1203,2.1494,2.1443,2.1577,2.1871,2.1884,2.1884,2.1884,2.1804,2.1657,2.1443,2.1443,2.1323,2.1109,2.1109,2.1109,2.1109,2.1109,2.1109,2.1109,2.1109,2.1109,2.1109,2.1109,2.1109,2.1109,2.1109,2.1109,2.1109,0.0,0.0,0.0,0.0,0.0,0.0,0.0,0.0,0.0,0.0,0.0,1.185,1.183,1.1708,1.1626,1.1619,1.1619,1.1619,1.1619,1.1619,1.1619,1.1548,1.1548,0.0,1.1548,1.1548,1.1548,1.1619,1.1619,1.1619,1.1619,1.1619,1.1619,1.1619,1.1619,1.1619,1.1619,1.1619,1.1613,1.1579,1.128,1.1158,1.1118,1.0833,1.0717,1.0717,1.0717,1.0717,1.0717,1.0717,1.0717,1.0717,1.0717,1.0717,1.0717,0.0,0.0,0.0,1.0717,1.0717,1.0717,1.0717,1.0717,1.0717,1.0717,1.0717,1.0717,1.0717,1.0717,1.0717,1.0717,1.0717,1.0717,1.0717,1.0717,1.0717,1.0717,1.0717,1.0982,1.1718,1.4175,1.6118,1.6904,1.9431,2.1046,2.1109,2.1109,2.1122,2.1136,2.1136,2.1269,2.1628,2.1641,2.1641,2.1641,2.1296,2.1149,2.1136,2.1136,2.1122,2.1109,2.1109,2.1109,2.1109,2.1109,2.1109,2.1109,2.1109,2.1109,2.1109,2.1109,2.1109,2.1109,2.1109,2.1109,2.1109,0.0,0.0,0.0,0.0,0.0,0.0,0.0,0.0,0.0,0.0,0.0,0.0,0.0,1.1647,1.1619,1.1619,1.1619,1.1619,1.1619,1.1619,1.1619,1.1619,1.1619,1.1619,1.1619,1.1619,1.1619,1.1619,1.1619,1.1619,1.1619,1.1619,1.1619,1.1619,1.1619,1.1619,1.1619,1.1619,1.1619,1.1592,1.1287,1.1234,1.1131,1.0833,1.0717,1.0717,1.0717,1.0717,1.0717,1.0717,1.0717,1.0717,1.0717,1.0717,1.0717,1.0717,1.0717,1.0717,1.0717,1.0717,1.0717,1.0717,1.0717,1.0717,1.0717,1.0717,1.0717,1.0717,1.0717,1.0717,1.0717,1.0717,1.0717,1.0717,1.0717,1.0717,1.0717,1.0717,1.085,1.138,1.4045,1.6108,1.6571,1.9355,2.1109,2.1109,2.1109,2.1109,2.1109,2.1109,2.1162,2.1269,2.1269,2.1269,2.1269,2.1162,2.1109,2.1109,2.1109,2.1109,2.1109,2.1109,2.1109,2.1109,2.1109,2.1109,2.1109,2.1109,2.1109,2.1109,2.1109,2.1109,2.1109,2.1109,2.1109,2.1109,0.0,0.0,0.0,1.2433,0.0,1.221,1.221,1.2081,1.1945,1.1843,0.0,0.0,0.0,0.0,1.1619,1.1619,1.1619,1.1619,1.1619,1.1619,1.1619,1.1619,1.1619,1.1619,1.1619,1.1619,1.1619,1.1619,1.1619,1.1619,1.1619,1.1619,1.1619,1.1619,1.1619,1.1619,1.1619,1.1619,1.1619,1.1592,1.1287,1.1261,1.1206,1.0907,1.0826,1.086,1.0812,1.0799,1.0785,1.0738,1.0717,1.0717,1.0717,1.0717,1.0717,1.0717,1.0717,1.0717,1.0717,1.0717,1.0717,1.0717,1.0717,1.0717,1.0717,1.0717,1.0717,1.0717,1.0717,1.0717,1.0717,1.0717,1.0717,1.0717,1.0717,1.0717,1.0717,1.0717,1.085,1.1181,1.397,1.6043,1.6377,1.9228,2.1109,2.1109,2.1109,2.1109,2.1109,2.1109,2.1109,2.1109,2.1109,2.1109,2.1109,2.1109,2.1109,2.1109,2.1109,2.1109,2.1109,2.1109,2.1109,2.1109,2.1109,2.1109,2.1109,2.1109,2.1109,2.1109,2.1109,2.1109,2.1109,2.1109,2.1109,2.1109,1.2488,1.2379,1.2284,1.2284,1.2155,1.2054,1.2054,1.1925,1.1823,1.1823,0.0,0.0,0.0,0.0,0.0,1.1619,1.1619,1.1619,1.1619,1.1619,1.1619,1.1619,1.1619,1.1619,1.1619,1.1619,1.1619,1.1619,1.1619,1.1619,1.1619,1.1619,1.1619,1.1619,1.1619,1.1619,1.1619,1.1619,1.1619,1.1592,1.1294,1.126,1.1362,1.0995,1.1043,1.1145,1.1002,1.0887,1.086,1.0778,1.0724,1.0717,1.0717,1.0717,1.0717,1.0717,1.0717,1.0717,0.0,0.0,0.0,1.0717,1.0717,1.0717,1.0717,1.0717,1.0717,1.0717,1.0717,1.0717,1.0717,1.0717,1.0717,1.0717,1.0717,1.0717,1.0717,1.0717,1.085,1.1181,1.3979,1.6043,1.6377,1.9291,2.1109,2.1109,2.1109,2.1109,2.1109,2.1109,2.1109,2.1109,2.1109,2.1109,2.1109,2.1109,2.1109,2.1109,2.1109,2.1109,2.1109,2.1109,2.1109,2.1109,2.1109,2.1109,2.1109,2.1109,2.1109,2.1109,2.1109,2.1109,2.1109,2.1109,2.1109,2.1109,1.2182,1.2149,1.2128,1.2128,1.1999,1.1898,1.1898,1.1769,1.1681,0.0,0.0,0.0,1.1619,1.1619,1.1619,1.1619,1.1619,1.1619,1.1619,1.1619,1.1619,1.1619,1.1619,1.1619,1.1619,1.1619,1.1619,1.1619,1.1619,1.1619,1.1619,1.1619,1.1619,1.1619,1.1619,1.1619,1.1619,1.1619,1.1619,1.1599,1.1409,1.1355,1.1369,1.1179,1.1131,1.1158,1.1118,1.1036,1.0873,1.0833,1.0812,1.0717,1.0717,1.0717,1.0717,1.0717,1.0717,1.0717,1.0717,0.0,0.0,0.0,0.0,0.0,1.0717,1.0717,1.0717,1.0717,1.0717,1.0717,1.0717,1.0717,1.0717,1.0717,1.0717,1.0717,1.0717,1.0717,1.1115,1.2231,1.4428,1.6312,1.742,1.9686,2.1109,2.1109,2.1109,2.1109,2.1109,2.1109,2.1109,2.1109,2.1109,2.1109,2.1109,2.1109,2.1109,2.1109,2.1109,2.1109,2.1109,2.1109,2.1109,2.1109,2.1109,2.1109,2.1109,2.1109,2.1109,2.1109,2.1109,2.1109,2.1109,2.1109,2.1109,2.1109,1.2135,1.2013,1.1965,1.1965,1.1843,1.1742,1.1742,1.1674,1.1619,0.0,0.0,0.0,1.1619,1.1619,1.1619,1.1619,1.1619,1.1619,1.1619,1.1619,1.1619,1.1619,1.1619,1.1619,1.1619,1.1619,1.1619,1.1619,1.1619,1.1619,1.1619,1.1619,1.1619,1.1619,1.1619,1.1619,1.1619,1.2259,1.2187,1.1606,1.215,1.2403,1.2518,1.2974,1.3229,1.3137,1.245,1.216,1.1927,1.1193,1.0779,1.0717,1.0717,1.0717,1.0717,1.0717,1.0717,1.0717,1.0717,1.0717,1.0717,1.0717,0.0,0.0,1.0717,1.0717,1.0717,1.0717,1.0717,1.0717,1.0717,1.0717,1.0717,1.0717,1.0717,1.0717,1.0717,1.0717,1.1247,1.2618,1.4502,1.6312,1.7882,1.975,2.0919,2.1109,2.1109,2.1109,2.1109,2.1109,2.1109,2.1109,2.1109,2.1109,2.1109,2.1109,2.1109,2.1109,2.1109,2.1109,2.1109,2.1109,2.1109,2.1109,2.1109,2.1109,2.1109,2.1109,2.1109,2.1109,2.1109,2.1109,2.1109,2.1109,2.1109,2.1109,0.0,1.1904,1.1809,1.1809,1.1701,1.1619,1.1619,1.1619,1.1619,0.0,1.1619,1.1619,1.1619,1.1619,1.1619,1.1619,1.1619,1.1619,1.1619,1.1619,1.1619,1.1619,1.1619,1.1619,1.1619,1.1619,1.1619,1.1619,1.1619,1.1619,1.1619,1.1619,1.1619,1.1619,1.1619,1.1691,1.1972,1.3317,1.3174,1.2244,1.3498,1.4015,1.429,1.5454,1.598,1.5891,1.4465,1.3969,1.3694,1.1786,1.1047,1.0916,1.0717,1.0717,1.0717,1.0717,1.0717,1.0717,1.0717,1.0717,1.0717,1.0717,1.0717,0.0,1.0717,1.0717,1.0717,1.0717,1.0717,1.0717,1.0717,1.0717,1.0717,1.0717,1.0717,1.0717,1.0717,1.0717,1.1314,1.2882,1.4437,1.6128,1.8011,1.9635,2.0729,2.1046,2.1109,2.1109,2.1109,2.1109,2.1109,2.1109,2.1109,2.1109,2.1109,2.1109,2.1109,2.1109,2.1109,2.1109,2.1109,2.1109,2.1109,2.1109,2.1109,2.1109,2.1109,2.1109,2.1109,2.1109,2.1109,2.1109,2.1109,2.1109,2.1109,2.1109,1.1708,1.1681,1.166,1.166,1.164,1.1619,1.1619,1.1619,1.1619,1.1619,1.1619,1.1619,1.1619,1.1619,1.1619,1.1619,1.1619,1.1619,1.1619,1.1619,1.1619,1.1619,1.1619,1.1619,1.1619,1.1619,1.1619,1.1619,1.1619,1.1619,1.1619,1.1619,1.1619,1.1619,1.1619,1.2259,1.346,1.3737,1.4441,1.5283,1.552,1.5671,1.5707,1.5943,1.6093,1.6051,1.5732,1.5551,1.522,1.3401,1.2563,1.2157,1.1049,1.0717,1.0717,1.0717,1.0717,1.0717,1.0717,1.0717,1.0717,1.0717,1.0717,0.0,1.0717,1.0717,1.0717,1.0717,1.0717,1.0717,1.0717,1.0717,1.0717,1.0717,1.0717,1.0717,1.0717,1.0717,1.1637,1.4193,1.5033,1.6452,1.9048,2.0094,2.0615,2.0666,2.0919,2.1109,2.1109,2.1109,2.1109,2.1109,2.1109,2.1109,2.1109,2.1109,2.1109,2.1109,2.1109,2.1109,2.1109,2.1109,2.1109,2.1109,2.1109,2.1109,2.1109,2.1109,2.1109,2.1109,2.1109,2.1109,2.1109,2.1109,2.1109,2.1109,1.1619,1.1619,1.1619,1.1619,1.1619,1.1619,1.1619,1.1619,1.1619,1.1619,1.1619,1.1619,1.1619,1.1619,1.1619,1.1619,1.1619,1.1619,1.1619,1.1619,1.1619,1.1619,1.1619,1.1619,1.1619,1.1619,1.1619,1.1619,1.1619,1.1619,1.1619,1.1619,1.2043,1.2753,1.2753,1.3595,1.5079,1.5787,1.6564,1.7268,1.7268,1.7268,1.7338,1.811,1.839,1.832,1.7549,1.6638,1.5722,1.4724,1.3763,1.2863,1.199,1.1247,1.0717,1.0717,1.0717,1.0717,1.0717,1.0717,1.0717,1.0717,1.0717,0.0,0.0,1.0717,1.0717,1.0717,1.0717,1.0916,1.1637,1.1769,1.1967,1.2684,1.2816,1.2816,1.2816,1.2165,1.2816,1.5619,1.6063,1.7098,1.938,2.003,2.0488,2.0792,2.0982,2.1109,2.1109,2.1109,2.1109,2.1109,2.1109,2.1109,2.1109,2.1109,2.1109,2.1109,2.1109,2.1109,2.1109,2.1109,2.1109,2.1109,2.1109,2.1109,2.1109,2.1109,2.1109,2.1109,2.1109,2.1109,2.1109,2.1109,2.1109,2.1109,1.1691,1.1619,1.1619,1.1619,1.1619,1.1619,1.1619,1.1619,1.1691,1.1972,1.2259,1.2466,1.2466,1.2466,1.2466,1.2466,1.2466,1.2323,1.2043,1.2043,1.19,1.1619,1.1619,1.1619,1.1619,1.1619,1.1619,1.1619,1.1619,1.1619,1.1619,1.1619,1.2395,1.388,1.388,1.4867,1.6625,1.784,1.8552,1.8832,1.8832,1.8832,1.8971,2.0237,2.0665,2.0527,1.9251,1.7972,1.6639,1.5835,1.467,1.3453,1.2648,1.1791,1.1115,1.1115,1.1314,1.1505,1.1505,1.1505,1.1505,1.1505,1.1314,1.1181,0.0,0.0,0.0,1.1049,1.0916,1.1049,1.2165,1.2618,1.3144,1.4324,1.4716,1.4968,1.5303,1.4315,1.4446,1.6721,1.698,1.7625,1.9316,1.9839,2.0361,2.1046,2.1109,2.1109,2.1109,2.1109,2.1109,2.1109,2.1109,2.1109,2.1109,2.1109,2.1109,2.1109,2.1109,2.1109,2.1109,2.1109,2.1109,2.1109,2.1109,2.1109,2.1109,2.1109,2.1109,2.1109,2.1109,2.1109,2.1109,2.1109,2.1109,2.1109,1.19,1.1619,1.1619,1.1619,1.1619,1.1619,1.1619,1.1619,1.2115,1.346,1.4796,1.5566,1.5566,1.5566,1.5566,1.5566,1.5566,1.5008,1.3737,1.3674,1.3031,1.1691,1.1619,1.1619,1.1619,1.1619,1.1619,1.1619,1.1619,1.1619,1.1619,1.1619,1.2395,1.388,1.388,1.5504,1.8121,1.8342,1.9181,2.0457,2.0457,2.0457,2.0457,2.0596,2.0665,2.0665,2.0527,2.0152,1.9369,1.6776,1.5468,1.4606,1.1925,1.1755,1.2553,1.2553,1.3473,1.4446,1.4446,1.4446,1.4446,1.4446,1.3473,1.2882,1.4128,0.0,1.1049,1.2289,0.0,1.0717,1.0916,0.0,0.0,1.3013,1.4063,1.5359,1.6592,1.6656,1.6646,1.698,1.698,1.756,1.9008,1.9724,2.0361,2.1046,2.1109,2.1109,2.1109,2.1109,2.1109,2.1109,2.1109,2.1109,2.1109,2.1109,2.1109,2.1109,2.1109,2.1109,2.1109,2.1109,2.1109,2.1109,2.1109,2.1109,2.1109,2.1109,2.1109,2.1109,2.1109,2.1109,2.1109,2.1109,2.1109,2.1109,1.3246,1.3595,1.4227,1.4227,1.4227,1.4227,1.4227,1.4227,1.4441,1.5079,1.5707,1.6131,1.6131,1.6131,1.6131,1.6131,1.6131,1.5849,1.5221,1.515,1.4867,1.4227,1.3389,1.296,1.296,1.2043,1.1619,1.1619,1.1619,1.2043,1.296,1.296,1.4236,1.6494,1.6494,1.77,1.975,1.975,2.0098,2.0665,2.0665,2.0665,2.0665,2.0665,2.0665,2.0665,2.0665,2.0593,2.0311,1.8766,1.7588,1.6496,1.4903,1.4247,1.3997,1.3997,1.4455,1.4912,1.4912,1.4912,1.4912,1.4912,1.4455,1.4193,1.4782,1.3997,1.3276,1.3932,0.0,0.0,0.0,0.0,0.0,0.0,1.6926,1.7507,1.815,1.8226,1.8226,1.8226,1.8226,1.8612,1.9596,1.9915,2.0361,2.1046,2.1109,2.1109,2.1109,2.1109,2.1109,2.1109,2.1109,2.1109,2.1109,2.1109,2.1109,2.1109,2.1109,2.1109,2.1109,2.1109,2.1109,2.1109,2.1109,2.1109,2.1109,2.1109,2.1109,2.1109,2.1109,2.1109,2.1109,2.1109,2.1109,2.1109,1.5363,1.5646,1.6131,1.6131,1.6131,1.6131,1.6131,1.6484,1.6695,1.6695,1.7127,1.7328,1.7328,1.7328,1.7328,1.7328,1.7328,1.7198,1.6775,1.6695,1.6554,1.6131,1.5079,1.4512,1.4512,1.3389,1.2817,1.2817,1.2817,1.3389,1.4512,1.4512,1.5929,1.8412,1.8412,1.9251,2.0665,2.0665,2.0665,2.0665,2.0665,2.0665,2.0665,2.0665,2.0665,2.0665,2.0665,2.0665,2.0524,1.9661,1.871,1.7626,1.6747,1.5994,1.5489,1.5489,1.5749,1.6084,1.6084,1.6084,1.6084,1.6084,1.5749,1.5554,1.5954,1.5424,1.5043,1.5424,1.5163,0.0,0.0,0.0,1.7302,1.8355,0.0,1.9072,1.9072,1.9072,1.9072,1.9072,1.9072,1.9328,1.9915,2.0043,2.0361,2.0919,2.1046,2.1109,2.1109,2.1109,2.1109,2.1109,2.1109,2.1109,2.1109,2.1109,2.1109,2.1109,2.1109,2.1109,2.1109,2.1109,2.1109,2.1109,2.1109,2.1109,2.1109,2.1109,2.1109,2.1109,2.1109,2.1109,2.1109,2.1109,2.1109,2.1109,1.8261,1.7057,1.6131,1.6131,1.6131,1.6131,1.6131,1.7338,1.8342,1.8342,1.9611,2.0527,2.0527,2.0527,2.0527,2.0527,2.0527,1.9889,1.8412,1.8342,1.77,1.6202,1.6061,1.6061,1.6061,1.599,1.599,1.599,1.599,1.599,1.6061,1.6061,1.6916,1.8412,1.8412,1.9251,2.0665,2.0665,2.0665,2.0665,2.0665,2.0665,2.0665,2.0665,2.0665,2.0665,2.0665,2.0665,2.0409,1.8672,1.7952,1.7524,1.5729,1.5974,1.6915,1.6915,1.7893,1.8944,1.8944,1.8944,1.8944,1.8944,1.7958,1.7302,1.8676,1.6861,1.5294,1.6656,1.5879,1.4912,1.4977,1.6073,1.698,1.7044,1.8226,0.0,0.0,1.9072,1.9072,1.9072,1.9072,1.9264,1.9584,1.9915,2.0234,2.0602,2.0919,2.1109,2.1109,2.1109,2.1109,2.1109,2.1109,2.1109,2.1109,2.1109,2.1109,2.1109,2.1109,2.1109,2.1109,2.1109,2.1109,2.1109,2.1109,2.1109,2.1109,2.1109,2.1109,2.1109,2.1109,2.1109,2.1109,2.1109,2.1109,2.1109,1.9889,1.9529,1.917,1.917,1.917,1.917,1.917,1.9599,1.9889,1.9889,2.0388,2.0665,2.0665,2.0665,2.0665,2.0665,2.0665,2.0457,1.9959,1.9889,1.968,1.9181,1.8191,1.7619,1.7619,1.6625,1.6131,1.6131,1.6131,1.6625,1.7619,1.7619,1.8471,1.9889,1.9889,2.0249,2.0665,2.0665,2.0665,2.0665,2.0665,2.0665,2.0665,2.0665,2.0665,2.0665,2.0665,2.0665,2.0524,1.9605,1.9203,1.8986,1.8023,1.8026,1.8419,1.8419,1.8752,1.9072,1.9072,1.9072,1.9072,1.9072,1.8752,1.8483,1.9008,1.8355,1.7829,1.8291,1.8033,1.77,1.77,1.8098,1.8419,1.8419,1.8816,1.9072,0.0,1.8927,1.8819,1.8819,1.8976,1.92,1.9571,1.9903,2.0234,2.0539,2.0919,2.1109,2.1109,2.1109,2.1109,2.1109,2.1109,2.1109,2.1109,2.1109,2.1109,2.1109,2.1109,2.1109,2.1109,2.1109,2.1109,2.1109,2.1109,2.1109,2.1109,2.1109,2.1109,2.1109,2.1109,2.1109,2.1109,2.1109,2.1109,2.1109,2.0735,2.0665,2.0665,2.0665,2.0665,2.0665,2.0665,2.0665,2.0665,2.0665,2.0665,2.0665,2.0665,2.0665,2.0665,2.0665,2.0665,2.0665,2.0665,2.0665,2.0665,2.0665,1.975,1.9181,1.9181,1.8261,1.776,1.776,1.776,1.8261,1.9181,1.9181,1.975,2.0665,2.0665,2.0665,2.0665,2.0665,2.0665,2.0665,2.0665,2.0665,2.0665,2.0665,2.0665,2.0665,2.0665,2.0743,2.0666,2.0227,2.002,1.9862,1.9539,1.9264,1.9136,1.9392,1.9392,1.9328,1.9392,1.9456,1.9456,1.9456,1.9456,1.9392,1.9328,1.9264,1.9264,1.9136,1.9072,1.9072,1.9072,1.9072,1.9072,1.9072,1.9072,1.9048,0.0,1.8794,1.865,1.8553,1.8698,1.8957,1.9232,1.9574,1.9929,2.0412,2.0729,2.0982,2.1109,2.1109,2.1109,2.1109,2.1109,2.1109,2.1109,2.1109,2.1109,2.1109,2.1109,2.1109,2.1109,2.1109,2.1109,2.1109,2.1109,2.1109,2.1109,2.1109,2.1109,2.1109,2.1109,2.1109,2.1109,2.1109,2.1109,2.1109,2.0804,2.0735,2.0735,2.0735,2.0735,2.0735,2.0735,2.0735,2.0665,2.0665,2.0665,2.0665,2.0665,2.0665,2.0665,2.0665,2.0665,2.0665,2.0665,2.0665,2.0665,2.0665,2.0665,2.0665,2.0665,2.0665,2.0665,2.0665,2.0665,2.0665,2.0665,2.0665,2.0665,2.0665,2.0665,2.0665,2.0665,2.0665,2.0665,2.0665,2.0665,2.0665,2.0665,2.0735,2.0735,2.0735,2.0735,2.0772,2.0773,2.0501,2.0228,2.002,2.0067,1.966,1.9264,1.9915,1.9839,1.9711,2.0043,2.0106,2.0106,2.0106,2.0106,2.0043,1.9711,1.9647,1.952,1.92,1.9136,1.9136,1.9136,1.9136,1.9136,1.9072,1.906,1.8963,1.8722,1.8662,1.8553,1.83,1.8263,1.836,1.8638,1.8987,1.9475,2.0068,2.0412,2.0729,2.1109,2.1109,2.1109,2.1109,2.1109,2.1109,2.1109,2.1109,2.1109,2.1109,2.1109,2.1109,2.1109,2.1109,2.1109,2.1109,2.1109,2.1109,2.1109,2.1109,2.1109,2.1109,2.1109,2.1109,2.1109,2.1109,2.1109,2.1109,2.1069,2.1289,2.1415,2.1138,2.1081,2.1081,2.1081,2.0873,2.0665,2.0665,2.0665,2.0665,2.0665,2.0665,2.0665,2.0665,2.0665,2.0665,2.0665,2.0665,2.0665,2.0665,2.0665,2.0665,2.0665,2.0665,2.0665,2.0665,2.0665,2.0665,2.0665,2.0665,2.0665,2.0665,2.0665,2.0665,2.0665,2.0665,2.0665,2.0665,2.0665,2.0665,2.0735,2.1012,2.1081,2.1081,2.1081,2.1102,2.1099,2.0889,2.0623,2.0345,2.0131,1.9979,1.9851,2.0043,2.0043,1.9979,2.0106,2.0106,2.0106,2.0106,2.0106,2.0106,1.9979,1.9979,1.9979,1.9851,1.9851,1.9788,1.952,1.9456,1.9392,1.9136,1.8915,1.8758,1.8698,1.8336,1.8058,1.7986,1.7817,1.7877,1.8348,1.9125,1.9637,1.9776,2.0548,2.0982,2.1109,2.1109,2.1109,2.1109,2.1109,2.1109,2.1109,2.1109,2.1109,2.1109,2.1109,2.1109,2.1109,2.1109,2.1109,2.1109,2.1109,2.1109,2.1109,2.1109,2.1109,2.1109,2.1109,2.1109,2.1109,2.1109,2.1109,2.1109,2.1484,2.176,2.1966,2.1691,2.1691,2.1622,2.1484,2.1151,2.0943,2.0943,2.0804,2.0665,2.0665,2.0665,2.0665,2.0665,2.0665,2.0665,2.0665,2.0665,2.0665,2.0665,2.0665,2.0665,2.0665,2.0665,2.0665,2.0665,2.0665,2.0665,2.0665,2.0665,2.0665,2.0665,2.0665,2.0665,2.0665,2.0665,2.0665,2.0735,2.0873,2.0943,0.0,2.1346,2.1553,2.1691,2.1691,2.1573,2.1337,2.1183,2.0862,2.0567,2.054,2.0361,2.017,2.0425,2.0425,2.0361,2.0488,2.0552,2.0552,2.0552,2.0552,2.0488,2.0361,2.0297,2.0297,2.0106,2.0106,2.0043,1.9839,1.9711,1.9507,1.9136,1.8855,1.865,1.8529,1.8143,1.7829,1.772,1.7575,1.7599,1.7913,1.8666,1.9233,1.9532,2.0133,2.0601,2.0909,2.0922,2.0975,2.1109,2.1109,2.1109,2.1109,2.1109,2.1109,2.1109,2.1109,2.1109,2.1109,2.1109,2.1109,2.1109,2.1109,2.1109,2.1109,2.1109,2.1109,2.1109,2.1109,2.1109,2.1109,2.1109,2.1109,2.1109,2.1897,2.2104,2.2379,2.231,2.231,2.231,2.1966,2.1553,2.1276,2.1276,2.1012,2.0804,2.0804,2.0804,2.0804,2.0804,2.0804,2.0735,2.0735,2.0735,2.0665,2.0665,2.0665,2.0665,2.0665,2.0665,2.0665,2.0665,2.0665,2.0665,2.0665,2.0665,2.0665,2.0665,2.0665,2.0665,2.0665,2.0665,2.0735,2.0804,2.1081,2.1207,2.1346,2.1691,2.2035,2.231,2.2379,2.2013,2.145,2.145,2.1136,2.0729,2.0982,2.0666,2.0361,2.0919,2.0919,2.0729,2.1046,2.1109,2.1109,2.1109,2.1109,2.1046,2.0729,2.0666,2.0615,2.0297,2.0234,2.0234,2.017,1.9903,1.9584,1.92,1.8894,1.8615,1.8385,1.8082,1.7732,1.7503,1.7479,0.0,1.755,1.8089,1.8709,1.9178,1.9546,2.0055,2.0655,2.0681,2.0815,2.1096,2.1109,2.1109,2.1109,2.1109,2.1109,2.1109,2.1109,2.1109,2.1109,2.1109,2.1109,2.1109,2.1109,2.1109,2.1109,2.1109,2.1109,2.1109,2.1109,2.1109,2.1109,2.1109,2.1109,2.1109,2.2242,2.2516,2.2722,2.2379,2.2585,2.2791,2.2722,2.2104,2.1703,2.1703,2.1634,2.1634,2.1634,2.1634,2.1634,2.1634,2.1276,2.1081,2.1081,2.0873,2.0665,2.0665,2.0665,2.0665,2.0665,2.0665,2.0665,2.0665,2.0665,2.0665,2.0665,2.0665,2.0665,2.0665,2.0665,2.0665,2.0665,2.0665,2.0873,2.1138,2.1207,2.1415,2.176,2.2104,2.2242,2.231,2.2654,2.2418,2.1925,2.1925,2.1525,2.1046,2.1109,2.1046,2.0919,2.1046,2.1046,2.1046,2.1109,2.1109,2.1109,2.1109,2.1109,2.1109,2.1046,2.0982,2.0982,2.0919,2.0919,2.0856,2.0539,2.0234,1.9903,1.9584,1.91,1.8766,1.8717,1.8045,1.7539,1.7491,1.7479,1.7608,1.7901,1.8445,1.886,1.8971,1.9672,2.03,2.0655,2.0681,2.0815,2.1096,2.1109,2.1109,2.1109,2.1109,2.1109,2.1109,2.1109,2.1109,2.1109,2.1109,2.1109,2.1109,2.1109,2.1109,2.1109,2.1109,2.1109,2.1109,2.1109,2.1109,2.1109,2.1109,2.1109,2.1109,2.2585,2.2791,2.2859,2.2654,2.2791,2.2928,2.2928,2.2585,2.231,2.2104,2.1897,2.176,2.176,2.176,2.176,2.176,2.1622,2.1484,2.1484,2.1151,2.0943,2.0943,2.0804,2.0665,2.0665,2.0665,2.0665,2.0665,2.0665,2.0665,2.0665,2.0665,2.0804,2.0943,2.0943,2.0943,2.0943,2.0943,2.1081,2.1207,2.1622,2.1897,2.2104,2.2448,2.2585,2.2654,2.2859,2.2579,2.2191,2.2031,2.1697,2.1309,2.1162,2.1109,2.1109,2.1109,2.1109,2.1109,2.1109,2.1109,2.1109,2.1109,2.1109,2.1109,2.1109,2.1109,2.1109,2.1109,2.1109,2.0982,2.0679,2.0488,2.0234,1.9903,1.9436,1.9071,1.9071,1.8414,1.7948,1.7948,1.7948,1.8006,1.8194,1.8601,1.8913,1.8913,1.9457,1.9973,2.0428,2.0441,2.0655,2.1096,2.1109,2.1109,2.1109,2.1109,2.1109,2.1109,2.1109,2.1109,2.1109,2.1109,2.1109,2.1109,2.1109,2.1109,2.1109,2.1109,2.1109,2.1109,2.1109,2.1109,2.1109,2.1109,2.1109,2.1109,2.2928,2.2928,2.2928,2.2928,2.2928,2.2928,2.2928,2.2928,2.2791,2.2448,2.2173,2.2035,2.2035,2.2035,2.2035,2.2035,2.1966,2.1897,2.1897,2.1553,2.1346,2.1346,2.1081,2.0873,2.0804,2.0804,2.0735,2.0665,2.0665,2.0735,2.0804,2.0804,2.0943,2.1207,2.1276,2.1276,2.1207,2.1276,2.1346,2.1484,2.2035,2.2379,2.2448,2.2791,2.2928,2.2928,2.2928,2.2712,2.2472,2.2178,2.1844,2.1574,2.1269,2.1162,2.1109,2.1109,2.1109,2.1109,2.1109,2.1109,2.1109,2.1109,2.1109,2.1109,2.1109,2.1109,2.1109,2.1109,2.1109,2.0982,2.0679,2.0679,2.0602,2.0234,1.9747,1.9376,1.9376,1.883,1.8415,1.8415,1.8415,1.8415,1.8473,1.8765,1.8939,1.8997,1.9243,1.9599,2.0107,2.0134,2.0414,2.1002,2.1015,2.1042,2.1109,2.1109,2.1109,2.1109,2.1109,2.1109,2.1109,2.1109,2.1109,2.1109,2.1109,2.1109,2.1109,2.1109,2.1109,2.1109,2.1109,2.1109,2.1109,2.1109,2.1109,2.1109,2.2928,2.2928,2.2928,2.2928,2.2928,2.2928,2.2928,2.2928,2.2859,2.2859,2.2791,2.2791,2.2791,2.2791,2.2791,2.2791,2.2448,2.2242,2.2242,2.1897,2.176,2.176,2.1691,2.1553,2.1151,2.1138,2.1012,2.0665,2.0665,2.0873,2.1138,2.1138,2.1138,2.1207,2.1553,2.1553,2.1207,2.1553,2.1897,2.2173,2.2242,2.2516,2.2859,2.2859,2.2928,2.2928,2.2928,2.2914,2.2779,2.2472,2.2004,2.1614,2.1588,2.1323,2.1109,2.1109,2.1109,2.1109,2.1109,2.1109,2.1109,2.1109,2.1109,2.1109,2.1109,2.1109,2.1109,2.1109,2.1109,2.0982,2.0679,2.0856,2.0919,2.0615,2.0071,1.9768,1.9768,1.8962,1.8415,1.8415,1.8415,1.8532,1.8823,1.8881,1.9055,1.9301,1.9359,1.9506,1.9826,1.984,2.0107,2.0695,2.0722,2.0842,2.1109,2.1109,2.1109,2.1109,2.1109,2.1109,2.1109,2.1109,2.1109,2.1109,2.1109,2.1109,2.1109,2.1109,2.1109,2.1109,2.1109,2.1109,2.1109,2.1109,2.1109,2.1109,2.2928,2.2928,2.2928,2.2928,2.2928,2.2928,2.2928,2.2928,2.2928,2.2928,2.2928,2.2928,2.2928,2.2928,2.2928,2.2928,2.2722,2.2654,2.2654,2.231,2.2104,2.2104,2.1897,2.1703,2.1553,2.1553,2.1496,2.1358,2.1358,2.1427,2.1553,2.1553,2.1691,2.1897,2.2035,2.2035,2.1897,2.2035,2.2173,2.231,2.2585,2.2791,2.2928,2.2928,2.2928,2.2928,2.2928,2.2928,2.2914,2.2726,2.2405,2.2004,2.1722,2.1534,2.1336,2.1162,2.1109,2.1109,2.1109,2.1109,2.1109,2.1109,2.1109,2.1109,2.1109,2.1109,2.1109,2.1109,2.1109,2.1046,2.0919,2.0982,2.1046,2.0919,2.0588,2.0257,2.0085,1.9582,1.9207,1.9037,1.901,1.9068,1.9185,1.9185,1.9243,1.9372,1.943,1.9492,1.9786,1.996,2.0254,2.0668,2.0842,2.0989,2.1109,2.1109,2.1109,2.1109,2.1109,2.1109,2.1109,2.1109,2.1109,2.1109,2.1109,2.1109,2.1109,2.1109,2.1109,2.1109,2.1109,2.1109,2.1109,2.1109,2.1109,2.1109,2.2928,2.2928,2.2928,2.2928,2.2928,2.2928,2.2928,2.2928,2.2928,2.2928,2.2928,2.2928,2.2928,2.2928,2.2928,2.2928,2.2928,2.2928,2.2928,2.2654,2.2448,2.2448,2.2242,2.2035,2.1966,2.1966,2.1897,2.176,2.176,2.1829,2.1966,2.2035,2.2173,2.231,2.2448,2.2379,2.231,2.2448,2.2448,2.2516,2.2791,2.2928,2.2928,2.2928,2.2928,2.2928,2.2928,2.2928,2.2928,2.2928,2.2726,2.2458,2.1964,2.1762,2.1574,2.1296,2.1176,2.1109,2.1109,2.1109,2.1109,2.1109,2.1109,2.1109,2.1109,2.1109,2.1109,2.1109,2.1109,2.1109,2.1109,2.1109,2.1109,2.1109,2.0869,2.0575,2.0267,1.9987,1.9693,1.9399,1.943,1.943,1.943,1.943,1.943,1.943,1.943,1.9492,1.9786,2.0,2.0281,2.0668,2.0869,2.1029,2.1109,2.1109,2.1109,2.1109,2.1109,2.1109,2.1109,2.1109,2.1109,2.1109,2.1109,2.1109,2.1109,2.1109,2.1109,2.1109,2.1109,2.1109,2.1109,2.1109,2.1109,2.1109,2.2928,2.2928,2.2928,2.2928,2.2928,2.2928,2.2928,2.2928,2.2928,2.2928,2.2928,2.2928,2.2928,2.2928,2.2928,2.2928,2.2928,2.2928,2.2928,2.2928,2.2859,2.2859,2.2859,2.2722,2.231,2.231,2.2104,2.176,2.176,2.1966,2.231,2.2722,2.2654,2.231,2.2722,2.2654,2.231,2.2722,2.2859,2.2859,2.2928,2.2928,2.2928,2.2928,2.2928,2.2928,2.2928,2.2928,2.2928,2.2928,2.2928,2.2806,2.2498,2.2017,2.1614,2.1614,2.1336,2.1109,2.1109,2.1109,2.1109,2.1109,2.1109,2.1109,2.1109,2.1109,2.1109,2.1109,2.1109,2.1109,2.1109,2.1109,2.1109,2.1109,2.0869,2.0575,2.0267,1.9987,1.9693,1.9399,1.943,1.943,1.943,1.943,1.943,1.943,1.943,1.9492,1.9786,1.98,2.008,2.0655,2.0681,2.0815,2.1109,2.1109,2.1109,2.1109,2.1109,2.1109,2.1109,2.1109,2.1109,2.1109,2.1109,2.1109,2.1109,2.1109,2.1109,2.1109,2.1109,2.1109,2.1109,2.1109,2.1109,2.1109,2.2928,2.2928,2.2928,2.2928,2.2928,2.2928,2.2928,2.2928,2.2928,2.2928,2.2928,2.2928,2.2928,2.2928,2.2928,2.2928,2.2928,2.2928,2.2928,2.2928,2.2928,2.2928,2.2928,2.2859,2.2722,2.2722,2.2654,2.2516,2.2516,2.2585,2.2722,2.2859,2.2859,2.2722,2.2859,2.2859,2.2722,2.2859,2.2928,2.2928,2.2928,2.2928,2.2928,2.2928,2.2928,2.2928,2.2928,2.2928,2.2928,2.2928,2.2928,2.2846,2.2752,2.2458,2.2071,2.1735,2.1547,2.1363,2.1162,2.1109,2.1109,2.1109,2.1109,2.1109,2.1109,2.1109,2.1109,2.1109,2.1109,2.1109,2.1109,2.1109,2.1109,2.1109,2.1029,2.0869,2.0575,2.0281,1.9987,1.9693,1.9492,1.943,1.943,1.943,1.943,1.943,1.943,1.9492,1.9786,1.9987,2.0267,2.0668,2.0869,2.1015,2.1109,2.1109,2.1109,2.1109,2.1109,2.1109,2.1109,2.1109,2.1109,2.1109,2.1109,2.1109,2.1109,2.1109,2.1109,2.1109,2.1109,2.1109,2.1109,2.1109,2.1109,2.1109,2.2928,2.2928,2.2928,2.2928,2.2928,2.2928,2.2928,2.2928,2.2928,2.2928,2.2928,2.2928,2.2928,2.2928,2.2928,2.2928,2.2928,2.2928,2.2928,2.2928,2.2928,2.2928,2.2928,2.2928,2.2928,2.2928,2.2928,2.2928,2.2928,2.2928,2.2928,2.2928,2.2928,2.2928,2.2928,2.2928,2.2928,2.2928,2.2928,2.2928,2.2928,2.2928,2.2928,2.2928,2.2928,2.2928,2.2928,2.2928,2.2928,2.2928,2.2928,2.2928,2.2928,2.2739,2.2485,2.2017,2.1789,2.1574,2.1323,2.1189,2.1109,2.1109,2.1109,2.1109,2.1109,2.1109,2.1109,2.1109,2.1109,2.1109,2.1109,2.1109,2.1109,2.1109,2.1109,2.1002,2.0722,2.0521,2.0294,2.0,1.98,1.9693,1.9693,1.9693,1.9693,1.9693,1.9693,1.9813,2.012,2.0201,2.0414,2.0828,2.1015,2.1109,2.1109,2.1109,2.1109,2.1109,2.1109,2.1109,2.1109,2.1109,2.1109,2.1109,2.1109,2.1109,2.1109,2.1109,2.1109,2.1109,2.1109,2.1109,2.1109,2.1109,2.1109,2.1109,2.2928,2.2928,2.2928,2.2928,2.2928,2.2928,2.2928,2.2928,2.2928,2.2928,2.2928,2.2928,2.2928,2.2928,2.2928,2.2928,2.2928,2.2928,2.2928,2.2928,2.2928,2.2928,2.2928,2.2928,2.2928,2.2928,2.2928,2.2928,2.2928,2.2928,2.2928,2.2928,2.2928,2.2928,2.2928,2.2928,2.2928,2.2928,2.2928,2.2928,2.2928,2.2928,2.2928,2.2928,2.2928,2.2928,2.2928,2.2928,2.2928,2.2928,2.2928,2.2928,2.2928,2.2928,2.2806,2.2512,2.2031,2.1668,2.1628,2.1349,2.1136,2.1109,2.1109,2.1109,2.1109,2.1109,2.1109,2.1109,2.1109,2.1109,2.1109,2.1109,2.1109,2.1109,2.1109,2.1015,2.0748,2.0695,2.0575,2.0294,2.018,2.0167,2.0167,2.0167,2.0167,2.0167,2.0167,2.0361,2.0655,2.0414,2.0521,2.1096,2.1109,2.1109,2.1109,2.1109,2.1109,2.1109,2.1109,2.1109,2.1109,2.1109,2.1109,2.1109,2.1109,2.1109,2.1109,2.1109,2.1109,2.1109,2.1109,2.1109,2.1109,2.1109,2.1109,2.1109,2.2928,2.2928,2.2928,2.2928,2.2928,2.2928,2.2928,2.2928,2.2928,2.2928,2.2928,2.2928,2.2928,2.2928,2.2928,2.2928,2.2928,2.2928,2.2928,2.2928,2.2928,2.2928,2.2928,2.2928,2.2928,2.2928,2.2928,2.2928,2.2928,2.2928,2.2928,2.2928,2.2928,2.2928,2.2928,2.2928,2.2928,2.2928,2.2928,2.2928,2.2928,2.2928,2.2928,2.2928,2.2928,2.2928,2.2928,2.2928,2.2928,2.2928,2.2928,2.2928,2.2928,2.2928,2.2806,2.2512,2.2325,2.2111,2.1735,2.1561,2.139,2.1162,2.1109,2.1109,2.1109,2.1109,2.1109,2.1109,2.1109,2.1109,2.1109,2.1109,2.1109,2.1109,2.1109,2.1082,2.1015,2.0815,2.0655,2.0575,2.0374,2.0167,2.0167,2.0167,2.0167,2.0167,2.0167,2.0361,2.0655,2.0615,2.0735,2.1096,2.1109,2.1109,2.1109,2.1109,2.1109,2.1109,2.1109,2.1109,2.1109,2.1109,2.1109,2.1109,2.1109,2.1109,2.1109,2.1109,2.1109,2.1109,2.1109,2.1109,2.1109,2.1109,2.1109,2.1109,2.2928,2.2928,2.2928,2.2928,2.2928,2.2928,2.2928,2.2928,2.2928,2.2928,2.2928,2.2928,2.2928,2.2928,2.2928,2.2928,2.2928,2.2928,2.2928,2.2928,2.2928,2.2928,2.2928,2.2928,2.2928,2.2928,2.2928,2.2928,2.2928,2.2928,2.2928,2.2928,2.2928,2.2928,2.2928,2.2928,2.2928,2.2928,2.2928,2.2928,2.2928,2.2928,2.2928,2.2928,2.2928,2.2928,2.2928,2.2928,2.2928,2.2928,2.2928,2.2928,2.2928,2.2928,2.2832,2.2672,2.2525,2.2352,2.2031,2.1815,2.1547,2.1189,2.1109,2.1109,2.1109,2.1109,2.1109,2.1109,2.1109,2.1109,2.1109,2.1109,2.1109,2.1109,2.1109,2.1109,2.1109,2.0975,2.0869,2.0869,2.0735,2.0628,2.0628,2.0628,2.0628,2.0628,2.0628,2.0708,2.0869,2.0869,2.0949,2.1109,2.1109,2.1109,2.1109,2.1109,2.1109,2.1109,2.1109,2.1109,2.1109,2.1109,2.1109,2.1109,2.1109,2.1109,2.1109,2.1109,2.1109,2.1109,2.1109,2.1109,2.1109,2.1109,2.1109,2.1109,2.2928,2.2928,2.2928,2.2928,2.2928,2.2928,2.2928,2.2928,2.2928,2.2928,2.2928,2.2928,2.2928,2.2928,2.2928,2.2928,2.2928,2.2928,2.2928,2.2928,2.2928,2.2928,2.2928,2.2928,2.2928,2.2928,2.2928,2.2928,2.2928,2.2928,2.2928,2.2928,2.2928,2.2928,2.2928,2.2928,2.2928,2.2928,2.2928,2.2928,2.2928,2.2928,2.2928,2.2928,2.2928,2.2928,2.2928,2.2928,2.2928,2.2928,2.2928,2.2928,2.2928,2.2928,2.2928,2.2928,2.2686,2.2472,2.2432,2.1991,2.1561,2.1243,2.1149,2.1109,2.1109,2.1109,2.1109,2.1109,2.1109,2.1109,2.1109,2.1109,2.1109,2.1109,2.1109,2.1109,2.1109,2.1109,2.1109,2.1109,2.1109,2.1109,2.1109,2.1109,2.1109,2.1109,2.1109,2.1109,2.1109,2.1109,2.1109,2.1109,2.1109,2.1109,2.1109,2.1109,2.1109,2.1109,2.1109,2.1109,2.1109,2.1109,2.1109,2.1109,2.1109,2.1109,2.1109,2.1109,2.1109,2.1109,2.1109,2.1109,2.1109,2.1109,2.1109,2.1109,2.2928,2.2928,2.2928,2.2928,2.2928,2.2928,2.2928,2.2928,2.2928,2.2928,2.2928,2.2928,2.2928,2.2928,2.2928,2.2928,2.2928,2.2928,2.2928,2.2928,2.2928,2.2928,2.2928,2.2928,2.2928,2.2928,2.2928,2.2928,2.2928,2.2928,2.2928,2.2928,2.2928,2.2928,2.2928,2.2928,2.2928,2.2928,2.2928,2.2928,2.2928,2.2928,2.2928,2.2928,2.2928,2.2928,2.2928,2.2928,2.2928,2.2928,2.2928,2.2928,2.2928,2.2928,2.2928,2.2928,2.2832,2.2739,2.2485,2.1991,2.1601,2.1561,2.1296,2.1109,2.1109,2.1109,2.1109,2.1109,2.1109,2.1109,2.1109,2.1109,2.1109,2.1109,2.1109,2.1109,2.1109,2.1109,2.1109,2.1109,2.1109,2.1109,2.1109,2.1109,2.1109,2.1109,2.1109,2.1109,2.1109,2.1109,2.1109,2.1109,2.1109,2.1109,2.1109,2.1109,2.1109,2.1109,2.1109,2.1109,2.1109,2.1109,2.1109,2.1109,2.1109,2.1109,2.1109,2.1109,2.1109,2.1109,2.1109,2.1109,2.1109,2.1109,2.1109,2.1109,2.2928,2.2928,2.2928,2.2928,2.2928,2.2928,2.2928,2.2928,2.2928,2.2928,2.2928,2.2928,2.2928,2.2928,2.2928,2.2928,2.2928,2.2928,2.2928,2.2928,2.2928,2.2928,2.2928,2.2928,2.2928,2.2928,2.2928,2.2928,2.2928,2.2928,2.2928,2.2928,2.2928,2.2928,2.2928,2.2928,2.2928,2.2928,2.2928,2.2928,2.2928,2.2928,2.2928,2.2928,2.2928,2.2928,2.2928,2.2928,2.2928,2.2928,2.2928,2.2928,2.2928,2.2928,2.2928,2.2928,2.2928,2.2792,2.2498,2.2218,2.1937,2.1695,2.1443,2.1309,2.1149,2.1109,2.1109,2.1109,2.1109,2.1109,2.1109,2.1109,2.1109,2.1109,2.1109,2.1109,2.1109,2.1109,2.1109,2.1109,2.1109,2.1109,2.1109,2.1109,2.1109,2.1109,2.1109,2.1109,2.1109,2.1109,2.1109,2.1109,2.1109,2.1109,2.1109,2.1109,2.1109,2.1109,2.1109,2.1109,2.1109,2.1109,2.1109,2.1109,2.1109,2.1109,2.1109,2.1109,2.1109,2.1109,2.1109,2.1109,2.1109,2.1109,2.1109,2.1109,2.2928,2.2928,2.2928,2.2928,2.2928,2.2928,2.2928,2.2928,2.2928,2.2928,2.2928,2.2928,2.2928,2.2928,2.2928,2.2928,2.2928,2.2928,2.2928,2.2928,2.2928,2.2928,2.2928,2.2928,2.2928,2.2928,2.2928,2.2928,2.2928,2.2928,2.2928,2.2928,2.2928,2.2928,2.2928,2.2928,2.2928,2.2928,2.2928,2.2928,2.2928,2.2928,2.2928,2.2928,2.2928,2.2928,2.2928,2.2928,2.2928,2.2928,2.2928,2.2928,2.2928,2.2928,2.2928,2.2928,2.2928,2.2819,2.2579,2.2472,2.2311,2.1871,2.1722,2.1561,2.1269,2.1162,2.1109,2.1109,2.1109,2.1109,2.1109,2.1109,2.1109,2.1109,2.1109,2.1109,2.1109,2.1109,2.1109,2.1109,2.1109,2.1109,2.1109,2.1109,2.1109,2.1109,2.1109,2.1109,2.1109,2.1109,2.1109,2.1109,2.1109,2.1109,2.1109,2.1109,2.1109,2.1109,2.1109,2.1109,2.1109,2.1109,2.1109,2.1109,2.1109,2.1109,2.1109,2.1109,2.1109,2.1109,2.1109,2.1109,2.1109,2.1109,2.1109,2.1109,2.2928,2.2928,2.2928,2.2928,2.2928,2.2928,2.2928,2.2928,2.2928,2.2928,2.2928,2.2928,2.2928,2.2928,2.2928,2.2928,2.2928,2.2928,2.2928,2.2928,2.2928,2.2928,2.2928,2.2928,2.2928,2.2928,2.2928,2.2928,2.2928,2.2928,2.2928,2.2928,2.2928,2.2928,2.2928,2.2928,2.2928,2.2928,2.2928,2.2928,2.2928,2.2928,2.2928,2.2928,2.2928,2.2928,2.2928,2.2928,2.2928,2.2928,2.2928,2.2928,2.2928,2.2928,2.2928,2.2928,2.2928,2.2859,2.2832,2.2632,2.2405,2.2365,2.1951,2.1614,2.1588,2.1309,2.1109,2.1109,2.1109,2.1109,2.1109,2.1109,2.1109,2.1109,2.1109,2.1109,2.1109,2.1109,2.1109,2.1109,2.1109,2.1109,2.1109,2.1109,2.1109,2.1109,2.1109,2.1109,2.1109,2.1109,2.1109,2.1109,2.1109,2.1109,2.1109,2.1109,2.1109,2.1109,2.1109,2.1109,2.1109,2.1109,2.1109,2.1109,2.1109,2.1109,2.1109,2.1109,2.1109,2.1109,2.1109,2.1109,2.1109,2.1109,2.1109,2.1109,2.2928,2.2928,2.2928,2.2928,2.2928,2.2928,2.2928,2.2928,2.2928,2.2928,2.2928,2.2928,2.2928,2.2928,2.2928,2.2928,2.2928,2.2928,2.2928,2.2928,2.2928,2.2928,2.2928,2.2928,2.2928,2.2928,2.2928,2.2928,2.2928,2.2928,2.2928,2.2928,2.2928,2.2928,2.2928,2.2928,2.2928,2.2928,2.2928,2.2928,2.2928,2.2928,2.2928,2.2928,2.2928,2.2928,2.2928,2.2928,2.2928,2.2928,2.2928,2.2928,2.2928,2.2928,2.2928,2.2928,2.2928,2.2928,2.2928,2.2779,2.2645,2.2458,2.2258,2.1991,2.1695,2.1534,2.1336,2.1149,2.1109,2.1109,2.1109,2.1109,2.1109,2.1109,2.1109,2.1109,2.1109,2.1109,2.1109,2.1109,2.1109,2.1109,2.1109,2.1109,2.1109,2.1109,2.1109,2.1109,2.1109,2.1109,2.1109,2.1109,2.1109,2.1109,2.1109,2.1109,2.1109,2.1109,2.1109,2.1109,2.1109,2.1109,2.1109,2.1172,2.1964,2.1839,2.1172,2.1964,2.1853,2.1109,2.1109,2.1109,2.1109,2.1109,2.1109,2.1109,2.2928,2.2928,2.2928,2.2928,2.2928,2.2928,2.2928,2.2928,2.2928,2.2928,2.2928,2.2928,2.2928,2.2928,2.2928,2.2928,2.2928,2.2928,2.2928,2.2928,2.2928,2.2928,2.2928,2.2928,2.2928,2.2928,2.2928,2.2928,2.2928,2.2928,2.2928,2.2928,2.2928,2.2928,2.2928,2.2928,2.2928,2.2928,2.2928,2.2928,2.2928,2.2928,2.2928,2.2928,2.2928,2.2928,2.2928,2.2928,2.2928,2.2928,2.2928,2.2928,2.2928,2.2928,2.2928,2.2928,2.2928,2.2928,2.2928,2.2928,2.2819,2.2605,2.2485,2.2311,2.1924,2.1748,2.1561,2.1296,2.1176,2.1109,2.1109,2.1109,2.1109,2.1109,2.1109,2.1109,2.1109,2.1109,2.1109,2.1109,2.1109,2.1109,2.1109,2.1109,2.1109,2.1109,2.1109,2.1109,2.1109,2.1109,2.1109,2.1109,2.1109,2.1109,2.1109,2.1109,2.1109,2.1109,2.1109,2.1109,2.1109,2.1109,2.1109,2.1172,2.209,2.2215,2.179,2.2702,2.2577,2.1727,2.1727,2.1475,2.1109,2.1109,2.1109,2.1109,2.2928,2.2928,2.2928,2.2928,2.2928,2.2928,2.2928,2.2928,2.2928,2.2928,2.2928,2.2928,2.2928,2.2928,2.2928,2.2928,2.2928,2.2928,2.2928,2.2928,2.2928,2.2928,2.2928,2.2928,2.2928,2.2928,2.2928,2.2928,2.2928,2.2928,2.2928,2.2928,2.2928,2.2928,2.2928,2.2928,2.2928,2.2928,2.2928,2.2928,2.2928,2.2928,2.2928,2.2928,2.2928,2.2928,2.2928,2.2928,2.2928,2.2928,2.2928,2.2928,2.2928,2.2928,2.2928,2.2928,2.2928,2.2928,2.2928,2.2928,2.2928,2.2928,2.2645,2.2418,2.2418,2.1977,2.1628,2.1614,2.1323,2.1109,2.1109,2.1109,2.1109,2.1109,2.1109,2.1109,2.1109,2.1109,2.1109,2.1109,2.1109,2.1109,2.1109,2.1109,2.1109,2.1109,2.1109,2.1109,2.1109,2.1109,2.1109,2.1109,2.1109,2.1109,2.1109,2.1109,2.1109,2.1109,2.1109,2.1109,2.1109,2.1109,2.1109,2.1109,2.1109,2.1839,2.3076,2.3139,2.3139,2.3076,2.3139,2.2278,2.1109,2.1109,2.1109,2.1109,2.2928,2.2928,2.2928,2.2928,2.2928,2.2928,2.2928,2.2928,2.2928,2.2928,2.2928,2.2928,2.2928,2.2928,2.2928,2.2928,2.2928,2.2928,2.2928,2.2928,2.2928,2.2928,2.2928,2.2928,2.2928,2.2928,2.2928,2.2928,2.2928,2.2928,2.2928,2.2928,2.2928,2.2928,2.2928,2.2928,2.2928,2.2928,2.2928,2.2928,2.2928,2.2928,2.2928,2.2928,2.2928,2.2928,2.2928,2.2928,2.2928,2.2928,2.2928,2.2928,2.2928,2.2928,2.2928,2.2928,2.2928,2.2928,2.2928,2.2928,2.2928,2.2928,2.2792,2.2672,2.2472,2.2285,2.2098,2.1897,2.1617,2.1416,2.1416,2.1256,2.1109,2.1109,2.1109,2.1109,2.1109,2.1109,2.1109,2.1109,2.1109,2.1109,2.1109,2.1109,2.1109,2.1109,2.1109,2.1109,2.1109,2.1109,2.1109,2.1109,2.1109,2.1109,2.1109,2.1109,2.1109,2.1109,2.1109,2.1109,2.1109,2.1109,2.1109,2.1172,2.209,2.2702,2.3201,2.407,2.3884,2.3201,2.407,2.3636,2.2577,2.3512,2.3822,2.3822,2.2928,2.2928,2.2928,2.2928,2.2928,2.2928,2.2928,2.2928,2.2928,2.2928,2.2928,2.2928,2.2928,2.2928,2.2928,2.2928,2.2928,2.2928,2.2928,2.2928,2.2928,2.2928,2.2928,2.2928,2.2928,2.2928,2.2928,2.2928,2.2928,2.2928,2.2928,2.2928,2.2928,2.2928,2.2928,2.2928,2.2928,2.2928,2.2928,2.2928,2.2928,2.2928,2.2928,2.2928,2.2928,2.2928,2.2928,2.2928,2.2928,2.2928,2.2928,2.2928,2.2928,2.2928,2.2928,2.2928,2.2928,2.2928,2.2928,2.2928,2.2928,2.2928,2.2928,2.2887,2.2632,2.2498,2.2365,2.2191,2.1924,2.1789,2.1789,2.1577,2.1416,2.1309,2.1283,2.1243,2.1122,2.1203,2.1283,2.1283,2.139,2.1456,2.1456,2.1456,2.1456,2.1456,2.1456,2.1456,2.1456,2.1456,2.1456,2.1456,2.1456,2.1403,2.1283,2.1283,2.1229,2.1109,2.1109,2.1109,2.1109,2.1109,2.1109,2.1172,2.1964,2.2577,2.3201,2.4502,2.4255,2.3263,2.5117,2.4687,2.3263,2.4502,2.4994,2.4994,2.2928,2.2928,2.2928,2.2928,2.2928,2.2928,2.2928,2.2928,2.2928,2.2928,2.2928,2.2928,2.2928,2.2928,2.2928,2.2928,2.2928,2.2928,2.2928,2.2928,2.2928,2.2928,2.2928,2.2928,2.2928,2.2928,2.2928,2.2928,2.2928,2.2928,2.2928,2.2928,2.2928,2.2928,2.2928,2.2928,2.2928,2.2928,2.2928,2.2928,2.2928,2.2928,2.2928,2.2928,2.2928,2.2928,2.2928,2.2928,2.2928,2.2928,2.2928,2.2928,2.2928,2.2928,2.2928,2.2928,2.2928,2.2928,2.2928,2.2928,2.2928,2.2928,2.2928,2.2928,2.2928,2.2645,2.2458,2.2458,2.2231,2.2031,2.2031,2.2004,2.1897,2.1695,2.1655,2.1561,2.1229,2.1416,2.1655,2.1655,2.1817,2.1991,2.1991,2.1991,2.1991,2.1991,2.1991,2.1991,2.1991,2.1991,2.1991,2.1991,2.1991,2.1857,2.1655,2.1655,2.143,2.1109,2.1109,2.1109,2.1109,2.1109,2.1109,2.1109,2.1109,2.1853,2.3201,2.4502,2.4255,2.3387,2.6128,2.5639,2.3494,2.495,2.5459,2.5459,2.2928,2.2928,2.2928,2.2928,2.2928,2.2928,2.2928,2.2928,2.2928,2.2928,2.2928,2.2928,2.2928,2.2928,2.2928,2.2928,2.2928,2.2928,2.2928,2.2928,2.2928,2.2928,2.2928,2.2928,2.2928,2.2928,2.2928,2.2928,2.2928,2.2928,2.2928,2.2928,2.2928,2.2928,2.2928,2.2928,2.2928,2.2928,2.2928,2.2928,2.2928,2.2928,2.2928,2.2928,2.2928,2.2928,2.2928,2.2928,2.2928,2.2928,2.2928,2.2928,2.2928,2.2928,2.2928,2.2928,2.2928,2.2928,2.2928,2.2928,2.2928,2.2928,2.2928,2.2928,2.2928,2.2819,2.2766,2.2766,2.2525,2.2325,2.2325,2.2138,2.1964,2.1897,2.1897,2.1871,2.1804,2.1857,2.1897,2.1897,2.1951,2.1991,2.1991,2.1991,2.1991,2.1991,2.1991,2.1991,2.1991,2.1991,2.1991,2.1991,2.1991,2.1951,2.1897,2.1897,2.163,2.1109,2.1109,2.1109,2.1109,2.1109,2.1109,2.1109,2.1109,2.1853,2.3201,2.4502,2.4255,2.3464,2.7452,2.745,2.5438,2.8102,2.9048,2.8994,2.2928,2.2928,2.2928,2.2928,2.2928,2.2928,2.2928,2.2928,2.2928,2.2928,2.2928,2.2928,2.2928,2.2928,2.2928,2.2928,2.2928,2.2928,2.2928,2.2928,2.2928,2.2928,2.2928,2.2928,2.2928,2.2928,2.2928,2.2928,2.2928,2.2928,2.2928,2.2928,2.2928,2.2928,2.2928,2.2928,2.2928,2.2928,2.2928,2.2928,2.2928,2.2928,2.2928,2.2928,2.2928,2.2928,2.2928,2.2928,2.2928,2.2928,2.2928,2.2928,2.2928,2.2928,2.2928,2.2928,2.2928,2.2928,2.2928,2.2928,2.2928,2.2928,2.2928,2.2928,2.2928,2.2928,2.2928,2.2928,2.2739,2.2632,2.2632,2.2512,2.2352,2.2218,2.2191,2.2151,2.2004,2.2111,2.2191,2.2191,2.2311,2.2405,2.2405,2.2405,2.2405,2.2405,2.2405,2.2405,2.2405,2.2405,2.2405,2.2405,2.2405,2.2338,2.2191,2.2191,2.2293,2.2538,2.2538,2.2454,2.2251,2.2314,2.2545,2.2966,2.2341,2.2914,2.4423,2.5727,2.5576,2.4936,2.7758,2.8092,2.6985,2.7815,2.8591,2.9262,2.2928,2.2928,2.2928,2.2928,2.2928,2.2928,2.2928,2.2928,2.2928,2.2928,2.2928,2.2928,2.2928,2.2928,2.2928,2.2928,2.2928,2.2928,2.2928,2.2928,2.2928,2.2928,2.2928,2.2928,2.2928,2.2928,2.2928,2.2928,2.2928,2.2928,2.2928,2.2928,2.2928,2.2928,2.2928,2.2928,2.2928,2.2928,2.2928,2.2928,2.2928,2.2928,2.2928,2.2928,2.2928,2.2928,2.2928,2.2928,2.2928,2.2928,2.2928,2.2928,2.2928,2.2928,2.2928,2.2928,2.2928,2.2928,2.2928,2.2928,2.2928,2.2928,2.2928,2.2928,2.2928,2.2928,2.2928,2.2928,2.2928,2.2928,2.2928,2.2928,2.2779,2.2539,2.2498,2.2405,2.2164,2.2338,2.2498,2.2498,2.2712,2.2928,2.2928,2.2928,2.2928,2.2928,2.2928,2.2928,2.2928,2.2928,2.2928,2.2928,2.2928,2.2875,2.2822,2.2822,2.342,2.4595,2.4855,2.4645,2.4015,2.4093,2.4512,2.5168,2.4113,2.4453,2.5911,2.7159,2.7156,2.6471,2.795,2.8427,2.8191,2.7208,2.7447,2.8427,2.2928,2.2928,2.2928,2.2928,2.2928,2.2928,2.2928,2.2928,2.2928,2.2928,2.2928,2.2928,2.2928,2.2928,2.2928,2.2928,2.2928,2.2928,2.2928,2.2928,2.2928,2.2928,2.2928,2.2928,2.2928,2.2928,2.2928,2.2928,2.2928,2.2928,2.2928,2.2928,2.2928,2.2928,2.2928,2.2928,2.2928,2.2928,2.2928,2.2928,2.2928,2.2928,2.2928,2.2928,2.2928,2.2928,2.2928,2.2928,2.2928,2.2928,2.2928,2.2928,2.2928,2.2928,2.2928,2.2928,2.2928,2.2928,2.2928,2.2928,2.2928,2.2928,2.2928,2.2928,2.2928,2.2928,2.2928,2.2928,2.2928,2.2928,2.2928,2.2928,2.2914,2.2806,2.2806,2.2792,2.2752,2.2779,2.2806,2.2806,2.2832,2.2928,2.2928,2.2928,2.2928,2.2928,2.2928,2.2928,2.2928,2.2928,2.2928,2.2928,2.2928,2.3447,2.4612,2.468,2.5308,2.6713,2.7982,2.7636,2.5945,2.5961,2.5993,2.6136,2.5945,2.5977,2.6343,2.7626,2.739,2.6567,2.9337,2.9732,2.8857,3.017,2.9824,2.8887,2.2928,2.2928,2.2928,2.2928,2.2928,2.2928,2.2928,2.2928,2.2928,2.2928,2.2928,2.2928,2.2928,2.2928,2.2928,2.2928,2.2928,2.2928,2.2928,2.2928,2.2928,2.2928,2.2928,2.2928,2.2928,2.2928,2.2928,2.2928,2.2928,2.2928,2.2928,2.2928,2.2928,2.2928,2.2928,2.2928,2.2928,2.2928,2.2928,2.2928,2.2928,2.2928,2.2928,2.2928,2.2928,2.2928,2.2928,2.2928,2.2928,2.2928,2.2928,2.2928,2.2928,2.2928,2.2928,2.2928,2.2928,2.2928,2.2928,2.2928,2.2928,2.2928,2.2928,2.2928,2.2928,2.2928,2.2928,2.2928,2.2928,2.2928,2.2928,2.2928,2.2928,2.2928,2.2928,2.2928,2.2928,2.2928,2.2928,2.2928,2.2928,2.2928,2.2928,2.2928,2.2928,2.2928,2.2928,2.2928,2.2928,2.2928,2.2928,2.2928,2.3665,2.4331,2.5008,2.5801,2.6922,2.8328,2.9003,2.8731,2.7613,2.7677,2.7959,2.8466,2.7693,2.7938,2.8841,2.9428,2.9489,2.9235,2.9749,2.9073,2.8161,3.0513,3.0413,2.9284]}]]